[[{"header":{"parameterUnit":"m.s-1","parameterCategory":1,"la1":30.6,"la2":29.2853,"lo1":-89.7004,"lo2":-87.6739,"dy":0.0162,"dx":0.0183,"nx":112,"ny":82,"refTime":"2024-05-31T18:00:00:Z","depth":0,"parameterNumber":2,"parameterNumberName":"U-component_of_WINDS"},"data":[0.0,0.0,0.0,0.0,0.0,0.0,0.0,0.0,0.0,0.0,0.0,0.0,0.0,0.0,0.0,0.0,0.0,0.0,0.0,0.0,0.0,0.0,0.0,0.0,0.0,0.0,0.0,0.0,0.0,0.0,0.0,0.0,0.0,0.0,0.0,0.0,0.0,0.0,0.0,0.0,0.0,0.0,0.0,0.0,0.0,0.0,0.0,0.0,0.0,0.0,0.0,0.0,0.0,0.0,0.0,0.0,0.0,0.0,0.0,0.0,0.0,0.0,0.0,0.0,0.0,0.0,0.0,0.0,0.0,0.0,0.0,0.0,0.0,0.0,0.0,0.0,0.0,0.0,0.0,0.0,0.0,0.0,0.0,0.0,0.0,0.0,0.0,0.0,0.0,0.0,-4.3439,-5.0238,-5.5303,-5.7702,-5.6423,-5.4773,-5.1328,-4.5463,0.0,0.0,0.0,0.0,0.0,0.0,0.0,0.0,0.0,0.0,0.0,0.0,0.0,0.0,0.0,0.0,0.0,0.0,0.0,0.0,0.0,0.0,0.0,0.0,0.0,0.0,0.0,0.0,0.0,0.0,0.0,0.0,0.0,0.0,0.0,0.0,0.0,0.0,0.0,0.0,0.0,0.0,0.0,0.0,0.0,0.0,0.0,0.0,0.0,0.0,0.0,0.0,0.0,0.0,0.0,0.0,0.0,0.0,0.0,0.0,0.0,0.0,0.0,0.0,0.0,0.0,0.0,0.0,0.0,0.0,0.0,0.0,0.0,0.0,0.0,0.0,0.0,0.0,0.0,0.0,0.0,0.0,0.0,0.0,0.0,0.0,0.0,0.0,0.0,0.0,0.0,0.0,0.0,0.0,0.0,0.0,0.0,0.0,0.0,0.0,0.0,0.0,0.0,0.0,-4.4403,-5.3423,-5.5355,-5.6122,-5.6292,-5.3281,-4.9396,-4.48,0.0,0.0,0.0,0.0,0.0,0.0,0.0,0.0,0.0,0.0,0.0,0.0,0.0,0.0,0.0,0.0,0.0,0.0,0.0,0.0,0.0,0.0,0.0,0.0,0.0,0.0,0.0,0.0,0.0,0.0,0.0,0.0,0.0,0.0,0.0,0.0,0.0,0.0,0.0,0.0,0.0,0.0,0.0,0.0,0.0,0.0,0.0,0.0,0.0,0.0,0.0,0.0,0.0,0.0,0.0,0.0,0.0,0.0,0.0,0.0,0.0,0.0,0.0,0.0,0.0,0.0,0.0,0.0,0.0,0.0,0.0,0.0,0.0,0.0,0.0,0.0,0.0,0.0,0.0,0.0,0.0,0.0,0.0,0.0,0.0,0.0,0.0,0.0,0.0,0.0,0.0,0.0,0.0,0.0,0.0,0.0,0.0,0.0,0.0,0.0,0.0,0.0,0.0,-4.26,-4.6973,-5.3961,-5.5251,-5.5521,-5.5277,-5.2931,-4.9427,-4.4714,-4.1662,0.0,0.0,0.0,0.0,0.0,0.0,0.0,0.0,0.0,0.0,0.0,0.0,0.0,0.0,0.0,0.0,0.0,0.0,0.0,0.0,0.0,0.0,0.0,0.0,0.0,0.0,0.0,0.0,0.0,0.0,0.0,0.0,0.0,0.0,0.0,0.0,0.0,0.0,0.0,0.0,0.0,0.0,0.0,0.0,0.0,0.0,0.0,0.0,0.0,0.0,0.0,0.0,0.0,0.0,0.0,0.0,0.0,0.0,0.0,0.0,0.0,0.0,0.0,0.0,0.0,0.0,0.0,0.0,0.0,0.0,0.0,0.0,0.0,0.0,0.0,0.0,0.0,0.0,0.0,0.0,0.0,0.0,0.0,0.0,0.0,0.0,0.0,0.0,0.0,0.0,0.0,0.0,0.0,0.0,0.0,0.0,0.0,0.0,0.0,0.0,0.0,0.0,-4.5914,-4.9226,-5.4059,-5.4853,-5.4883,-5.4594,-5.2279,-4.9049,-4.4868,-4.0346,0.0,0.0,0.0,0.0,0.0,0.0,0.0,0.0,0.0,0.0,0.0,0.0,0.0,0.0,0.0,0.0,0.0,0.0,0.0,0.0,0.0,0.0,0.0,0.0,0.0,0.0,0.0,0.0,0.0,0.0,0.0,0.0,0.0,0.0,0.0,0.0,0.0,0.0,0.0,0.0,0.0,0.0,0.0,0.0,0.0,0.0,0.0,0.0,0.0,0.0,0.0,0.0,0.0,0.0,0.0,0.0,0.0,0.0,0.0,0.0,0.0,0.0,0.0,0.0,0.0,0.0,0.0,0.0,0.0,0.0,0.0,0.0,0.0,0.0,0.0,0.0,0.0,0.0,0.0,0.0,0.0,0.0,0.0,0.0,0.0,0.0,0.0,0.0,0.0,0.0,0.0,0.0,0.0,0.0,0.0,0.0,0.0,0.0,0.0,0.0,0.0,0.0,-4.5812,-4.995,-5.4539,-5.4053,-5.382,-5.4968,-5.0378,-4.6795,-4.5233,-3.894,0.0,0.0,0.0,0.0,0.0,0.0,0.0,0.0,0.0,0.0,0.0,0.0,0.0,0.0,0.0,0.0,0.0,0.0,0.0,0.0,0.0,0.0,0.0,0.0,0.0,0.0,0.0,0.0,0.0,0.0,0.0,0.0,0.0,0.0,0.0,0.0,0.0,0.0,0.0,0.0,0.0,0.0,0.0,0.0,0.0,0.0,0.0,0.0,0.0,0.0,0.0,0.0,0.0,0.0,0.0,0.0,0.0,0.0,0.0,0.0,0.0,0.0,0.0,0.0,0.0,0.0,0.0,0.0,0.0,0.0,0.0,0.0,0.0,0.0,0.0,0.0,0.0,0.0,0.0,0.0,0.0,0.0,0.0,0.0,0.0,0.0,0.0,0.0,0.0,0.0,0.0,0.0,0.0,0.0,0.0,0.0,0.0,0.0,0.0,0.0,0.0,0.0,-4.433,-4.8097,0.0,-5.3213,-5.318,-5.3185,-5.0388,-4.7119,-4.3522,0.0,0.0,0.0,0.0,0.0,0.0,0.0,0.0,0.0,0.0,0.0,0.0,0.0,0.0,0.0,0.0,0.0,0.0,0.0,0.0,0.0,0.0,0.0,0.0,0.0,0.0,0.0,0.0,0.0,0.0,0.0,0.0,0.0,0.0,0.0,0.0,0.0,0.0,0.0,0.0,0.0,0.0,0.0,0.0,0.0,0.0,0.0,0.0,0.0,0.0,0.0,0.0,0.0,0.0,0.0,0.0,0.0,0.0,0.0,0.0,0.0,0.0,0.0,0.0,0.0,0.0,0.0,0.0,0.0,0.0,0.0,0.0,0.0,0.0,0.0,0.0,0.0,0.0,0.0,0.0,0.0,0.0,0.0,0.0,0.0,0.0,0.0,0.0,0.0,0.0,0.0,0.0,0.0,0.0,0.0,0.0,0.0,0.0,0.0,0.0,0.0,0.0,-4.0014,-4.3545,-4.7212,0.0,-5.2554,-5.2608,-5.205,-4.9655,-4.643,-4.231,0.0,0.0,0.0,0.0,0.0,0.0,0.0,0.0,0.0,0.0,0.0,0.0,0.0,0.0,0.0,0.0,0.0,0.0,0.0,0.0,0.0,0.0,0.0,0.0,0.0,0.0,0.0,0.0,0.0,0.0,0.0,0.0,0.0,0.0,0.0,0.0,0.0,0.0,0.0,0.0,0.0,0.0,0.0,0.0,0.0,0.0,0.0,0.0,0.0,0.0,0.0,0.0,0.0,0.0,0.0,0.0,0.0,0.0,0.0,0.0,0.0,0.0,0.0,0.0,0.0,0.0,0.0,0.0,0.0,0.0,0.0,0.0,0.0,0.0,0.0,0.0,0.0,0.0,0.0,0.0,0.0,0.0,0.0,0.0,0.0,0.0,0.0,0.0,0.0,0.0,0.0,0.0,0.0,0.0,0.0,0.0,0.0,0.0,0.0,0.0,0.0,0.0,-3.9532,-4.3807,-4.7808,-5.1658,-5.2047,-5.2055,-5.199,-4.7761,-4.4183,0.0,0.0,0.0,0.0,0.0,0.0,0.0,0.0,0.0,0.0,0.0,0.0,0.0,0.0,0.0,0.0,0.0,0.0,0.0,0.0,0.0,0.0,0.0,0.0,0.0,0.0,0.0,0.0,0.0,0.0,0.0,0.0,0.0,0.0,0.0,0.0,0.0,0.0,0.0,0.0,0.0,0.0,0.0,0.0,0.0,0.0,0.0,0.0,0.0,0.0,0.0,0.0,0.0,0.0,0.0,0.0,0.0,0.0,0.0,0.0,0.0,0.0,0.0,0.0,0.0,0.0,0.0,0.0,0.0,0.0,0.0,0.0,0.0,0.0,0.0,0.0,0.0,0.0,0.0,0.0,0.0,0.0,0.0,0.0,0.0,0.0,0.0,0.0,0.0,0.0,0.0,0.0,0.0,0.0,0.0,0.0,0.0,0.0,0.0,0.0,0.0,0.0,0.0,-3.7889,-4.1722,-4.5456,-4.9217,-5.0541,-5.0891,-5.0397,-4.8146,-4.4957,-4.0703,0.0,0.0,0.0,0.0,0.0,0.0,0.0,0.0,0.0,0.0,0.0,0.0,0.0,0.0,0.0,0.0,0.0,0.0,0.0,0.0,0.0,0.0,0.0,0.0,0.0,0.0,0.0,0.0,0.0,0.0,0.0,0.0,0.0,0.0,0.0,0.0,0.0,0.0,0.0,0.0,0.0,0.0,0.0,0.0,0.0,0.0,0.0,0.0,0.0,0.0,0.0,0.0,0.0,0.0,0.0,0.0,0.0,0.0,0.0,0.0,0.0,0.0,0.0,0.0,0.0,0.0,0.0,0.0,0.0,0.0,0.0,0.0,0.0,0.0,0.0,0.0,0.0,0.0,0.0,0.0,0.0,0.0,0.0,0.0,0.0,0.0,0.0,0.0,0.0,0.0,0.0,0.0,0.0,0.0,0.0,0.0,0.0,0.0,0.0,0.0,0.0,0.0,-3.6549,-4.0149,-4.3572,-4.7009,-4.8481,-4.9092,-4.883,-4.7536,-4.4644,-3.9771,0.0,0.0,0.0,0.0,0.0,0.0,0.0,0.0,0.0,0.0,0.0,0.0,0.0,0.0,0.0,0.0,0.0,0.0,0.0,0.0,0.0,0.0,0.0,0.0,0.0,0.0,0.0,0.0,0.0,0.0,0.0,0.0,0.0,0.0,0.0,0.0,0.0,0.0,0.0,0.0,0.0,0.0,0.0,0.0,0.0,0.0,0.0,0.0,0.0,0.0,0.0,0.0,0.0,0.0,0.0,0.0,0.0,0.0,0.0,0.0,0.0,0.0,0.0,0.0,0.0,0.0,0.0,0.0,0.0,0.0,0.0,0.0,0.0,0.0,0.0,0.0,0.0,0.0,0.0,0.0,0.0,0.0,0.0,0.0,0.0,0.0,0.0,0.0,0.0,0.0,0.0,0.0,0.0,0.0,0.0,0.0,0.0,0.0,0.0,0.0,0.0,0.0,-3.5251,-3.8696,-4.1999,-4.496,-4.6118,-4.6799,-4.7283,-4.6255,-4.3767,-3.9443,0.0,0.0,0.0,0.0,0.0,0.0,0.0,0.0,0.0,0.0,0.0,0.0,0.0,0.0,0.0,0.0,0.0,0.0,0.0,0.0,0.0,0.0,0.0,0.0,0.0,0.0,0.0,0.0,0.0,0.0,0.0,0.0,0.0,0.0,0.0,0.0,0.0,0.0,0.0,0.0,0.0,0.0,0.0,0.0,0.0,0.0,0.0,0.0,0.0,0.0,0.0,0.0,0.0,0.0,0.0,0.0,0.0,0.0,0.0,0.0,-3.1086,0.0,0.0,0.0,0.0,0.0,0.0,0.0,0.0,0.0,0.0,0.0,0.0,0.0,0.0,0.0,0.0,0.0,0.0,0.0,0.0,0.0,0.0,0.0,0.0,0.0,0.0,0.0,0.0,0.0,0.0,0.0,0.0,0.0,0.0,0.0,0.0,0.0,0.0,0.0,0.0,0.0,-3.2454,-3.5864,-3.944,-4.3136,-4.4208,-4.5227,-4.6406,-4.583,-4.4023,-4.0775,-3.766,0.0,0.0,0.0,0.0,0.0,0.0,0.0,0.0,0.0,0.0,0.0,0.0,0.0,0.0,0.0,0.0,0.0,0.0,0.0,0.0,0.0,0.0,0.0,0.0,0.0,0.0,0.0,0.0,0.0,0.0,0.0,0.0,0.0,0.0,0.0,0.0,0.0,0.0,0.0,0.0,0.0,0.0,0.0,0.0,0.0,0.0,0.0,0.0,0.0,0.0,0.0,0.0,0.0,0.0,0.0,0.0,0.0,0.0,0.0,0.0,-3.2026,0.0,0.0,0.0,0.0,0.0,0.0,0.0,0.0,0.0,0.0,0.0,0.0,0.0,0.0,0.0,0.0,0.0,0.0,0.0,0.0,0.0,0.0,0.0,0.0,0.0,0.0,0.0,0.0,0.0,0.0,0.0,0.0,0.0,0.0,0.0,0.0,0.0,0.0,0.0,0.0,-3.2264,-3.5034,-3.7699,-4.0407,-4.1931,-4.3152,-4.4113,-4.4598,-4.3887,-4.1608,-3.887,0.0,0.0,0.0,0.0,0.0,0.0,0.0,0.0,0.0,0.0,0.0,0.0,0.0,0.0,0.0,0.0,0.0,0.0,0.0,0.0,0.0,0.0,0.0,0.0,0.0,0.0,0.0,0.0,0.0,0.0,0.0,0.0,0.0,0.0,0.0,0.0,0.0,0.0,0.0,0.0,0.0,0.0,0.0,0.0,0.0,0.0,0.0,0.0,0.0,0.0,0.0,0.0,0.0,-4.5264,-4.5258,-4.4285,-4.3069,-4.2255,-4.1598,-3.7113,-3.519,-3.504,-3.2937,0.0,0.0,0.0,0.0,0.0,0.0,0.0,0.0,0.0,0.0,0.0,0.0,0.0,0.0,0.0,0.0,0.0,0.0,0.0,0.0,0.0,0.0,0.0,0.0,-3.2384,-3.2016,-2.7756,0.0,0.0,0.0,0.0,0.0,0.0,0.0,0.0,0.0,0.0,0.0,-3.3172,-3.5142,-3.6915,-3.8501,-4.0136,-4.1299,-4.1983,-4.34,-4.3621,-4.215,-3.991,-3.7922,0.0,0.0,0.0,0.0,0.0,0.0,0.0,0.0,0.0,0.0,0.0,0.0,0.0,0.0,0.0,0.0,0.0,0.0,0.0,0.0,0.0,0.0,0.0,0.0,0.0,0.0,0.0,0.0,0.0,0.0,0.0,0.0,-3.1209,-3.377,0.0,0.0,0.0,0.0,0.0,0.0,0.0,0.0,0.0,0.0,0.0,0.0,0.0,-4.5694,-4.7188,-4.8584,-4.9271,-4.9241,-4.9276,-4.924,-4.9033,-4.6698,-4.558,-4.54,-4.3059,0.0,-3.7719,-3.5798,0.0,0.0,0.0,0.0,0.0,0.0,0.0,0.0,0.0,0.0,0.0,0.0,0.0,0.0,0.0,0.0,0.0,0.0,0.0,0.0,0.0,0.0,-3.302,-3.4038,-3.4402,-3.466,0.0,-3.0316,-2.5887,-2.5069,-2.3703,0.0,0.0,0.0,0.0,0.0,0.0,0.0,-3.3527,-3.5315,-3.7496,-4.076,-4.0547,-4.0793,-4.2444,-4.3516,-4.3493,-4.2259,-4.1871,-4.0764,-3.8633,-3.7026,0.0,0.0,0.0,0.0,0.0,0.0,0.0,0.0,0.0,0.0,0.0,0.0,0.0,0.0,0.0,0.0,0.0,0.0,0.0,0.0,0.0,0.0,0.0,0.0,0.0,0.0,0.0,0.0,0.0,-3.0387,-3.3472,-3.5494,-3.552,-3.5515,0.0,0.0,0.0,0.0,0.0,0.0,0.0,0.0,0.0,-4.6202,-4.7344,-4.8261,-4.9028,-5.048,-5.1055,-5.0697,-5.1089,-5.1089,-5.0577,-4.8417,-4.7357,-4.7285,-4.5321,-4.3614,-4.2058,-3.9364,-3.7476,-3.5952,0.0,0.0,0.0,0.0,-2.901,-2.9052,-2.9658,-3.0505,-3.1299,-3.0995,0.0,0.0,0.0,0.0,0.0,0.0,0.0,0.0,0.0,0.0,-3.5219,-3.6036,-3.7354,-3.8501,-3.8663,-3.6513,-3.3633,0.0,-2.9757,-2.8917,-2.7323,0.0,0.0,0.0,0.0,-3.3016,-3.5459,-3.6632,-3.8167,-4.0435,-4.0746,-4.1033,-4.1477,-4.3018,-4.36,-4.2731,-4.2832,-4.2303,-4.0899,-3.9022,-3.6654,0.0,0.0,0.0,0.0,0.0,0.0,0.0,0.0,0.0,0.0,0.0,0.0,0.0,0.0,0.0,0.0,0.0,0.0,0.0,0.0,0.0,0.0,0.0,0.0,0.0,0.0,0.0,0.0,-3.2805,-3.5513,-3.738,-3.7767,-3.7971,0.0,0.0,0.0,0.0,0.0,0.0,-4.5057,-4.6284,-4.7537,-4.879,-4.9813,-5.0418,-5.0661,-5.1839,-5.2201,-5.1726,-5.232,-5.2301,-5.1727,-4.9724,-4.8829,-4.8754,-4.6727,-4.5708,-4.5334,-4.2372,-4.0561,-3.9326,-3.6307,-3.5107,-3.4904,-3.3109,-3.2604,-3.2968,-3.4147,-3.5275,-3.612,-3.613,-3.5983,-3.5611,-3.478,0.0,0.0,0.0,0.0,-3.4604,-3.5063,-3.6333,-3.7691,-3.8533,-4.0501,-4.2019,-4.1878,-4.2108,-4.087,0.0,-3.5534,-3.4953,-3.1897,0.0,0.0,0.0,0.0,-3.6458,-3.8489,-3.8916,-3.9666,-4.1342,-4.1618,-4.1609,-4.1503,-4.3051,-4.3798,-4.3089,-4.3448,-4.3284,-4.2337,-4.0713,-3.8684,-3.6248,0.0,0.0,0.0,0.0,0.0,0.0,0.0,0.0,0.0,0.0,0.0,0.0,0.0,0.0,0.0,0.0,0.0,0.0,0.0,0.0,0.0,0.0,0.0,0.0,0.0,0.0,0.0,0.0,0.0,-4.0778,-4.1261,0.0,0.0,0.0,0.0,-4.2458,-4.4583,-4.6623,-4.8275,-4.9094,-5.0241,-5.1847,-5.1971,-5.2362,-5.3238,-5.3264,-5.3341,-5.3399,-5.3432,-5.3449,-5.3315,-5.1222,-5.0301,-5.0147,-4.8133,-4.686,-4.6112,-4.4047,-4.315,-4.2644,-3.8597,-3.7093,-3.6701,-3.401,-3.3696,-3.478,-3.5992,-3.6896,-3.7933,-4.1099,-4.1524,-4.087,-4.0663,-3.9496,0.0,0.0,-3.8471,-3.8509,-3.8741,-3.9506,-4.064,-4.2302,-4.3532,-4.4514,-4.5707,-4.592,-4.4448,0.0,-3.8854,-3.8696,-3.7143,0.0,-3.8388,-3.8583,-3.9822,-4.1214,-4.26,-4.2241,-4.2864,-4.5619,-4.3485,-4.247,-4.3781,-4.4123,-4.4007,-4.3344,-4.4047,-4.3859,-4.2354,-4.2185,-4.0764,-3.7855,-3.6214,0.0,0.0,0.0,0.0,0.0,0.0,0.0,0.0,0.0,0.0,0.0,0.0,0.0,0.0,0.0,0.0,0.0,0.0,0.0,0.0,0.0,0.0,0.0,0.0,0.0,0.0,0.0,0.0,-4.0427,-4.1579,0.0,-4.2381,-4.2959,-4.3972,-4.5493,-4.7281,-4.9009,-5.0735,-5.1637,-5.2312,-5.2927,-5.2289,-5.2465,-5.3423,-5.2792,-5.2808,-5.3501,-5.3501,-5.3501,-5.3433,-5.201,-5.1005,-5.032,-4.8922,-4.7782,-4.6905,-4.6187,-4.5379,-4.4348,-4.2175,-4.0786,-3.9876,-3.8158,-3.7198,-3.7013,-3.8253,-3.9815,-4.1753,-4.5321,-4.6269,-4.5963,-4.593,-4.5546,-4.4962,-4.4157,-4.394,-4.3735,-4.3019,-4.3653,-4.4567,-4.5248,-4.665,-4.7993,-4.8442,-4.8594,-4.8001,-4.5623,-4.4053,-4.2575,-4.0779,-4.1501,-4.2099,-4.1174,-4.2288,-4.3504,-4.434,-4.4196,-4.4606,-4.6023,-4.5246,-4.4488,-4.4122,-4.4203,-4.3805,-4.2664,-4.2948,-4.2658,-4.1627,-4.1593,-4.0646,-3.865,-3.7601,-3.525,0.0,0.0,0.0,0.0,0.0,0.0,0.0,0.0,0.0,0.0,0.0,0.0,0.0,0.0,0.0,0.0,0.0,0.0,0.0,0.0,0.0,0.0,0.0,0.0,0.0,0.0,-3.9259,-4.0245,-4.1434,-4.2296,-4.2543,-4.3443,-4.4528,-4.5746,-4.7618,-4.9268,-5.0459,-5.1691,-5.242,-5.242,-5.1751,-5.1704,-5.2416,-5.1776,-5.1938,-5.2956,-5.2956,-5.3179,-5.3433,-5.24,-5.1377,-5.032,-4.9296,-4.8225,-4.7309,-4.7309,-4.6785,-4.5863,-4.4457,-4.3201,-4.1879,-4.0469,-3.9226,-3.8589,-4.083,-4.3407,-4.6118,-4.8805,-5.0082,-5.0475,-5.0563,-5.0582,-5.0337,-4.9147,-4.8694,-4.8296,-4.713,-4.7537,-4.8184,-4.8184,-4.9218,-5.0376,-5.0592,-5.0551,-5.0291,-4.9698,-4.7934,-4.5848,-4.3977,-4.4693,-4.5164,-4.3957,-4.4809,-4.5715,-4.6061,-4.6039,-4.6296,-4.7039,-4.6673,-4.5988,-4.5082,-4.4636,-4.3996,-4.3074,-4.2555,-4.2066,-4.1593,-4.1339,-4.0612,-3.9394,-3.8159,-3.6045,-3.3017,0.0,0.0,0.0,0.0,0.0,0.0,0.0,0.0,0.0,0.0,0.0,0.0,0.0,0.0,0.0,0.0,0.0,0.0,0.0,0.0,0.0,0.0,0.0,-3.896,-3.8477,-3.8793,-4.0428,-4.0943,-4.1077,-4.0856,-4.2159,-4.3042,-4.2983,-4.5642,-4.7302,-4.7302,-4.9174,-5.0304,-5.0304,-5.0242,-5.0258,-5.032,-5.0336,-5.0871,-5.1832,-5.1832,-5.24,-5.3348,-5.2329,-5.1303,-5.032,-4.9215,-4.821,-4.7381,-4.7381,-4.7381,-4.7133,-4.5376,-4.393,-4.2551,-4.075,-3.9622,-3.9597,-4.3594,-4.7356,-5.0542,-5.1596,-5.3022,-5.4278,-5.4319,-5.4345,-5.4146,-5.324,-5.2619,-5.2015,-5.1076,-5.0997,-5.1155,-5.1091,-5.1197,-5.1507,-5.2287,-5.1816,-5.1252,-5.1319,-5.0138,-4.8551,-4.691,-4.7333,-4.7699,-4.6972,-4.7479,0.0,-4.7953,-4.7791,-4.8015,-4.8923,-4.7545,-4.6623,-4.6828,-4.5466,-4.4587,-4.4553,-4.3098,-4.2252,-4.2252,-4.1576,-4.0865,-4.0121,-3.7956,-3.6096,-3.4556,0.0,0.0,0.0,0.0,0.0,0.0,0.0,0.0,0.0,0.0,0.0,0.0,0.0,0.0,0.0,0.0,0.0,0.0,0.0,0.0,0.0,0.0,-4.0704,-3.9177,-3.9753,-3.9975,-3.9089,-3.9171,-3.8482,-3.664,-3.8321,-3.9346,-3.8899,-4.2056,-4.4352,-4.5226,-4.6765,-4.7638,-4.7638,-4.7336,-4.7739,-4.8981,-4.869,-4.933,-5.0779,-5.0779,-5.0946,-5.1245,-5.0946,-5.0242,-4.9215,-4.8907,-4.8677,-4.8361,-4.8361,-4.8361,-4.8278,-4.704,-4.5799,-4.445,-4.3062,-4.2344,-4.2493,-4.4393,-4.7356,-5.0758,-5.2904,-5.46,-5.5995,-5.7122,-5.7463,-5.7279,-5.651,-5.592,-5.5383,-5.4552,-5.4373,-5.4249,-5.3773,-5.3639,-5.3582,-5.3267,-5.2997,-5.2705,-5.214,-5.1723,-5.078,-4.868,-4.8495,-4.8629,-4.8426,-4.8578,0.0,-4.8714,-4.8664,-4.8719,-4.9001,-4.8613,-4.813,-4.7665,-4.6261,-4.4925,-4.3809,-4.2337,-4.1508,-4.1508,-4.1322,-4.1102,-4.0899,-3.9242,-3.7652,0.0,0.0,0.0,0.0,0.0,0.0,0.0,0.0,0.0,0.0,0.0,0.0,0.0,0.0,0.0,0.0,0.0,0.0,0.0,0.0,0.0,0.0,-4.1314,-4.1716,-4.0626,-4.0851,-4.0704,-3.936,-3.8303,-3.6986,-3.5016,-3.548,-3.5433,-3.4414,-3.751,-3.9792,-4.0572,-4.3225,-4.4798,-4.4961,-4.5355,-4.6017,-4.7052,-4.7359,-4.8145,-4.9284,-4.9848,-5.0216,-5.0397,-5.0397,-4.9852,-4.8825,-4.8825,-4.8825,-4.8825,-4.8825,-4.9054,0.0,0.0,0.0,0.0,0.0,-4.3882,-4.4414,-4.5414,-4.7821,-5.0849,-5.3369,-5.534,-5.6974,-5.8508,-5.8971,-5.8914,-5.8468,-5.7876,-5.7234,-5.6789,-5.6169,-5.5592,-5.5144,-5.4606,-5.4218,-5.4391,-5.4216,-5.3905,-5.3798,-5.3279,0.0,-5.0686,-4.9892,-4.9357,-4.9052,-4.9001,-4.9001,-4.9001,-4.9001,-4.9001,-4.9001,-4.9001,-4.8714,-4.797,-4.6566,0.0,0.0,0.0,-4.166,-4.166,-4.166,0.0,0.0,0.0,0.0,0.0,0.0,0.0,0.0,-3.951,-4.0281,0.0,0.0,0.0,0.0,0.0,0.0,0.0,0.0,0.0,0.0,0.0,0.0,0.0,0.0,0.0,0.0,-4.109,-4.1444,-4.131,-4.0905,-4.0542,-4.0295,-3.804,-3.5945,-3.4647,-3.3375,-3.1891,-3.0315,-3.2818,-3.4779,-3.539,0.0,0.0,0.0,0.0,-4.477,-4.4916,-4.6153,-4.7066,-4.7525,-4.8845,-4.9683,-5.0042,-5.0231,-4.9772,-4.8826,-4.8749,-4.8867,-4.9097,-4.9019,-4.9536,-5.032,-4.9215,-4.7372,-4.5298,-4.4163,-4.4442,-4.5555,-4.6387,0.0,0.0,-5.3222,-5.5399,-5.7324,-5.8859,-5.9319,-5.9319,-5.9319,-5.8694,-5.7997,-5.7997,-5.6909,-5.5836,-5.5706,-5.4606,-5.3946,-5.522,-5.4982,-5.4807,-5.5419,-5.4508,-5.3359,-5.2537,-5.1223,-4.9999,-4.9357,-4.9187,-4.912,-4.912,-4.9052,-4.9001,-4.9001,0.0,0.0,-4.8105,-4.6769,-4.5923,-4.5838,-4.3842,-4.2675,-4.2675,-4.276,-4.276,-4.2675,-4.2675,-4.2625,-4.2557,-4.4012,-4.4647,-4.4406,-4.2573,-4.2979,0.0,0.0,0.0,0.0,0.0,0.0,0.0,0.0,0.0,0.0,0.0,0.0,0.0,0.0,0.0,-3.4048,-3.5568,-3.6184,-3.4374,-3.5392,-3.702,-3.8647,-3.6442,-3.3901,-3.1714,-3.1311,-3.0548,-2.8937,-3.1691,-3.4177,-3.5893,-3.7925,-3.9845,-4.1549,-4.2353,-4.2993,-4.3525,-4.4287,-4.501,-4.5664,0.0,0.0,-4.7859,-4.8953,-4.9367,-4.9176,-4.8648,-4.9358,-5.0882,-5.031,-5.0242,-5.032,-4.9215,-4.7372,-4.5403,-4.5115,-4.5207,-4.5389,-4.5631,-4.7722,-5.0698,-5.2404,-5.4589,-5.6837,-5.8382,-5.8835,0.0,-5.8835,-5.8418,-5.7997,-5.7997,-5.7333,-5.6492,-5.5836,-5.5042,-5.4328,-5.3994,-5.4264,-5.4447,-5.4046,-5.4167,-5.3953,-5.2571,-5.16,-5.0947,-5.0811,-5.027,-4.9881,-4.9881,-4.9373,-4.9001,-4.9001,-4.9001,-4.8951,-4.8798,-4.7986,-4.7225,-4.6616,-4.5618,-4.5043,-4.5043,-4.5602,-4.5635,-4.506,-4.5043,-4.4739,-4.4147,-4.5043,-4.5456,-4.5416,-4.6092,-4.6603,0.0,0.0,0.0,0.0,0.0,0.0,0.0,0.0,0.0,0.0,0.0,-2.5002,0.0,0.0,-3.0109,-2.8505,-2.8757,-2.8485,-2.6743,-2.7582,-3.0299,-3.5445,-3.5367,-3.3744,-3.0856,-3.0713,-3.0033,-2.8437,-3.0743,-3.3163,-3.5092,-3.7707,-4.0037,-4.1982,-4.3086,-4.376,-4.4085,-4.5072,-4.5236,-4.4657,-4.5954,-4.6489,-4.6194,-4.6881,-4.7572,-4.8223,-4.7577,-4.8555,-5.0592,-5.0467,-5.0397,-5.0242,-4.8553,-4.7272,-4.6344,-4.6344,-4.6344,-4.6418,-4.6971,-4.8517,-5.0714,-5.2774,-5.4811,-5.6695,-5.8233,-5.8694,-5.8694,-5.8694,-5.8351,-5.7932,-5.7565,-5.6876,-5.6077,-5.532,-5.4606,-5.4042,-5.4042,-5.431,-5.4589,-5.4606,-5.4606,-5.4361,-5.3558,-5.2816,-5.2097,-5.1336,-5.0574,-5.0084,-5.0084,-4.9458,-4.9001,-4.9001,-4.9001,-4.9001,-4.9001,-4.8342,-4.7597,-4.6836,-4.6447,-4.6244,-4.6244,-4.6599,-4.6616,-4.6261,-4.6244,-4.6058,-4.5686,-4.6447,-4.6819,-4.6836,-4.8226,-4.8661,0.0,0.0,0.0,0.0,0.0,0.0,0.0,0.0,-1.7543,-1.9839,-2.0242,-2.0686,-2.2415,-2.3433,-2.3432,-2.1677,-2.0666,-1.9845,-1.8807,-1.973,-2.3069,-2.9957,-3.2891,-3.3583,-3.1681,-3.1451,-3.0962,-2.9628,-3.1337,-3.32,-3.5132,-3.8296,-4.0913,-4.3115,-4.4336,-4.5142,-4.5462,-4.6279,-4.5826,-4.4243,-4.5367,-4.5622,-4.5056,-4.5344,-4.6153,-4.7195,-4.68,-4.7822,-4.9869,-5.0216,-5.0133,-4.9536,-4.7615,-4.6795,-4.6638,-4.6829,-4.6931,-4.7076,-4.8126,-4.9311,-5.079,-5.2975,-5.484,-5.6515,-5.7929,-5.8447,-5.8549,-5.8549,-5.8176,-5.766,-5.7065,-5.6204,-5.532,-5.4757,-5.4059,-5.3668,-5.4264,-5.4374,-5.4544,-5.5161,-5.4757,-5.4374,-5.4374,-5.3881,-5.3078,-5.1843,-5.1014,-5.0524,-5.0524,-4.9763,-4.9221,-4.9221,-4.9086,-4.9001,-4.9001,-4.8477,-4.7868,-4.7259,-4.7225,-4.7225,-4.7225,-4.7225,-4.7225,-4.7225,-4.7225,-4.7293,-4.7428,-4.8054,-4.8409,-4.8578,-4.9763,-4.9915,-2.9869,-2.8623,-2.6557,-2.5174,-2.2486,-2.0163,0.0,0.0,-1.4514,-1.4484,-1.3556,-1.2571,-1.1792,-1.1912,-1.1811,-1.0685,-1.0882,-1.1132,-1.1229,-1.4178,-1.7342,-1.9728,-2.6328,-3.182,-3.456,-3.4825,-3.4703,-3.446,-3.5144,-3.6432,-3.8507,-3.9522,-4.1509,-4.4673,-4.4928,-4.5555,-4.6888,-4.5767,-4.5116,-4.4956,-4.5049,-4.5116,-4.505,-4.6283,-4.7003,-4.7137,-4.8056,-4.8962,-4.9869,-5.0216,-4.9186,-4.7277,-4.7006,-4.5665,-4.4069,-4.5207,-4.5584,-4.5779,-4.7076,-4.8774,-5.0579,-5.1487,-5.3626,-5.595,-5.684,-5.7576,-5.807,-5.807,-5.7594,-5.7015,-5.6912,-5.5816,-5.4695,-5.4589,-5.4059,-5.3501,-5.3618,-5.3601,-5.3685,-5.3734,-5.3668,-5.3601,-5.3601,-5.3551,-5.345,-5.3281,-5.257,-5.2046,-5.2046,-5.0828,-4.9965,-4.9965,-4.939,-4.9001,-4.9001,-4.8934,-4.8849,-4.8765,-4.8748,-4.8748,-4.8748,-4.8748,-4.8748,-4.8748,-4.8748,-4.9069,-4.9729,-4.9796,-5.0185,-5.0845,-5.1014,-5.0676,-3.1981,-2.9678,-2.5926,0.0,-1.919,-1.5805,-1.3004,-0.9249,-0.6168,-0.5463,-0.4268,-0.3267,-0.3031,-0.4443,-0.5255,0.0,-0.4692,-0.5194,-0.435,-0.6475,-1.0214,-1.5623,-2.2475,-2.8878,-3.4139,-3.5042,-3.6252,-3.8415,-3.8168,-3.8576,-4.0281,-4.1225,-4.2771,-4.4928,-4.5767,-4.6069,-4.5872,-4.6069,-4.5462,-4.3797,-4.2848,-4.2488,-4.2376,-4.204,-4.2717,-4.4098,-4.5901,-4.6992,-4.7496,-4.6697,-4.6123,-4.5697,-4.4337,-4.3217,-4.2544,-4.3787,-4.4734,-4.557,-4.6666,-4.8486,-5.0579,-5.1997,-5.3937,-5.5836,-5.6668,-5.7401,-5.7997,-5.7997,-5.7449,-5.6791,-5.6313,-5.5379,-5.4482,-5.4042,-5.3717,-5.3501,-5.3501,-5.3501,-5.3501,-5.3501,-5.3501,-5.3501,-5.3501,-5.3501,-5.3501,-5.3501,-5.2824,-5.23,-5.23,-5.0997,-4.9932,-4.9509,-4.9187,-4.9001,-4.9001,-4.9001,-4.9001,-4.9001,-4.9001,-4.9152,-4.958,-4.9212,-4.9152,-4.9563,-4.962,-4.9779,-5.0084,-4.9957,-5.0043,-5.0359,-5.0775,-5.0792,-3.3351,-2.994,0.0,-1.9793,-1.4961,-0.9979,-0.425,-0.0279,0.264,0.3733,0.3386,0.3206,0.3768,0.0233,-0.2205,-0.038,-0.1424,-0.2243,-0.1609,-0.3339,-0.7474,-1.4739,-2.0991,-2.7604,-3.5109,-3.6906,-3.8691,-4.1395,-4.108,-4.1071,-4.1826,-4.2894,-4.4016,-4.4941,-4.5964,-4.6174,-4.5555,-4.6174,-4.5329,-4.2886,-4.1395,-4.0361,-3.9884,-3.8698,-3.9337,-4.1446,-4.2788,-4.38,-4.4386,-4.3355,-4.3121,-4.3252,-4.1643,-4.0754,-4.0565,-4.1512,-4.3163,-4.4995,-4.6138,-4.8177,-5.0611,-5.1938,-5.3751,-5.5495,-5.6095,-5.6773,-5.7364,-5.7364,-5.6825,-5.615,-5.5552,-5.4878,-5.4154,-5.3618,-5.3501,-5.3501,-5.3501,-5.3501,-5.3501,-5.3501,-5.3501,-5.3501,-5.3501,-5.3501,-5.3501,-5.3501,-5.301,-5.2638,-5.2638,-5.1505,-5.0422,-4.9695,-4.9424,-4.9306,-4.9306,-4.912,-4.9001,-4.9001,-4.9001,-4.9212,-4.9722,-4.9684,-4.9787,-5.0015,-5.0505,-5.0583,-5.0272,-5.0088,-5.0089,-5.0303,-5.0883,-5.1272,-3.4097,0.0,-2.3147,-1.7325,-1.0455,-0.3123,0.4194,0.7925,1.0236,1.1968,0.8018,0.5197,0.8103,0.184,-0.3,-0.0623,-0.1539,-0.3152,-0.4948,-0.7911,-1.1927,-1.7202,-2.222,-2.9099,0.0,-4.2031,-4.3286,-4.3381,-4.4511,-4.4501,-4.3229,-4.4309,-4.4941,-4.5048,-4.5048,-4.5661,-4.6991,-4.5767,-4.4323,-4.2672,-4.1334,-3.9768,-3.8223,-3.8223,-3.8938,-4.0326,-3.93,-3.9623,-4.0917,-4.1272,-4.0608,-3.9562,-3.9473,-3.8723,-3.7678,-3.7666,-4.0185,-4.3787,-4.501,-4.7652,-5.0397,-5.0474,-5.2341,-5.4651,-5.4651,-5.5203,-5.5762,-5.5762,-5.5262,-5.4651,-5.4651,-5.4106,-5.3501,-5.3501,-5.3501,-5.3501,-5.3501,-5.3501,-5.3501,-5.3501,-5.3501,-5.3501,-5.3501,-5.3501,-5.3501,-5.3501,-5.3484,-5.3467,-5.3467,-5.2739,-5.1961,-5.1217,-5.049,-5.005,-5.005,-4.9407,-4.9001,-4.9001,-4.9001,-4.9001,-4.9001,-5.0462,-5.084,-5.0113,-5.158,-5.1816,-5.0752,-5.0768,-5.1147,-5.1855,-5.1872,-5.2437,-3.7018,0.0,-2.6388,-1.7052,-0.8581,0.0088,1.0254,1.5821,1.9133,2.0025,1.4743,0.9826,0.9086,0.2091,-0.3985,-0.5526,-0.757,-0.8976,-0.885,-1.3361,-1.7895,-2.1649,-2.7196,0.0,0.0,0.0,0.0,-4.5532,-4.55,-4.4702,-4.3319,-4.4309,-4.463,-4.37,-4.4522,-4.4833,-4.4427,-4.3765,-4.2723,-4.1322,-3.8642,-3.5987,-3.3377,-3.4346,-3.4492,-3.391,-3.5104,-3.585,-3.641,-3.6998,-3.7652,-3.8133,-3.8133,-3.8509,-3.8908,-3.8908,-4.0867,-4.3598,-4.3975,-4.6328,-4.9252,-5.0117,-5.2287,-5.4589,-5.4589,-5.5102,-5.5706,-5.5706,-5.5144,-5.4589,-5.4589,-5.4042,-5.3501,-5.3501,-5.3501,-5.3501,-5.3501,-5.3501,-5.3501,-5.3501,-5.3501,-5.3501,-5.3501,-5.3501,-5.3501,-5.3501,-5.3501,-5.3315,-5.2773,-5.2469,-5.2029,-5.1302,-5.0997,-5.0828,-5.0828,-5.0608,-5.0473,-5.0473,-5.0473,-5.0691,-5.1193,-5.1699,-5.1897,-5.1554,-5.2581,-5.2362,-5.0818,-5.0644,-5.031,-4.9836,-5.0534,-5.0703,-3.8897,-3.507,-2.8884,-2.0391,-1.0142,0.0406,1.0187,1.713,2.1572,2.2059,1.479,0.7804,0.6227,-0.2202,-0.9529,-1.1701,-1.3579,-1.4938,-1.5689,-1.9598,-2.3693,-2.7345,-3.2227,-3.7431,0.0,0.0,0.0,-4.678,-4.6867,-4.6097,-4.4702,-4.5331,-4.5142,-4.381,-4.3526,-4.296,-4.2137,-4.1412,-4.0068,-3.7874,-3.5242,-3.2524,-2.9856,-3.0956,-3.0782,-2.981,-3.1133,-3.1982,-3.2535,-3.4047,-3.5378,-3.6811,-3.7829,-3.8797,-3.9674,-4.0058,-4.1287,-4.2821,-4.3286,-4.5962,-4.9347,-5.0117,-5.2125,-5.4218,-5.4218,-5.4544,-5.4939,-5.4939,-5.4544,-5.4218,-5.4218,-5.3832,-5.3501,-5.3501,-5.3501,-5.3501,-5.3501,-5.3501,-5.3501,-5.3501,-5.3501,-5.3501,-5.3501,-5.3501,-5.3501,-5.3501,-5.3501,-5.3315,-5.2807,-5.2739,-5.2553,-5.208,-5.1775,-5.1606,-5.1606,-5.1369,-5.1217,-5.1217,-5.1217,-5.1439,-5.1888,-5.2494,-5.2632,-5.2344,-5.3376,-5.3011,-5.1213,-5.0629,-5.0009,-4.9376,-4.9694,-4.9694,-3.9842,-3.5871,-3.0875,-2.6812,-1.5115,-0.279,0.4062,1.1483,1.7084,1.7665,0.7973,-0.0569,0.0,0.0,-1.8563,-1.8669,-1.8888,-2.0507,-2.4675,-2.6664,-2.9274,0.0,0.0,0.0,0.0,0.0,0.0,-4.721,0.0,-4.8679,-4.7318,-4.7177,-4.6487,-4.5048,-4.2151,-4.0592,-4.0592,-3.8923,-3.6342,-3.3078,-3.1505,-2.9865,-2.804,-2.804,-2.804,-2.7883,-2.7637,-2.8163,-2.9545,-3.2203,-3.4092,-3.5704,-3.835,-3.9473,-3.9779,-4.1005,-4.147,-4.1692,-4.3136,-4.6518,-5.0304,-5.0397,-5.1793,-5.3501,-5.3501,-5.3501,-5.3501,-5.3501,-5.3501,-5.3501,-5.3501,-5.3501,-5.3501,-5.3501,-5.3501,-5.3501,-5.3501,-5.3501,-5.3501,-5.3501,-5.3501,-5.3501,-5.3501,-5.3433,-5.3433,-5.3433,-5.3348,-5.3348,-5.3501,-5.3501,-5.3501,-5.3501,-5.2824,-5.2367,-5.2367,-5.1725,-5.1336,-5.1336,-5.1336,-5.1336,-5.1336,-5.2757,-5.318,-5.2367,-5.3822,-5.3645,-5.1849,-5.0855,-5.0336,-5.0258,-4.9215,-4.9296,-4.2765,-4.1136,-3.76,-3.0553,-2.3125,-1.5157,-0.5966,-0.1049,0.2283,0.4724,-0.2023,-0.8195,0.0,0.0,0.0,-2.1648,-2.3409,0.0,-2.676,-3.1513,0.0,-3.6133,0.0,-4.1826,-4.4289,-4.455,0.0,0.0,-4.8487,-4.8872,-4.7952,-4.7401,-4.6487,-4.5048,-4.2151,-4.0592,-4.0592,-3.7843,-3.4769,-3.1386,-3.102,-2.9196,-2.618,-2.618,-2.5517,-2.4296,-2.621,-2.7308,-2.7906,-3.1622,-3.4615,-3.6838,-3.8741,-4.0611,-4.2463,-4.2849,-4.3501,-4.4372,-4.4812,-4.6706,-4.9157,-5.0117,-5.1793,-5.3501,-5.3501,-5.3501,-5.3501,-5.3501,-5.3501,-5.3501,-5.3501,-5.3501,-5.3501,-5.3501,-5.3501,-5.3501,-5.3501,-5.3501,-5.3501,-5.3501,-5.3501,-5.3501,-5.3501,-5.287,-5.2312,-5.2312,-5.1704,-5.172,-5.328,-5.3501,-5.3501,-5.3501,-5.3315,-5.3196,-5.3196,-5.3027,-5.2926,-5.2926,-5.2926,-5.2926,-5.2926,-5.3822,-5.3972,-5.3196,-5.4097,-5.3347,-5.0779,-5.0566,-4.9631,-4.8072,-4.861,-4.8527,-4.3866,-4.3464,-4.1706,-3.6853,-3.1004,-2.453,-1.7314,-1.2421,-0.8595,-0.5841,-0.9543,0.0,-1.3913,-1.7466,0.0,0.0,0.0,0.0,-3.2219,-3.5848,-3.8466,0.0,-4.0552,0.0,-4.3134,-4.3503,-4.4208,0.0,-4.7621,-4.8855,-4.9113,-4.8409,-4.7619,-4.6888,-4.3385,-4.0497,-3.8557,-3.6051,-3.3456,-3.0771,-3.0771,-2.8935,-2.551,-2.551,-2.4913,-2.3842,0.0,-2.7115,-2.8966,-3.2537,-3.5659,-3.8381,-4.1057,-4.3013,-4.4349,-4.4932,-4.5584,-4.6255,-4.6255,-4.7568,-4.9442,-5.0211,-5.1484,-5.287,-5.3348,-5.3501,-5.3416,-5.2939,-5.28,-5.2714,-5.2258,-5.2115,-5.2115,-5.2115,-5.2487,-5.28,-5.28,-5.3195,-5.3501,-5.3501,-5.3501,-5.3501,-5.3501,-5.2627,-5.1921,-5.1921,-5.1005,-5.0795,-5.2026,-5.2487,-5.28,-5.28,-5.3195,-5.3501,-5.3501,-5.3501,-5.3501,-5.3501,-5.3041,-5.28,-5.28,-5.318,-5.323,-5.28,-5.323,-5.2616,-5.1096,-5.0149,-4.9069,-4.7988,-4.8057,-4.7834,-4.4044,-4.4117,-4.395,-4.3403,-3.8257,-3.2392,-2.8864,-2.3526,-1.8585,-1.5922,0.0,-1.8267,-1.9849,-2.1839,-2.4766,-2.9401,0.0,-3.3387,-3.8104,-3.9209,-3.9804,-4.0954,-4.1292,-4.1336,-4.1183,-4.1944,-4.2749,-4.352,-4.6183,-4.8437,-4.9961,-4.9484,-4.8936,-4.8382,-4.4503,-4.0402,-3.6162,-3.4736,-3.3223,-3.1505,-3.1505,-2.9544,-2.6142,-2.6096,-2.5927,-2.552,-2.5689,-2.8015,-3.1906,-3.4589,-3.7405,-4.0246,-4.3971,-4.5494,-4.5779,-4.6916,-4.7309,-4.7309,-4.7309,-4.846,-5.0009,-5.0336,-5.1171,-5.2312,-5.3195,-5.3416,-5.311,-5.2153,-5.176,-5.1467,-5.0627,-5.0397,-5.0397,-5.0397,-5.108,-5.1687,-5.1687,-5.2557,-5.3264,-5.3264,-5.3416,-5.3501,-5.3501,-5.2487,-5.1687,-5.1687,-5.0703,-5.0025,-5.0025,-5.108,-5.1921,-5.1921,-5.287,-5.3501,-5.3501,-5.3501,-5.3501,-5.3501,-5.247,-5.1921,-5.1921,-5.176,-5.1687,-5.1687,-5.1687,-5.1614,-5.1451,-4.9679,-4.8743,-4.8594,-4.7679,-4.7309,-4.4919,-4.4707,-4.4543,-4.4689,-4.3241,-4.1114,-3.8532,-3.6406,0.0,0.0,-2.7875,-2.698,-2.7126,-2.755,-2.875,-3.1197,0.0,0.0,0.0,0.0,-3.9367,0.0,0.0,0.0,0.0,0.0,0.0,0.0,0.0,-4.6634,-4.9198,-4.93,-4.7521,-4.395,-4.1965,-3.9966,-3.7854,-3.7506,-3.6453,-3.4728,-3.4728,-3.2961,-2.9655,-2.9348,-2.9038,-2.8951,-2.9715,0.0,-3.4701,-3.75,-4.022,-4.2699,-4.4649,-4.6062,-4.7019,-4.7207,-4.7309,-4.7309,-4.7309,-4.7538,-4.8157,-4.9868,-5.172,-5.3264,-5.3433,-5.287,-5.2153,-5.1921,-5.1303,-5.0627,-5.049,-5.0397,-5.0397,-5.0397,-5.055,-5.0627,-5.0627,-5.1467,-5.2153,-5.2153,-5.287,-5.3501,-5.3501,-5.1938,-5.0627,-5.0627,-4.9085,-4.7849,-4.7849,-5.0227,-5.1921,-5.1921,-5.287,-5.3501,-5.3501,-5.3501,-5.3501,-5.3501,-5.247,-5.1921,-5.1921,-5.108,-5.0627,-5.0627,-5.0627,-5.0227,-4.9376,-4.8988,-4.8377,-4.7538,-4.7381,-4.7309,-4.4916,-4.4765,-4.4737,-4.5149,-4.4935,-4.4036,-4.1752,0.0,0.0,0.0,-3.2471,-3.0849,-3.0381,-3.057,0.0,-3.3502,0.0,0.0,0.0,0.0,0.0,0.0,0.0,0.0,0.0,0.0,0.0,0.0,0.0,-4.6279,-4.9049,-4.9161,-4.7563,-4.3958,-4.2513,-4.0956,-3.9405,-3.9313,-3.8721,-3.7562,-3.754,-3.6016,-3.3176,-3.2361,-3.1842,-3.1608,-3.2772,-3.478,-3.7606,-4.0308,-4.2562,-4.4486,-4.5825,-4.6741,-4.7309,-4.7309,-4.7309,-4.7309,-4.7309,-4.7609,-4.821,-4.9215,-5.0627,-5.2098,-5.3195,-5.2784,-5.176,-5.1245,-5.0397,-4.9456,-4.8938,-4.8774,-4.8774,-4.8774,-4.915,-4.9694,-5.0242,-5.1155,-5.1921,-5.1921,-5.2784,-5.3501,-5.3501,-5.217,-5.1005,-5.0474,-4.9085,-4.7919,-4.7381,-4.9551,-5.108,-5.108,-5.2574,-5.3501,-5.3501,-5.3501,-5.3501,-5.3501,-5.201,-5.108,-5.108,-5.0149,-4.9536,-4.9536,-4.9536,-4.9296,-4.8825,-4.8293,-4.7764,-4.7309,-4.7309,-4.7309,-4.4878,-4.495,-4.5051,-4.5415,-4.5473,-4.4879,-4.2785,-4.1428,0.0,0.0,-3.4709,-3.3127,-3.2927,0.0,-3.4448,0.0,-3.8199,0.0,0.0,0.0,0.0,0.0,0.0,0.0,0.0,0.0,0.0,0.0,0.0,0.0,-4.8624,-4.8439,-4.7299,-4.5048,-4.3178,-4.1852,-4.1076,-4.0445,-4.0201,-4.0352,-4.0207,-3.9232,-3.7303,-3.6207,-3.5453,-3.5201,-3.6059,-3.8097,-4.0872,-4.2848,-4.4564,-4.5883,-4.6916,-4.7309,-4.7309,-4.7309,-4.7309,-4.7309,-4.7309,-4.7834,-4.8527,-4.8743,-4.9694,-5.1021,-5.2416,-5.2258,-5.1394,-5.032,-4.9296,-4.8293,-4.7538,-4.7309,-4.7309,-4.7309,-4.7904,-4.8677,-4.9551,-5.0534,-5.1303,-5.1525,-5.24,-5.3264,-5.3433,-5.2627,-5.1541,-5.055,-4.9456,-4.8444,-4.7467,-4.8922,-5.0087,-5.0087,-5.2098,-5.3501,-5.3501,-5.3501,-5.3416,-5.3179,-5.141,-5.032,-5.0087,-4.9069,-4.8444,-4.8444,-4.8444,-4.8444,-4.8444,-4.7679,-4.7309,-4.7309,-4.7309,-4.7309,-4.5486,-4.5731,-4.5794,-4.5842,-4.5841,-4.539,-4.3652,0.0,0.0,-3.892,-3.6766,-3.5451,-3.6805,-3.779,-3.8909,0.0,0.0,-4.5309,0.0,0.0,0.0,0.0,0.0,0.0,0.0,0.0,0.0,0.0,0.0,0.0,-4.7142,-4.6069,-4.5249,-4.5048,-4.2251,-4.1407,-4.2737,-4.0809,-4.1152,-4.361,-4.3088,-4.258,-4.219,-4.1569,-4.1297,-4.1105,-4.0802,-4.2315,0.0,-4.5072,-4.5944,-4.7121,-4.7207,-4.7309,-4.7309,-4.7309,-4.7309,-4.7309,-4.7309,-4.7381,-4.7609,-4.8527,-5.0133,-5.1614,-5.093,-5.0643,-5.032,-4.9215,-4.8225,-4.7381,-4.7294,-4.7309,-4.7309,-4.7309,-4.7381,-4.7452,-4.7538,-4.8377,-4.9376,-5.032,-5.132,-5.2383,-5.3348,-5.2627,-5.1541,-5.055,-4.9456,-4.8444,-4.7467,-4.8293,-4.8988,-4.8988,-5.1704,-5.3501,-5.3501,-5.3501,-5.3093,-5.2082,-5.1005,-4.9931,-4.8988,-4.7988,-4.7467,-4.7467,-4.7467,-4.7467,-4.7467,-4.7381,-4.7309,-4.7309,-4.7309,-4.7309,-4.5112,-4.567,-4.5801,-4.5636,-4.5572,-4.5091,-4.3383,0.0,-4.0114,-3.9399,-3.7932,-3.7144,-3.8299,-3.9174,-4.0289,-4.1987,-4.2724,-4.3959,-4.6426,0.0,0.0,0.0,0.0,0.0,0.0,0.0,0.0,0.0,0.0,0.0,-4.5889,-4.5854,-4.5496,-4.5035,-4.3496,-4.3112,-4.3717,-4.2562,-4.2709,-4.4225,-4.4094,-4.4135,-4.4357,-4.3354,-4.2941,-4.2928,-4.3448,0.0,0.0,-4.6255,-4.6829,-4.7309,-4.7309,-4.7309,-4.7309,-4.7309,-4.7309,-4.7309,-4.7309,-4.7309,-4.7381,-4.7764,-4.8841,-5.0071,-5.032,-4.9931,-4.9376,-4.8907,-4.8072,-4.7309,-4.7309,-4.7309,-4.7309,-4.7309,-4.7309,-4.7309,-4.7309,-4.8057,-4.8907,-4.9376,-5.0763,-5.2082,-5.247,-5.2714,-5.2329,-5.0627,-5.0009,-4.9166,-4.7538,-4.8141,-4.8825,-4.8825,-5.0474,-5.1647,-5.1647,-5.1647,-5.1484,-5.1005,-5.0009,-4.9231,-4.8825,-4.7834,-4.7309,-4.7309,-4.6535,-4.6166,-4.6166,-4.6166,-4.6166,-4.6166,-4.6931,-4.7519,-4.4305,-4.5149,-4.5444,-4.5095,-4.4222,-4.3285,0.0,-4.0438,-3.8676,-3.9188,-3.8435,-3.7981,-3.8851,-3.9655,-4.0772,-4.2501,-4.236,-4.3327,-4.7015,-4.629,0.0,0.0,0.0,0.0,0.0,0.0,0.0,0.0,0.0,0.0,-4.5811,-4.6728,-4.6686,-4.5551,-4.468,-4.4466,-4.4942,-4.365,-4.3573,-4.4883,-4.4797,-4.516,-4.5973,-4.5024,-4.4642,-4.4642,-4.5584,-4.5973,0.0,-4.6931,-4.7309,-4.7309,-4.7309,-4.7309,-4.7309,-4.7309,-4.7309,-4.7309,-4.7309,-4.7309,-4.7309,-4.7309,-4.7764,-4.8527,-4.9231,-4.915,-4.8743,-4.8444,-4.7834,-4.7309,-4.7309,-4.7309,-4.7309,-4.7309,-4.7309,-4.7309,-4.7309,-4.7834,-4.8444,-4.8743,-4.9977,-5.1139,-5.176,-5.2557,-5.2416,-5.0643,-5.0397,-4.9631,-4.7538,-4.7919,-4.8377,-4.8377,-4.9004,-4.971,-5.032,-5.0397,-5.0242,-4.9931,-4.9231,-4.8677,-4.8377,-4.7694,-4.7309,-4.7309,-4.6447,-4.5779,-4.5403,-4.5403,-4.5207,-4.4826,-4.5779,-4.6799,-4.3051,-4.4201,-4.4781,-4.4246,-4.1582,-3.9568,-4.1552,-3.8038,-3.5249,-3.8355,-3.8192,-3.7776,-3.8647,-3.9563,-4.0717,-4.2257,-4.332,-4.4977,-4.7878,-4.8672,0.0,0.0,0.0,0.0,0.0,0.0,0.0,0.0,0.0,0.0,-4.7374,-4.8675,-4.8611,-4.6756,-4.5149,-4.5038,-4.6675,-4.348,-4.3375,-4.6139,-4.5614,-4.6062,-4.7309,-4.7309,-4.7294,-4.7294,0.0,0.0,0.0,-4.7309,-4.7309,-4.7309,-4.7309,-4.7309,-4.7309,-4.7309,-4.7309,-4.7309,-4.7309,-4.7309,-4.7309,-4.7309,-4.7309,-4.7309,-4.7309,-4.7988,-4.8594,-4.7609,-4.7309,-4.7309,-4.7309,-4.7309,-4.7309,-4.7309,-4.7309,-4.7309,-4.7309,-4.7309,-4.7609,-4.8594,-4.8825,-4.952,-5.1541,-5.1921,-5.1541,-5.055,-5.0397,-4.9631,-4.7538,-4.7309,-4.7309,-4.7309,-4.7309,-4.8157,-5.0258,-5.0397,-4.9931,-4.8907,-4.8825,-4.8361,-4.7381,-4.7309,-4.7309,-4.7309,-4.7309,-4.6638,-4.5403,-4.5403,-4.4734,-4.3504,-4.3504,-4.4916,-3.842,-3.846,-3.7941,-3.6574,-3.4624,-3.37,-3.622,-3.529,-3.495,-3.8577,-3.9154,-3.9243,-4.0033,-4.0365,-4.1178,-4.3131,-4.3443,0.0,0.0,0.0,0.0,0.0,0.0,0.0,0.0,0.0,0.0,0.0,0.0,0.0,-4.9454,-5.0557,-5.0549,-4.9216,-4.8338,-4.8113,-4.8596,-4.6284,-4.6006,-4.7804,-4.7592,-4.8162,-4.9392,-4.8692,-4.8293,0.0,0.0,0.0,-4.7309,-4.7309,-4.7309,-4.7309,-4.7309,-4.7309,-4.7309,-4.7309,-4.7309,-4.7309,-4.7309,-4.7309,-4.7309,-4.7309,-4.7309,-4.7309,-4.7309,-4.7538,-4.7679,-4.7381,-4.7309,-4.7309,-4.7309,-4.7309,-4.7309,-4.7309,-4.7309,-4.7309,-4.7309,-4.7309,-4.7381,-4.7679,-4.8293,-4.9215,-5.0627,-5.0855,-5.0779,-5.049,-4.9773,-4.8841,-4.7452,-4.7309,-4.7309,-4.7309,-4.7309,-4.7538,-4.824,-4.8324,-4.8157,-4.7764,-4.7749,-4.7609,-4.7294,-4.7309,-4.7309,-4.7309,-4.5584,-4.4549,-4.4069,-4.3218,-4.3711,-4.548,-4.5987,-4.7333,0.0,-3.4079,-3.3061,-3.1437,-2.9147,-2.8169,-3.1586,-3.1343,-3.1787,-3.6852,-3.8213,-3.8883,-4.0175,-4.0508,-4.121,-4.3147,-4.3233,0.0,0.0,0.0,0.0,0.0,0.0,0.0,0.0,0.0,0.0,0.0,0.0,0.0,-5.2004,-5.2333,-5.2194,-5.1515,-5.0802,-5.0422,-5.0422,-4.8848,-4.8403,-4.9252,-4.9252,-4.9631,-5.0413,-4.9694,-4.9215,0.0,0.0,-4.7694,0.0,-4.7309,-4.7309,-4.7309,-4.7309,-4.7309,-4.7309,-4.7309,-4.7309,-4.7309,-4.7309,-4.7309,-4.7309,-4.7309,-4.7309,-4.7309,-4.7309,-4.7309,-4.7309,-4.7309,-4.7309,-4.7309,-4.7309,-4.7309,-4.7309,-4.7309,-4.7309,-4.7309,-4.7309,-4.7309,-4.7309,-4.7309,-4.7849,-4.861,-4.9615,-4.9773,-4.9773,-4.9773,-4.9215,-4.8444,-4.7467,-4.7309,-4.7309,-4.7309,-4.7309,-4.7309,-4.7309,-4.7309,-4.7309,-4.7309,-4.7309,-4.7309,-4.7309,-4.7309,-4.7309,-4.7309,-4.5779,-4.4456,-4.3504,-4.2266,-4.2757,-4.4993,-4.6595,-4.8123,0.0,-3.0519,-2.9584,-2.8139,-2.4738,-2.2892,-2.7486,-2.6648,0.0,-3.3734,-3.5917,-3.7258,-3.9435,-4.0205,-4.1039,-4.261,-4.3024,0.0,0.0,-4.923,0.0,0.0,0.0,0.0,0.0,0.0,0.0,0.0,0.0,0.0,-5.4695,-5.4059,-5.3668,-5.3668,-5.2717,-5.212,-5.1993,-5.1096,-5.0643,-5.0643,-5.0643,-5.0643,-5.0643,-5.055,-4.9931,0.0,-4.8825,-4.8293,-4.7381,-4.7309,-4.7309,-4.7309,-4.7309,-4.7309,-4.7309,-4.7309,-4.7309,-4.7309,-4.7309,-4.7309,-4.7309,-4.7309,-4.7309,-4.7309,-4.7309,-4.7309,-4.7309,-4.7309,-4.7309,-4.7309,-4.7309,-4.7309,-4.7309,-4.7309,-4.7207,-4.7121,-4.7121,-4.7106,-4.7019,-4.7121,-4.7121,-4.7508,-4.8594,-4.8743,-4.8759,-4.8825,-4.8743,-4.8377,-4.7467,-4.7381,-4.7381,-4.7381,-4.7381,-4.7381,-4.7381,-4.7294,-4.7309,-4.7309,-4.7309,-4.7309,-4.7309,-4.7309,-4.7309,-4.7309,-4.7207,-4.5987,-4.3559,-4.2417,-4.2272,-4.3085,-4.6079,-4.7883,-2.3618,0.0,-2.2897,-2.0929,-1.8781,-1.834,0.0,-2.4557,-2.6776,-3.2565,-3.5665,-3.7925,-3.9822,-4.0976,-4.2288,-4.4286,0.0,0.0,-4.7974,0.0,0.0,-5.7467,0.0,0.0,0.0,0.0,0.0,0.0,0.0,-5.6095,-5.5495,-5.5279,-5.5161,-5.5161,-5.4912,-5.4287,-5.311,-5.2886,-5.28,-5.28,-5.28,-5.28,-5.2731,-5.1938,-5.1377,-5.1064,-4.952,-4.8677,-4.8361,-4.7609,-4.7309,-4.7309,-4.7309,-4.7309,-4.7309,-4.7309,-4.7309,-4.7309,-4.7309,-4.7309,-4.7309,-4.7309,-4.7309,-4.7309,-4.7309,-4.7309,-4.7309,-4.7309,-4.7309,-4.7309,-4.7309,-4.7309,-4.7309,-4.7309,-4.655,-4.5869,-4.5869,-4.5115,-4.4642,-4.5689,-4.5869,-4.6462,-4.8481,-4.8141,-4.7919,-4.8677,-4.8141,-4.7538,-4.7309,-4.7988,-4.8444,-4.8444,-4.8444,-4.8444,-4.8444,-4.7764,-4.7309,-4.7309,-4.7309,-4.7309,-4.7309,-4.7309,-4.7309,-4.7309,-4.6344,-4.5344,-4.4277,-4.3987,-4.4927,-4.6979,-4.7731,-4.8945,-2.2063,-2.0933,-1.9817,-1.7703,-1.6909,-1.7478,-2.1096,-2.3431,-2.6247,0.0,0.0,0.0,0.0,0.0,0.0,0.0,-4.5812,0.0,0.0,0.0,0.0,0.0,0.0,0.0,0.0,0.0,0.0,0.0,0.0,-5.6721,-5.6241,-5.5893,-5.5706,-5.5706,-5.5706,-5.532,-5.4499,-5.4154,-5.3994,-5.3994,-5.3668,-5.3501,-5.3501,-5.287,-5.24,-5.1849,-5.0687,-4.9679,-4.8743,-4.821,-4.7679,-4.7309,-4.7309,-4.7309,-4.7309,-4.7309,-4.7309,-4.7309,-4.7309,-4.7309,-4.7309,-4.7309,-4.7309,-4.7309,-4.7309,-4.7309,-4.7381,-4.7834,-4.7694,-4.7381,-4.7834,-4.7694,-4.7309,-4.7309,-4.6741,-4.6255,-4.6255,-4.5689,-4.5494,-4.6166,-4.6255,-4.6842,-4.8496,-4.8377,-4.8141,-4.8759,-4.8377,-4.7988,-4.7988,-4.8444,-4.8988,-4.9456,-4.9536,-4.9296,-4.8825,-4.8293,-4.7764,-4.7309,-4.7309,-4.7309,-4.7309,-4.7309,-4.7309,-4.7309,-4.6354,-4.5717,-4.5373,-4.5656,-4.6675,-4.8322,-4.8924,-5.0218,-2.3337,-2.1839,-1.987,-1.7715,-1.788,-1.9229,-2.1598,0.0,0.0,0.0,0.0,0.0,0.0,-4.1265,0.0,0.0,0.0,0.0,0.0,0.0,0.0,0.0,0.0,0.0,0.0,0.0,0.0,0.0,0.0,-5.7083,-5.7083,-5.6421,-5.6059,-5.6059,-5.6059,-5.6059,-5.6059,-5.5203,-5.4757,-5.4757,-5.3994,-5.3668,-5.3668,-5.3551,-5.3025,-5.2153,0.0,0.0,-4.9296,-4.9135,-4.8527,-4.7779,-4.7609,-4.7538,-4.7538,-4.7381,-4.7309,-4.7309,-4.7309,-4.7309,-4.7309,-4.7309,-4.7309,-4.7309,-4.7309,-4.7309,-4.7538,-4.8527,-4.8225,-4.7764,-4.8759,-4.8377,-4.7694,-4.7538,-4.7351,-4.7163,-4.7004,-4.6829,-4.6741,-4.6931,-4.7019,-4.7407,-4.8594,-4.8825,-4.8825,-4.8988,-4.9054,-4.9054,-4.9054,-4.9215,-4.9599,-5.055,-5.0627,-5.0242,-4.936,-4.9135,-4.8594,-4.7609,-4.7381,-4.7309,-4.7309,-4.7309,-4.7354,-4.7459,-4.6944,-4.6824,-4.7013,-4.7564,-4.8145,-4.8769,-5.0039,-5.144,-2.4337,-2.5033,-2.4961,-2.1339,-2.1699,-2.3335,-2.4725,0.0,0.0,0.0,0.0,0.0,0.0,-4.2437,-4.4626,0.0,0.0,0.0,0.0,0.0,0.0,0.0,0.0,0.0,0.0,0.0,0.0,0.0,0.0,-5.7839,-5.7839,-5.7708,-5.766,-5.766,-5.766,-5.766,-5.766,-5.6223,-5.5535,-5.5535,-5.4757,-5.4419,-5.4437,-5.3766,-5.3416,-5.3195,0.0,-5.1687,-5.1377,-5.055,-5.0087,-4.9852,-4.8907,-4.8594,-4.8444,-4.7609,-4.7309,-4.7309,-4.7309,-4.7309,-4.7309,-4.7309,-4.7309,-4.7309,-4.7309,-4.7309,-4.7538,-4.8527,-4.8677,-4.8825,-4.9852,-5.0025,-4.971,-4.8759,-4.7752,-4.6751,-4.584,-4.4826,-4.4349,-4.5494,-4.5689,-4.6359,-4.8398,-4.8825,-4.915,-5.0009,-5.0165,-5.0165,-5.0165,-5.093,-5.1451,-5.1687,-5.1687,-5.1614,-5.1451,-5.0611,-4.9694,-4.8677,-4.7764,-4.7309,-4.7309,-4.7309,-4.7563,-4.8132,-4.8045,-4.8536,-4.9637,-4.9741,-5.0113,-5.0753,-5.1986,-5.263,-2.5555,-2.6612,-2.753,-2.7801,-2.8197,-2.8825,-2.9784,-3.146,0.0,0.0,0.0,0.0,0.0,0.0,0.0,0.0,0.0,0.0,0.0,0.0,0.0,0.0,0.0,0.0,0.0,0.0,0.0,0.0,0.0,0.0,-5.7997,-5.7997,-5.7997,-5.7997,-5.7997,-5.7997,-5.7997,-5.7315,-5.6755,-5.6313,-5.5552,-5.5203,-5.5203,-5.4818,-5.4668,-5.4651,0.0,-5.3411,-5.248,-5.2026,-5.1263,-5.032,-4.9852,-4.9694,-4.9615,-4.9166,-4.9019,-4.8856,-4.8293,-4.8141,-4.7988,-4.7452,-4.7309,-4.7309,-4.7309,-4.7309,-4.7538,-4.8527,-4.8825,-4.9069,-5.0087,-5.0397,-5.0242,-4.9773,-4.9218,-4.8522,-4.7428,-4.681,-4.6388,-4.6418,-4.6447,-4.7103,-4.928,-4.9694,-5.0009,-5.108,-5.1229,-5.1229,-5.1229,-5.1614,-5.2153,-5.2714,-5.2784,-5.254,-5.1921,-5.1467,-5.0534,-4.8907,-4.7834,-4.7309,-4.7309,-4.7653,-4.7982,-4.8282,-4.8985,-4.9628,-5.0242,-5.0586,-5.093,-5.1214,-5.2395,-5.3237,-2.756,-2.8574,-2.9887,-3.3164,0.0,-3.3219,-3.4571,-3.569,0.0,0.0,0.0,0.0,0.0,0.0,0.0,0.0,0.0,0.0,0.0,0.0,0.0,0.0,0.0,0.0,0.0,0.0,0.0,0.0,0.0,0.0,-5.7997,-5.7997,-5.7997,-5.7997,-5.7997,-5.7997,-5.7997,-5.7997,-5.7726,-5.7134,-5.6367,-5.5948,-5.5948,-5.578,-5.5706,-5.5706,-5.5706,-5.4919,-5.3734,-5.3734,-5.2859,-5.1596,-5.1361,-5.1141,-5.0918,-5.0918,-5.0918,-5.0768,-4.9804,-4.9426,-4.9218,-4.8057,-4.7694,-4.7609,-4.7381,-4.7309,-4.7452,-4.821,-4.8594,-4.9069,-5.0087,-5.055,-5.0703,-5.049,-5.055,-5.0381,-4.9054,-4.8825,-4.8527,-4.7538,-4.7309,-4.7849,-4.9694,-5.0242,-5.0703,-5.176,-5.2082,-5.2312,-5.2312,-5.2312,-5.2557,-5.3416,-5.3501,-5.3195,-5.2312,-5.2065,-5.1213,-4.9599,-4.861,-4.8003,-4.8003,-4.849,-4.883,-4.8902,-4.9809,-5.0411,-5.0466,-5.0975,-5.1214,-5.1214,-5.2395,-5.3498,-3.1011,-3.2162,-3.329,-3.4963,-3.4666,0.0,-3.7968,-3.9236,0.0,-4.0038,0.0,0.0,0.0,0.0,0.0,0.0,0.0,0.0,0.0,0.0,0.0,0.0,0.0,0.0,0.0,0.0,0.0,0.0,0.0,0.0,-5.7997,-5.7997,-5.7997,-5.7997,-5.7997,-5.7997,-5.7997,-5.7997,-5.7997,-5.7886,-5.7184,-5.6791,-5.6791,-5.6022,-5.5706,-5.5706,-5.5706,-5.5649,-5.5517,-5.5517,-5.5442,-5.5232,-5.4321,-5.3348,-5.2505,-5.2505,-5.2505,-5.2404,-5.1602,-5.1293,-5.1035,-4.9282,-4.8677,-4.8527,-4.7609,-4.7309,-4.7309,-4.7381,-4.8072,-4.9069,-5.0087,-5.108,-5.1541,-5.0627,-5.108,-5.1229,-4.9215,-4.8825,-4.8527,-4.7538,-4.7309,-4.7609,-4.8759,-4.9773,-5.0703,-5.176,-5.2784,-5.3348,-5.3348,-5.3348,-5.3416,-5.3501,-5.3501,-5.3501,-5.3416,-5.247,-5.1849,-5.1687,-5.0703,-5.0181,-5.0181,-5.0213,-5.0389,-5.0592,-5.0715,-5.09,-5.1154,-5.1199,-5.1214,-5.1214,-5.2395,-5.3498,-3.2156,-3.3616,-3.5182,-3.6539,-3.7542,0.0,0.0,-4.1712,-4.3061,-4.3599,-4.4777,0.0,0.0,0.0,0.0,0.0,0.0,0.0,0.0,0.0,0.0,0.0,0.0,0.0,0.0,0.0,0.0,0.0,0.0,0.0,-5.7997,-5.7997,-5.7997,-5.7997,-5.7997,-5.7997,-5.7997,-5.7997,-5.7997,-5.7997,-5.7726,-5.7565,-5.7565,-5.7266,-5.713,-5.713,-5.713,-5.6858,-5.6438,-5.6438,-5.6132,-5.5649,-5.5256,-5.4874,-5.4608,-5.4886,-5.4823,-5.4452,-5.3835,-5.3433,-5.2907,-5.1035,-5.0505,-5.031,-4.9488,-4.9247,-4.9247,-4.9247,-4.9472,-4.9773,-4.9456,-5.0687,-5.176,-5.1394,-5.217,-5.2487,-5.1064,-5.0227,-4.9472,-4.846,-4.7764,-4.7609,-4.8594,-4.9694,-5.0703,-5.176,-5.2784,-5.3501,-5.3501,-5.3501,-5.3501,-5.3501,-5.3501,-5.3501,-5.3501,-5.311,-5.287,-5.287,-5.1336,-5.0397,-5.0397,-5.0829,-5.1264,-5.1894,-5.153,-5.1724,-5.223,-5.1557,-5.1214,-5.1214,-5.2395,-5.3149,-3.3124,-3.4507,-3.6164,-3.7541,0.0,0.0,-4.1897,-4.3615,-4.5081,-4.567,-4.6346,0.0,0.0,0.0,0.0,0.0,0.0,0.0,0.0,0.0,0.0,0.0,0.0,0.0,0.0,0.0,0.0,0.0,0.0,0.0,0.0,-5.7997,-5.7997,-5.7997,-5.7997,-5.7997,-5.7997,-5.7997,-5.807,-5.8213,-5.8213,-5.8142,-5.7997,-5.8123,-5.8142,-5.7997,-5.7997,-5.7726,-5.7234,-5.7234,-5.6927,-5.6456,-5.6456,-5.6508,-5.6696,-5.7,-5.7,-5.6754,-5.6039,-5.5561,-5.4957,-5.3006,-5.2369,-5.2196,-5.1408,-5.0976,-5.0725,-5.0725,-5.0725,-5.0574,-4.985,-5.0934,-5.2267,-5.2267,-5.3281,-5.3926,-5.2824,-5.19,-5.0967,-4.9866,-4.8942,-4.846,-4.9231,-5.0165,-5.108,-5.1776,-5.2784,-5.3501,-5.3501,-5.3501,-5.3501,-5.3501,-5.3501,-5.3602,-5.3822,-5.3636,-5.3704,-5.4177,-5.2649,-5.1736,-5.1736,-5.2134,-5.2665,-5.3355,-5.2649,-5.2495,-5.29,-5.1727,-5.1214,-5.1214,-5.1972,-5.2575,-3.4178,-3.5031,-3.6298,0.0,0.0,0.0,-4.3577,-4.4989,-4.5669,-4.5792,0.0,-4.6694,-4.7895,0.0,0.0,0.0,0.0,0.0,0.0,0.0,0.0,0.0,0.0,0.0,0.0,0.0,0.0,0.0,0.0,0.0,0.0,-5.7997,-5.7997,-5.7997,-5.7997,-5.7997,-5.7997,-5.7997,-5.8238,-5.8694,-5.8694,-5.8442,-5.8042,-5.8484,-5.8442,-5.7997,-5.7997,-5.7997,-5.7997,-5.7997,-5.7997,-5.7997,-5.7997,-5.8282,-5.8694,-5.8694,-5.9009,-5.921,-5.8055,-5.7611,-5.7259,-5.4992,-5.4252,-5.4033,-5.3051,-5.2148,-5.1564,-5.1564,-5.1564,-5.1564,-5.1564,-5.2349,-5.3144,-5.3144,-5.446,-5.5407,-5.4426,-5.3631,-5.2826,-5.1723,-5.096,-5.0397,-5.0397,-5.1229,-5.1921,-5.1921,-5.2784,-5.3501,-5.3501,-5.3501,-5.3501,-5.3501,-5.3518,-5.3805,-5.4532,-5.394,-5.4143,-5.5632,-5.5006,-5.46,-5.46,-5.46,-5.4804,-5.5117,-5.4035,-5.3318,-5.29,-5.1727,-5.1214,-5.1214,-5.1214,-5.1804,-3.3565,-3.5116,0.0,-3.8031,0.0,0.0,0.0,-4.5893,0.0,0.0,0.0,-4.8625,-4.9064,0.0,0.0,0.0,0.0,0.0,0.0,0.0,0.0,0.0,0.0,0.0,0.0,0.0,0.0,0.0,0.0,0.0,0.0,-5.7997,-5.7997,-5.7997,-5.7997,-5.7997,-5.7997,-5.7997,-5.807,-5.8213,-5.8874,-5.8951,-5.8484,-5.8632,-5.8442,-5.7997,-5.7997,-5.7997,-5.7997,-5.7997,-5.7997,-5.8024,-5.8332,-5.8591,-5.8756,-5.9424,-5.9559,-5.9389,-5.9383,-5.9135,-5.8609,-5.709,-5.6581,-5.6377,-5.5173,-5.4617,-5.4435,-5.4435,-5.4435,-5.4435,-5.4435,-5.5104,-5.5468,-5.4198,-5.479,-5.5631,-5.5331,-5.4557,-5.3771,-5.3464,-5.2623,-5.2008,-5.2008,-5.2451,-5.2722,-5.2722,-5.3213,-5.3501,-5.3501,-5.3501,-5.3501,-5.3501,-5.3957,-5.4346,-5.4566,-5.4888,-5.5243,-5.5683,-5.5497,-5.5378,-5.5378,-5.5378,-5.566,-5.6281,-5.4449,-5.3736,-5.4084,-5.2139,-5.1214,-5.1214,-5.1214,-5.1386,-3.5097,-3.6882,0.0,-4.0393,-4.2385,-4.4369,-4.5791,0.0,0.0,0.0,0.0,0.0,0.0,0.0,0.0,0.0,0.0,0.0,0.0,0.0,0.0,0.0,0.0,0.0,0.0,0.0,0.0,0.0,0.0,0.0,0.0,-5.7997,-5.7997,-5.7997,-5.7997,-5.7997,-5.7997,-5.7997,-5.8097,-5.8264,-5.8835,-5.8971,-5.8694,-5.8913,-5.8735,-5.8282,-5.807,-5.7997,-5.7997,-5.7997,-5.7997,-5.8024,-5.8526,-5.8796,-5.9084,-5.9804,-6.0025,-5.9946,-6.0055,-5.9916,-5.954,-5.8609,-5.8326,-5.8183,-5.7418,-5.6826,-5.6471,-5.6471,-5.6331,-5.6186,-5.6186,-5.6755,-5.7011,-5.5603,-5.6098,-5.6816,-5.6649,-5.6081,-5.5482,-5.5305,-5.4513,-5.3891,-5.3891,-5.4029,-5.4132,-5.4132,-5.3986,-5.3946,-5.3946,-5.3668,-5.3619,-5.3907,-5.4329,-5.4837,-5.5412,-5.5615,-5.597,-5.6545,-5.6308,-5.6275,-5.6562,-5.6292,-5.6494,-5.7222,-5.5031,-5.4173,-5.4589,-5.232,-5.1214,-5.1214,-5.1214,-5.1214,-3.7592,0.0,0.0,-4.3737,-4.3956,0.0,-4.639,-4.8144,-4.9529,-5.0394,0.0,0.0,0.0,0.0,0.0,0.0,0.0,0.0,0.0,0.0,0.0,0.0,0.0,0.0,0.0,0.0,0.0,0.0,0.0,0.0,0.0,-5.7886,-5.7923,-5.7997,-5.7997,-5.7997,-5.7997,-5.7997,-5.8194,-5.8632,-5.8654,-5.8694,-5.8694,-5.9158,-5.9084,-5.8632,-5.8168,-5.7997,-5.7997,-5.7997,-5.7997,-5.807,-5.8549,-5.9009,-5.9458,-5.9977,-6.0437,-6.0734,-6.0264,-6.0103,-6.0025,-5.9559,-5.9389,-5.9389,-5.9389,-5.8628,-5.7747,-5.772,-5.7394,-5.7047,-5.7015,-5.7516,-5.7839,-5.7184,-5.7831,-5.8526,-5.8097,-5.7813,-5.7499,-5.708,-5.6421,-5.5931,-5.5931,-5.5819,-5.5762,-5.5706,-5.5144,-5.4668,-5.4693,-5.4097,-5.394,-5.4617,-5.4752,-5.5327,-5.6697,-5.6258,-5.6406,-5.7634,-5.7183,-5.7116,-5.7701,-5.7167,-5.7133,-5.7701,-5.5651,-5.4589,-5.4421,-5.223,-5.1214,-5.1214,-5.1214,-5.1214,0.0,-3.7443,0.0,0.0,-4.4804,-4.6254,-4.6778,0.0,0.0,0.0,0.0,0.0,0.0,0.0,0.0,0.0,0.0,0.0,0.0,0.0,0.0,0.0,0.0,0.0,0.0,0.0,0.0,0.0,0.0,0.0,-5.7024,-5.706,-5.7354,-5.7978,-5.7997,-5.7997,-5.7997,-5.7997,-5.807,-5.8168,-5.8526,-5.8694,-5.8694,-5.8796,-5.8591,-5.8123,-5.8024,-5.7997,-5.7997,-5.7997,-5.7997,-5.8051,-5.8894,-5.9319,-5.9492,-6.0338,-6.0714,-6.0734,-6.0264,-6.0103,-6.0025,-5.9559,-5.9389,-5.9389,-5.9389,-5.921,-5.8934,-5.8579,-5.841,-5.8233,-5.7831,-5.7886,-5.795,-5.7774,-5.796,-5.8142,-5.8042,-5.7941,-5.7877,-5.7774,-5.7594,-5.748,-5.748,-5.7047,-5.6438,-5.578,-5.5535,-5.549,-5.5466,-5.5317,-5.5272,-5.5465,-5.5987,-5.6461,-5.6765,-5.7188,-5.7217,-5.6591,-5.7238,-5.7312,-5.6608,-5.7238,-5.7312,-5.6608,-5.5231,-5.4168,-5.3237,-5.1896,-5.1214,-5.1214,-5.1214,-5.1214,0.0,0.0,0.0,0.0,0.0,0.0,0.0,0.0,0.0,0.0,0.0,0.0,0.0,0.0,0.0,0.0,0.0,0.0,0.0,0.0,0.0,0.0,0.0,0.0,0.0,0.0,0.0,0.0,0.0,-5.5372,-5.618,-5.6235,-5.6418,-5.6822,-5.7226,-5.7428,-5.7428,-5.7813,-5.7997,-5.7997,-5.8238,-5.8332,-5.8375,-5.8591,-5.8442,-5.7997,-5.7997,-5.7997,-5.7997,-5.7997,-5.8142,-5.8418,-5.9121,-5.9545,-5.9804,-6.0553,-6.08,-6.0734,-6.0264,-6.0103,-6.0055,-5.9804,-5.9741,-5.9773,-5.9996,-5.9916,-5.9644,-5.9158,-5.8874,-5.8591,-5.8142,-5.7997,-5.7997,-5.7997,-5.8168,-5.8282,-5.8024,-5.8168,-5.8282,-5.8024,-5.7997,-5.7997,-5.7997,-5.766,-5.7266,-5.6858,-5.685,-5.6845,-5.6857,-5.6528,-5.6387,-5.6747,-5.6811,-5.6934,-5.7289,-5.7679,-5.7389,-5.6282,-5.6778,-5.6794,-5.6204,-5.6778,-5.6794,-5.6204,-5.515,-5.4084,-5.29,-5.1727,-5.1214,-5.1214,-5.1214,-5.1214,0.0,0.0,0.0,0.0,0.0,0.0,0.0,0.0,0.0,0.0,0.0,0.0,0.0,0.0,0.0,0.0,0.0,0.0,0.0,0.0,0.0,0.0,0.0,0.0,0.0,0.0,0.0,0.0,0.0,-5.4546,-5.5335,-5.5372,-5.5445,-5.5592,-5.6253,-5.6602,-5.6602,-5.7391,-5.7795,-5.7795,-5.7923,-5.7997,-5.7997,-5.8418,-5.8394,-5.7997,-5.7997,-5.7997,-5.7997,-5.8115,-5.8351,-5.8775,-5.9303,-5.9741,-6.0161,-6.0622,-6.08,-6.0714,-6.0161,-5.9996,-5.9965,-5.9885,-5.9916,-6.0055,-6.0553,-6.0463,-6.0103,-5.9559,-5.9121,-5.8694,-5.8142,-5.7997,-5.7997,-5.7997,-5.8326,-5.8484,-5.8051,-5.8326,-5.8442,-5.807,-5.7997,-5.7997,-5.7997,-5.7997,-5.7997,-5.7997,-5.8063,-5.8133,-5.83,-5.7712,-5.7492,-5.8106,-5.7586,-5.742,-5.7831,-5.7881,-5.7297,-5.6047,-5.6109,-5.6031,-5.5634,-5.5794,-5.5873,-5.5618,-5.4986,-5.3913,-5.256,-5.1635,-5.1214,-5.1214,-5.1214,-5.1214,0.0,0.0,0.0,0.0,0.0,0.0,0.0,0.0,0.0,0.0,0.0,0.0,0.0,0.0,0.0,0.0,0.0,0.0,0.0,0.0,0.0,0.0,0.0,0.0,0.0,0.0,0.0,0.0,-5.3849,-5.372,-5.4528,-5.4564,-5.4876,-5.5574,-5.5684,-5.5757,-5.5757,-5.6565,-5.6969,-5.6969,-5.7666,-5.7997,-5.7997,-5.807,-5.807,-5.7997,-5.7997,-5.7997,-5.8024,-5.8461,-5.8613,-5.8814,-5.9677,-6.0055,-6.0161,-6.0622,-6.08,-6.069,-5.9823,-5.9492,-5.9443,-5.9009,-5.9139,-5.9578,-6.0055,-6.0437,-6.0508,-5.9644,-5.9354,-5.9121,-5.8257,-5.7997,-5.7997,-5.7997,-5.8024,-5.807,-5.7997,-5.8024,-5.807,-5.7997,-5.7997,-5.7997,-5.7997,-5.7997,-5.7997,-5.7997,-5.8024,-5.827,-5.895,-5.8988,-5.8904,-5.8932,-5.8838,-5.8582,-5.7937,-5.7881,-5.7055,-5.4904,-5.5714,-5.5377,-5.3396,-5.4321,-5.4321,-5.3396,-5.4168,-5.3569,-5.1386,-5.1308,-5.1214,-5.1214,-5.1214,-5.1214,0.0,0.0,0.0,0.0,0.0,0.0,0.0,0.0,0.0,0.0,0.0,0.0,0.0,0.0,0.0,0.0,0.0,0.0,0.0,0.0,0.0,0.0,0.0,0.0,0.0,0.0,0.0,0.0,-5.37,-5.3353,-5.372,-5.3739,-5.3904,-5.4234,-5.4693,-5.4932,-5.4932,-5.5721,-5.6124,-5.6124,-5.6492,-5.7019,-5.7709,-5.7709,-5.7814,-5.7997,-5.7997,-5.7997,-5.8024,-5.8526,-5.8874,-5.9158,-5.9855,-6.0264,-6.0508,-6.0714,-6.08,-6.069,-6.0025,-5.9611,-5.9389,-5.9477,-5.9443,-5.9545,-6.0264,-6.0622,-6.0603,-5.9677,-5.9389,-5.9176,-5.8238,-5.7997,-5.7997,-5.7997,-5.7997,-5.7997,-5.7997,-5.7997,-5.7997,-5.7997,-5.7997,-5.7997,-5.7997,-5.7997,-5.7997,-5.7997,-5.8767,-5.948,-5.9844,-6.0249,-6.0343,-5.9872,-5.9377,-5.8737,-5.7954,-5.7881,-5.698,-5.4755,-5.5068,-5.4557,-5.2989,-5.3412,-5.3412,-5.29,-5.3412,-5.2812,-5.1214,-5.1214,-5.1214,-5.1214,-5.1214,-5.1214,0.0,0.0,0.0,0.0,0.0,0.0,0.0,0.0,0.0,0.0,0.0,0.0,0.0,0.0,0.0,0.0,0.0,0.0,0.0,0.0,0.0,0.0,0.0,0.0,0.0,0.0,0.0,0.0,-5.37,-5.3206,-5.3206,-5.3206,-5.3206,-5.3206,-5.3794,-5.4106,-5.4106,-5.4876,-5.539,-5.5592,-5.5592,-5.611,-5.7004,-5.7106,-5.7408,-5.7873,-5.8233,-5.8351,-5.8375,-5.8874,-5.9248,-5.9644,-6.0084,-6.0482,-6.08,-6.08,-6.08,-6.0734,-6.0264,-5.9885,-5.9611,-5.9855,-5.9773,-5.9709,-6.0411,-6.069,-6.0603,-5.9677,-5.9389,-5.9176,-5.8238,-5.7997,-5.7997,-5.7997,-5.7997,-5.7997,-5.7997,-5.7997,-5.7997,-5.7997,-5.7997,-5.7997,-5.7997,-5.7997,-5.7997,-5.7997,-5.9208,-6.0181,-6.0382,-6.1087,-6.1369,-6.0742,-5.9942,-5.9061,-5.8246,-5.801,-5.7055,-5.515,-5.4739,-5.4084,-5.2989,-5.2649,-5.2485,-5.2485,-5.2485,-5.2063,-5.1214,-5.1214,-5.1214,-5.1214,-5.1214,-5.1386,0.0,0.0,0.0,0.0,0.0,0.0,0.0,0.0,0.0,0.0,0.0,0.0,0.0,0.0,0.0,0.0,0.0,0.0,0.0,0.0,0.0,0.0,0.0,0.0,0.0,0.0,0.0,0.0,-5.37,-5.3206,-5.3206,-5.3206,-5.3206,-5.3206,-5.3243,-5.328,-5.328,-5.4069,-5.484,-5.5592,-5.5592,-5.5655,-5.5717,-5.607,-5.6737,-5.7595,-5.882,-5.9319,-5.9354,-5.9836,-6.0025,-6.0103,-6.0578,-6.08,-6.08,-6.08,-6.08,-6.0734,-6.0264,-6.0084,-5.9977,-5.9559,-5.9709,-6.0055,-6.0132,-6.0456,-6.0603,-5.9677,-5.9389,-5.9176,-5.8238,-5.7997,-5.7997,-5.7997,-5.7997,-5.7997,-5.7997,-5.7997,-5.7997,-5.7997,-5.7997,-5.7997,-5.7997,-5.7997,-5.7997,-5.7997,-5.8731,-5.9557,-6.0309,-6.1086,-6.1587,-6.1514,-6.082,-5.996,-5.9111,-5.8317,-5.7372,-5.6204,-5.515,-5.4084,-5.2989,-5.1896,-5.1308,-5.1308,-5.1308,-5.1214,-5.1214,-5.1214,-5.1214,-5.1214,-5.1214,-5.1804,0.0,0.0,0.0,0.0,0.0,0.0,0.0,0.0,0.0,0.0,0.0,0.0,0.0,0.0,0.0,0.0,0.0,0.0,0.0,0.0,0.0,0.0,0.0,0.0,0.0,0.0,0.0,0.0,0.0,-5.2656,-5.3188,-5.3206,-5.3206,-5.3206,-5.3206,-5.3206,-5.3206,-5.35,-5.3775,-5.4069,-5.4069,-5.4611,-5.5659,-5.5819,-5.6644,-5.8054,-5.849,-5.8976,-5.9424,-5.9916,-6.0103,-6.0132,-6.0622,-6.08,-6.08,-6.08,-6.08,-6.0777,-6.0622,-6.0338,-6.0132,-6.0264,-6.0208,-6.0161,-6.0456,-6.0666,-6.0603,-5.9677,-5.9389,-5.9176,-5.8238,-5.7997,-5.7997,-5.7997,-5.7997,-5.7997,-5.7997,-5.7997,-5.7997,-5.7997,-5.7997,-5.7997,-5.7997,-5.7997,-5.818,-5.8694,-5.9465,-6.0272,-6.1062,-6.1869,-6.2186,-6.1678,-6.0879,-6.0023,-5.9178,-5.8388,-5.7389,-5.6282,-5.5231,-5.4084,-5.2989,-5.1819,-5.1214,-5.1214,-5.1214,-5.1214,-5.1214,-5.1214,-5.1214,-5.1214,-5.1214,-5.1804,0.0,0.0,0.0,0.0,0.0,0.0,0.0,0.0,0.0,0.0,0.0,0.0,0.0,0.0,0.0,0.0,0.0,0.0,0.0,0.0,0.0,0.0,0.0,0.0,0.0,0.0,0.0,0.0,0.0,0.0,-5.2747,-5.2803,-5.2931,-5.3206,-5.3206,-5.3206,-5.3206,-5.3206,-5.3206,-5.3206,-5.3206,-5.3862,-5.5059,-5.5244,-5.6168,-5.768,-5.7793,-5.8464,-5.9467,-5.9769,-6.007,-6.0384,-6.069,-6.08,-6.08,-6.08,-6.08,-6.08,-6.08,-6.0597,-6.0384,-6.069,-6.0578,-6.0411,-6.069,-6.08,-6.0603,-5.9677,-5.9389,-5.9176,-5.8238,-5.7997,-5.7997,-5.7997,-5.7997,-5.7997,-5.7997,-5.7997,-5.7997,-5.7997,-5.7997,-5.7997,-5.7997,-5.8217,-5.8584,-5.9134,-6.0126,-6.1006,-6.152,-6.2073,-6.22,-6.1659,-6.0622,-5.9704,-5.9178,-5.8388,-5.7554,-5.6794,-5.5714,-5.4656,-5.3498,-5.2395,-5.1557,-5.1214,-5.1214,-5.1214,-5.1214,-5.1214,-5.1214,-5.1214,-5.1214,-5.165,0.0,0.0,0.0,0.0,0.0,0.0,0.0,0.0,0.0,0.0,0.0,0.0,0.0,0.0,0.0,0.0,0.0,0.0,0.0,0.0,0.0,0.0,0.0,0.0,0.0,0.0,0.0,0.0,-5.1213,-5.1114,-5.1903,-5.1977,-5.2362,-5.3151,-5.3206,-5.3206,-5.3206,-5.3206,-5.3206,-5.3206,-5.3206,-5.3422,-5.3851,-5.4288,-5.5185,-5.6401,-5.6802,-5.7896,-5.9435,-5.9473,-5.9992,-6.0762,-6.0781,-6.08,-6.08,-6.08,-6.08,-6.08,-6.08,-6.08,-6.08,-6.08,-6.08,-6.08,-6.08,-6.08,-6.0622,-5.9677,-5.9424,-5.9176,-5.8282,-5.7997,-5.7997,-5.7997,-5.7997,-5.7997,-5.7997,-5.7997,-5.7997,-5.7997,-5.7997,-5.7997,-5.7997,-5.8657,-5.9189,-5.9245,-6.0566,-6.1575,-6.163,-6.1586,-6.1586,-6.1586,-6.0113,-5.9111,-5.9111,-5.8388,-5.7881,-5.7881,-5.687,-5.5714,-5.4656,-5.3483,-5.2395,-5.1308,-5.1214,-5.1214,-5.1214,-5.1214,-5.1214,-5.1214,-5.1214,-5.1214,-2.7064,0.0,0.0,0.0,0.0,0.0,0.0,0.0,0.0,0.0,0.0,0.0,0.0,0.0,0.0,0.0,0.0,0.0,0.0,0.0,0.0,0.0,0.0,0.0,0.0,0.0,0.0,0.0,-5.0359,-5.027,-5.1096,-5.1665,-5.2087,-5.2325,-5.2913,-5.3206,-5.3206,-5.3206,-5.3206,-5.3206,-5.3505,-5.3851,-5.4322,-5.4731,-5.5294,-5.59,-5.6028,-5.6684,-5.778,-5.8992,-5.9646,-5.9915,-6.055,-6.08,-6.08,-6.08,-6.08,-6.08,-6.08,-6.08,-6.08,-6.08,-6.08,-6.08,-6.08,-6.08,-6.069,-6.0055,-5.9916,-5.9677,-5.8775,-5.8238,-5.7997,-5.7997,-5.7997,-5.7997,-5.7997,-5.7997,-5.7997,-5.7997,-5.7997,-5.7997,-5.7997,-5.818,-5.8731,-5.9905,-6.0456,-6.1153,-6.2328,-6.1949,-6.1586,-6.1586,-6.0113,-5.9111,-5.9111,-5.8388,-5.7881,-5.7881,-5.687,-5.6047,-5.5794,-5.3897,-5.2738,-5.2395,-5.165,-5.1214,-5.1214,-5.1214,-5.1214,-5.1214,-5.2063,-5.1972,0.0,0.0,0.0,0.0,0.0,0.0,0.0,-3.6791,0.0,0.0,0.0,0.0,0.0,0.0,0.0,0.0,0.0,0.0,0.0,0.0,0.0,0.0,0.0,0.0,0.0,-4.9974,-4.9692,-5.0153,-4.9486,-4.9407,-5.0251,-5.1059,-5.1499,-5.1499,-5.2289,-5.2711,-5.2711,-5.3041,-5.3295,-5.3444,-5.3683,-5.4134,-5.4779,-5.5007,-5.5306,-5.5703,-5.5703,-5.5992,-5.6549,-5.7896,-5.8877,-5.9588,-6.0454,-6.08,-6.08,-6.08,-6.08,-6.08,-6.08,-6.08,-6.08,-6.08,-6.08,-6.08,-6.08,-6.08,-6.069,-6.0236,-5.9946,-5.9644,-5.8913,-5.8484,-5.8238,-5.8024,-5.7997,-5.7997,-5.7997,-5.7997,-5.7997,-5.7997,-5.7997,-5.7997,-5.7997,-5.829,-5.8933,-6.0217,-6.0694,-6.1239,-6.216,-6.1604,-6.0938,-6.0605,-5.936,-5.8633,-5.8633,-5.8209,-5.7881,-5.7881,-5.7297,-5.6701,-5.6204,-5.4557,-5.3412,-5.29,-5.1804,-5.1214,-5.1214,-5.1214,-5.1214,-5.1214,-5.1896,-5.1804,0.0,0.0,0.0,0.0,0.0,0.0,-3.5893,-3.6095,0.0,0.0,0.0,0.0,0.0,0.0,0.0,0.0,0.0,0.0,0.0,0.0,0.0,0.0,0.0,0.0,-5.049,-4.9892,-4.9475,-4.9445,-4.8728,-4.8636,-4.9389,-5.0233,-5.0674,-5.0674,-5.1444,-5.1867,-5.1867,-5.2656,-5.3252,-5.3684,-5.3795,-5.4303,-5.5088,-5.516,-5.5356,-5.5703,-5.5703,-5.5703,-5.5761,-5.6626,-5.7934,-5.9454,-6.0319,-6.0704,-6.08,-6.08,-6.08,-6.08,-6.08,-6.08,-6.08,-6.08,-6.08,-6.08,-6.08,-6.08,-6.0714,-6.0311,-5.9855,-5.9354,-5.8913,-5.8735,-5.8591,-5.8097,-5.7997,-5.7997,-5.7997,-5.7997,-5.7997,-5.7997,-5.7997,-5.7997,-5.7997,-5.8602,-5.9391,-6.0272,-6.1006,-6.1492,-6.1606,-6.0879,-6.0086,-5.9178,-5.8388,-5.7881,-5.7881,-5.7881,-5.7881,-5.7881,-5.7881,-5.7463,-5.6454,-5.5312,-5.4253,-5.3061,-5.1804,-5.1214,-5.1214,-5.1011,-5.1011,-5.1214,-5.1011,-5.1011,-3.3582,0.0,0.0,0.0,0.0,0.0,-3.4256,-3.3982,0.0,0.0,0.0,0.0,0.0,0.0,0.0,0.0,0.0,0.0,0.0,0.0,0.0,0.0,0.0,0.0,-4.9217,-4.9375,-4.9356,-4.9043,-4.8568,-4.8379,-4.8545,-4.9352,-4.9811,-4.9811,-5.06,-5.1041,-5.1041,-5.183,-5.2444,-5.2863,-5.3868,-5.464,-5.5107,-5.5423,-5.564,-5.5703,-5.5703,-5.5703,-5.5761,-5.6626,-5.7607,-5.8627,-5.9435,-6.0185,-6.08,-6.08,-6.08,-6.08,-6.08,-6.08,-6.08,-6.08,-6.08,-6.08,-6.08,-6.08,-6.0781,-6.069,-6.0338,-5.9855,-5.9408,-5.8971,-5.8591,-5.8097,-5.7997,-5.7997,-5.7997,-5.7997,-5.7997,-5.7997,-5.7997,-5.7997,-5.7997,-5.8125,-5.8731,-6.0181,-6.0529,-6.087,-6.1534,-6.0879,-6.0104,-5.923,-5.8405,-5.7881,-5.7881,-5.7881,-5.7881,-5.7881,-5.7881,-5.7808,-5.7554,-5.647,-5.5393,-5.4253,-5.223,-5.1214,-5.1214,-5.008,-5.0191,-5.1214,-5.008,-5.0191,-3.5989,0.0,0.0,-3.5908,0.0,0.0,0.0,-3.4355,-3.4668,0.0,0.0,0.0,0.0,0.0,0.0,0.0,0.0,0.0,0.0,0.0,0.0,0.0,0.0,0.0,-4.8464,-4.8688,-4.8765,-4.8603,-4.8155,-4.7977,-4.8267,-4.8437,-4.8616,-4.8948,-4.9756,-5.0196,-5.0196,-5.115,-5.1862,-5.2296,-5.3569,-5.4379,-5.4824,-5.5426,-5.5703,-5.5703,-5.5703,-5.5703,-5.5722,-5.6165,-5.6857,-5.7761,-5.9011,-5.9762,-6.0204,-6.0646,-6.08,-6.08,-6.08,-6.08,-6.08,-6.08,-6.08,-6.08,-6.08,-6.08,-6.08,-6.08,-6.0622,-6.0311,-5.9559,-5.9231,-5.8874,-5.8186,-5.7997,-5.7997,-5.7997,-5.7997,-5.7997,-5.7997,-5.7997,-5.7997,-5.7997,-5.7997,-5.8419,-5.963,-6.0144,-6.0373,-6.0379,-6.0409,-5.9914,-5.8668,-5.8154,-5.7881,-5.7881,-5.7881,-5.7881,-5.7881,-5.7881,-5.7881,-5.7881,-5.6298,-5.464,-5.29,-5.1804,-5.1214,-5.1214,-4.9873,-4.9873,-5.1214,-5.0493,-5.0603,0.0,0.0,0.0,0.0,0.0,-3.6756,0.0,0.0,0.0,-3.7226,0.0,0.0,0.0,0.0,0.0,0.0,0.0,0.0,0.0,0.0,0.0,0.0,0.0,0.0,-4.7511,-4.7568,-4.766,-4.7849,-4.7302,-4.7275,-4.8029,-4.7625,-4.7674,-4.8267,-4.8967,-4.9334,-4.9334,-5.049,-5.1301,-5.1798,-5.3128,-5.4063,-5.453,-5.5318,-5.5703,-5.5703,-5.5703,-5.5703,-5.5703,-5.5703,-5.6107,-5.6896,-5.8415,-5.9223,-5.9588,-6.0281,-6.0666,-6.08,-6.08,-6.08,-6.08,-6.08,-6.08,-6.08,-6.08,-6.08,-6.08,-6.08,-6.08,-6.0578,-5.9644,-5.9389,-5.9139,-5.8194,-5.7997,-5.7997,-5.7997,-5.7997,-5.7997,-5.7997,-5.7997,-5.7997,-5.7997,-5.7997,-5.8272,-5.9098,-5.9887,-6.0176,-5.9496,-5.9997,-5.985,-5.8317,-5.801,-5.7881,-5.7881,-5.7881,-5.7881,-5.7881,-5.7881,-5.7881,-5.7881,-5.5747,-5.3656,-5.1557,-5.1293,-5.1214,-5.1214,-5.008,-5.0191,-5.1214,-5.0917,-5.109,0.0,0.0,0.0,0.0,-3.9304,0.0,0.0,0.0,-3.5508,-3.4258,0.0,0.0,0.0,0.0,0.0,0.0,0.0,0.0,0.0,0.0,0.0,0.0,0.0,0.0,0.0,-4.548,-4.5732,-4.614,-4.5591,-4.5878,-4.7167,-4.7334,-4.7674,-4.8267,-4.8398,-4.8453,-4.8453,-4.9638,-5.0459,-5.0967,-5.2889,-5.4063,-5.453,-5.5318,-5.5703,-5.5703,-5.5703,-5.5703,-5.5703,-5.5703,-5.5761,-5.5934,-5.6896,-5.8184,-5.9511,-5.9608,-6.0146,-6.08,-6.08,-6.08,-6.08,-6.08,-6.08,-6.08,-6.08,-6.08,-6.08,-6.08,-6.08,-6.0578,-5.9644,-5.9389,-5.9139,-5.8194,-5.7997,-5.7997,-5.7997,-5.7997,-5.7997,-5.7997,-5.7997,-5.7997,-5.7997,-5.7997,-5.8272,-5.9098,-5.9887,-6.0345,-6.0268,-6.0339,-6.0023,-5.9061,-5.8317,-5.7881,-5.7881,-5.7881,-5.7881,-5.7881,-5.7881,-5.7881,-5.7881,-5.5747,-5.3999,-5.2738,-5.1727,-5.1214,-5.1214,-5.1011,-5.1011,-5.1214,-4.9984,-5.0594,0.0,0.0,0.0,0.0,0.0,0.0,-3.6777,0.0,-3.589,0.0,0.0,0.0,0.0,0.0,0.0,0.0,0.0,0.0,0.0,0.0,0.0,0.0,0.0,0.0,0.0,0.0,0.0,0.0,-4.4853,-4.4947,-4.7002,-4.6501,-4.6837,-4.8249,-4.8306,-4.8306,-4.8306,-4.9284,-4.9852,-5.0051,-5.1833,-5.3075,-5.378,-5.4626,-5.5261,-5.5703,-5.5703,-5.5703,-5.5703,-5.5703,-5.5703,-5.5742,-5.6088,-5.6973,-5.8165,-5.9146,-5.9723,-6.0127,-6.0608,-6.08,-6.08,-6.08,-6.08,-6.08,-6.08,-6.08,-6.08,-6.08,-6.08,-6.0578,-5.9644,-5.9389,-5.9139,-5.8194,-5.7997,-5.807,-5.8351,-5.8213,-5.807,-5.8351,-5.8168,-5.7997,-5.7997,-5.7997,-5.8107,-5.8455,-5.9593,-6.0231,-5.9745,-6.0112,-6.0086,-5.9178,-5.8388,-5.7881,-5.7881,-5.7881,-5.7881,-5.7881,-5.7881,-5.7314,-5.6064,-5.5068,-5.3742,-5.1972,-5.1479,-5.1214,-5.1214,-5.1214,-5.1214,-5.1214,-5.0603,-5.1296,-4.1318,0.0,0.0,0.0,0.0,0.0,0.0,0.0,0.0,0.0,0.0,0.0,0.0,0.0,0.0,0.0,0.0,0.0,0.0,0.0,0.0,0.0,0.0,0.0,0.0,0.0,0.0,0.0,0.0,-4.3777,-4.6432,-4.5923,-4.6302,-4.7919,-4.8196,-4.8306,-4.8306,-4.9094,-4.9504,-4.9522,-5.1136,-5.2375,-5.3241,-5.4107,-5.4934,-5.5703,-5.5703,-5.5703,-5.5703,-5.5703,-5.5703,-5.5703,-5.5703,-5.6088,-5.6819,-5.828,-5.9108,-5.9588,-6.0223,-6.0589,-6.08,-6.08,-6.08,-6.08,-6.08,-6.0714,-6.0622,-6.0622,-6.0622,-6.0411,-5.9611,-5.9389,-5.9195,-5.8375,-5.8097,-5.8097,-5.8418,-5.8238,-5.8097,-5.8461,-5.8238,-5.7997,-5.7997,-5.7997,-5.7997,-5.7997,-5.9189,-5.9932,-5.9556,-5.9853,-5.992,-5.9474,-5.8511,-5.7881,-5.7881,-5.7881,-5.7881,-5.7881,-5.7881,-5.6887,-5.4672,-5.4589,-5.3498,-5.1214,-5.1214,-5.1214,-5.1214,-5.1214,-5.1214,-5.1214,-5.1214,-5.1804,0.0,0.0,0.0,-3.8972,0.0,0.0,0.0,0.0,-3.8033,0.0,0.0,0.0,0.0,0.0,0.0,0.0,0.0,0.0,0.0,0.0,0.0,0.0,0.0,0.0,0.0,0.0,0.0,0.0,-4.1683,0.0,-4.509,-4.5842,-4.6454,-4.7112,-4.7902,-4.8306,-4.8306,-4.9094,-4.9504,-4.9522,-5.1136,-5.2375,-5.3241,-5.4107,-5.4934,-5.5703,-5.5703,-5.5703,-5.5703,-5.5703,-5.5703,-5.5703,-5.5703,-5.5722,-5.5838,-5.6742,-5.8107,-5.9492,-5.9531,-6.0089,-6.08,-6.08,-6.08,-6.08,-6.08,-6.0482,-6.0132,-6.0132,-6.0132,-6.0025,-5.9545,-5.9389,-5.9284,-5.8796,-5.8351,-5.7997,-5.8042,-5.7997,-5.7997,-5.8042,-5.7997,-5.7997,-5.7997,-5.7997,-5.7997,-5.7997,-5.8712,-5.9538,-6.0243,-5.9707,-5.9504,-6.0264,-5.8892,-5.7881,-5.7881,-5.7881,-5.7881,-5.7881,-5.7881,-5.6887,-5.4672,-5.4589,-5.3498,-5.1214,-5.1214,-5.1214,-5.1214,-5.1214,-5.1214,-5.1214,-5.1214,-5.1804,0.0,0.0,-4.3352,-4.1104,0.0,0.0,0.0,0.0,0.0,0.0,0.0,0.0,0.0,0.0,0.0,0.0,0.0,0.0,0.0,0.0,0.0,0.0,0.0,0.0,0.0,0.0,0.0,0.0,-4.2012,0.0,0.0,-4.5137,-4.5662,-4.7039,-4.737,-4.7887,-4.8674,-4.9234,-4.9617,-4.9898,-5.073,-5.1837,-5.3222,-5.351,-5.4395,-5.5703,-5.5703,-5.5703,-5.5703,-5.5703,-5.5703,-5.5703,-5.5703,-5.5703,-5.5799,-5.6665,-5.7723,-5.8858,-5.9973,-6.055,-6.08,-6.08,-6.08,-6.08,-6.08,-6.0482,-6.0103,-6.0103,-5.9885,-5.9545,-5.9047,-5.8951,-5.8796,-5.8351,-5.8097,-5.8115,-5.8375,-5.8213,-5.8097,-5.8418,-5.8213,-5.7997,-5.7997,-5.7997,-5.7997,-5.7997,-5.8694,-5.9501,-6.0309,-5.9707,-5.9486,-6.0326,-5.8909,-5.7881,-5.7881,-5.7881,-5.7881,-5.7881,-5.7881,-5.7222,-5.5714,-5.4986,-5.3913,-5.2305,-5.1557,-5.1214,-5.1214,-5.0287,-5.0287,-5.1214,-5.0287,-5.0986,-4.3605,-4.3912,0.0,-4.222,-4.1373,0.0,-3.8897,0.0,0.0,0.0,0.0,0.0,0.0,0.0,0.0,0.0,0.0,0.0,0.0,0.0,0.0,0.0,0.0,0.0,0.0,0.0,-4.0953,-4.2558,-4.1755,0.0,0.0,0.0,-4.5229,-4.6375,-4.6856,-4.7536,-4.8449,-4.9164,-4.9719,-5.0092,-5.0504,-5.1414,-5.276,-5.3068,-5.3953,-5.528,-5.5568,-5.5703,-5.5703,-5.5703,-5.5703,-5.5703,-5.5703,-5.5703,-5.5761,-5.6319,-5.728,-5.8511,-5.9858,-6.0531,-6.08,-6.08,-6.08,-6.0757,-6.0597,-6.0236,-5.9823,-5.9644,-5.9389,-5.9084,-5.8775,-5.8694,-5.8632,-5.8307,-5.8142,-5.8051,-5.8394,-5.8213,-5.8115,-5.8375,-5.8213,-5.7997,-5.7997,-5.8142,-5.8213,-5.8042,-5.8694,-5.9501,-6.0309,-5.9707,-5.9486,-6.0326,-5.8909,-5.7881,-5.7881,-5.7881,-5.7881,-5.7881,-5.7881,-5.7372,-5.6282,-5.515,-5.4084,-5.29,-5.1804,-5.1011,-5.0493,-4.9664,-4.9357,-4.9679,-4.8851,-4.9592]},{"header":{"parameterUnit":"m.s-1","parameterCategory":1,"la1":30.6,"la2":29.2853,"lo1":-89.7004,"lo2":-87.6739,"dy":0.0162,"dx":0.0183,"nx":112,"ny":82,"refTime":"2024-05-31T18:00:00:Z","depth":0,"parameterNumber":3,"parameterNumberName":"V-component_of_WINDS"},"data":[0.0,0.0,0.0,0.0,0.0,0.0,0.0,0.0,0.0,0.0,0.0,0.0,0.0,0.0,0.0,0.0,0.0,0.0,0.0,0.0,0.0,0.0,0.0,0.0,0.0,0.0,0.0,0.0,0.0,0.0,0.0,0.0,0.0,0.0,0.0,0.0,0.0,0.0,0.0,0.0,0.0,0.0,0.0,0.0,0.0,0.0,0.0,0.0,0.0,0.0,0.0,0.0,0.0,0.0,0.0,0.0,0.0,0.0,0.0,0.0,0.0,0.0,0.0,0.0,0.0,0.0,0.0,0.0,0.0,0.0,0.0,0.0,0.0,0.0,0.0,0.0,0.0,0.0,0.0,0.0,0.0,0.0,0.0,0.0,0.0,0.0,0.0,0.0,0.0,0.0,1.7771,1.584,1.757,1.847,1.7655,1.886,1.9319,1.86,0.0,0.0,0.0,0.0,0.0,0.0,0.0,0.0,0.0,0.0,0.0,0.0,0.0,0.0,0.0,0.0,0.0,0.0,0.0,0.0,0.0,0.0,0.0,0.0,0.0,0.0,0.0,0.0,0.0,0.0,0.0,0.0,0.0,0.0,0.0,0.0,0.0,0.0,0.0,0.0,0.0,0.0,0.0,0.0,0.0,0.0,0.0,0.0,0.0,0.0,0.0,0.0,0.0,0.0,0.0,0.0,0.0,0.0,0.0,0.0,0.0,0.0,0.0,0.0,0.0,0.0,0.0,0.0,0.0,0.0,0.0,0.0,0.0,0.0,0.0,0.0,0.0,0.0,0.0,0.0,0.0,0.0,0.0,0.0,0.0,0.0,0.0,0.0,0.0,0.0,0.0,0.0,0.0,0.0,0.0,0.0,0.0,0.0,0.0,0.0,0.0,0.0,0.0,0.0,1.794,1.6973,1.879,1.9324,1.7749,1.8216,1.8961,1.9713,0.0,0.0,0.0,0.0,0.0,0.0,0.0,0.0,0.0,0.0,0.0,0.0,0.0,0.0,0.0,0.0,0.0,0.0,0.0,0.0,0.0,0.0,0.0,0.0,0.0,0.0,0.0,0.0,0.0,0.0,0.0,0.0,0.0,0.0,0.0,0.0,0.0,0.0,0.0,0.0,0.0,0.0,0.0,0.0,0.0,0.0,0.0,0.0,0.0,0.0,0.0,0.0,0.0,0.0,0.0,0.0,0.0,0.0,0.0,0.0,0.0,0.0,0.0,0.0,0.0,0.0,0.0,0.0,0.0,0.0,0.0,0.0,0.0,0.0,0.0,0.0,0.0,0.0,0.0,0.0,0.0,0.0,0.0,0.0,0.0,0.0,0.0,0.0,0.0,0.0,0.0,0.0,0.0,0.0,0.0,0.0,0.0,0.0,0.0,0.0,0.0,0.0,0.0,1.7755,1.7914,1.858,1.9565,1.9797,1.8898,1.8744,1.9097,1.9908,1.8115,0.0,0.0,0.0,0.0,0.0,0.0,0.0,0.0,0.0,0.0,0.0,0.0,0.0,0.0,0.0,0.0,0.0,0.0,0.0,0.0,0.0,0.0,0.0,0.0,0.0,0.0,0.0,0.0,0.0,0.0,0.0,0.0,0.0,0.0,0.0,0.0,0.0,0.0,0.0,0.0,0.0,0.0,0.0,0.0,0.0,0.0,0.0,0.0,0.0,0.0,0.0,0.0,0.0,0.0,0.0,0.0,0.0,0.0,0.0,0.0,0.0,0.0,0.0,0.0,0.0,0.0,0.0,0.0,0.0,0.0,0.0,0.0,0.0,0.0,0.0,0.0,0.0,0.0,0.0,0.0,0.0,0.0,0.0,0.0,0.0,0.0,0.0,0.0,0.0,0.0,0.0,0.0,0.0,0.0,0.0,0.0,0.0,0.0,0.0,0.0,0.0,0.0,1.8318,1.7795,1.9011,1.9694,1.984,1.9199,1.877,1.8828,1.9509,1.7858,0.0,0.0,0.0,0.0,0.0,0.0,0.0,0.0,0.0,0.0,0.0,0.0,0.0,0.0,0.0,0.0,0.0,0.0,0.0,0.0,0.0,0.0,0.0,0.0,0.0,0.0,0.0,0.0,0.0,0.0,0.0,0.0,0.0,0.0,0.0,0.0,0.0,0.0,0.0,0.0,0.0,0.0,0.0,0.0,0.0,0.0,0.0,0.0,0.0,0.0,0.0,0.0,0.0,0.0,0.0,0.0,0.0,0.0,0.0,0.0,0.0,0.0,0.0,0.0,0.0,0.0,0.0,0.0,0.0,0.0,0.0,0.0,0.0,0.0,0.0,0.0,0.0,0.0,0.0,0.0,0.0,0.0,0.0,0.0,0.0,0.0,0.0,0.0,0.0,0.0,0.0,0.0,0.0,0.0,0.0,0.0,0.0,0.0,0.0,0.0,0.0,0.0,1.8046,1.7566,1.7458,1.8612,1.8927,1.7463,1.7347,1.7612,1.839,1.6831,0.0,0.0,0.0,0.0,0.0,0.0,0.0,0.0,0.0,0.0,0.0,0.0,0.0,0.0,0.0,0.0,0.0,0.0,0.0,0.0,0.0,0.0,0.0,0.0,0.0,0.0,0.0,0.0,0.0,0.0,0.0,0.0,0.0,0.0,0.0,0.0,0.0,0.0,0.0,0.0,0.0,0.0,0.0,0.0,0.0,0.0,0.0,0.0,0.0,0.0,0.0,0.0,0.0,0.0,0.0,0.0,0.0,0.0,0.0,0.0,0.0,0.0,0.0,0.0,0.0,0.0,0.0,0.0,0.0,0.0,0.0,0.0,0.0,0.0,0.0,0.0,0.0,0.0,0.0,0.0,0.0,0.0,0.0,0.0,0.0,0.0,0.0,0.0,0.0,0.0,0.0,0.0,0.0,0.0,0.0,0.0,0.0,0.0,0.0,0.0,0.0,0.0,1.8931,1.8583,0.0,1.9631,1.9094,1.8313,1.7967,1.797,1.8586,0.0,0.0,0.0,0.0,0.0,0.0,0.0,0.0,0.0,0.0,0.0,0.0,0.0,0.0,0.0,0.0,0.0,0.0,0.0,0.0,0.0,0.0,0.0,0.0,0.0,0.0,0.0,0.0,0.0,0.0,0.0,0.0,0.0,0.0,0.0,0.0,0.0,0.0,0.0,0.0,0.0,0.0,0.0,0.0,0.0,0.0,0.0,0.0,0.0,0.0,0.0,0.0,0.0,0.0,0.0,0.0,0.0,0.0,0.0,0.0,0.0,0.0,0.0,0.0,0.0,0.0,0.0,0.0,0.0,0.0,0.0,0.0,0.0,0.0,0.0,0.0,0.0,0.0,0.0,0.0,0.0,0.0,0.0,0.0,0.0,0.0,0.0,0.0,0.0,0.0,0.0,0.0,0.0,0.0,0.0,0.0,0.0,0.0,0.0,0.0,0.0,0.0,2.1053,2.0305,2.004,0.0,2.0702,1.98,1.8945,1.8442,1.8289,1.8727,0.0,0.0,0.0,0.0,0.0,0.0,0.0,0.0,0.0,0.0,0.0,0.0,0.0,0.0,0.0,0.0,0.0,0.0,0.0,0.0,0.0,0.0,0.0,0.0,0.0,0.0,0.0,0.0,0.0,0.0,0.0,0.0,0.0,0.0,0.0,0.0,0.0,0.0,0.0,0.0,0.0,0.0,0.0,0.0,0.0,0.0,0.0,0.0,0.0,0.0,0.0,0.0,0.0,0.0,0.0,0.0,0.0,0.0,0.0,0.0,0.0,0.0,0.0,0.0,0.0,0.0,0.0,0.0,0.0,0.0,0.0,0.0,0.0,0.0,0.0,0.0,0.0,0.0,0.0,0.0,0.0,0.0,0.0,0.0,0.0,0.0,0.0,0.0,0.0,0.0,0.0,0.0,0.0,0.0,0.0,0.0,0.0,0.0,0.0,0.0,0.0,0.0,2.2026,2.1961,2.1788,2.1662,2.1692,2.09,1.9051,1.8693,1.8527,0.0,0.0,0.0,0.0,0.0,0.0,0.0,0.0,0.0,0.0,0.0,0.0,0.0,0.0,0.0,0.0,0.0,0.0,0.0,0.0,0.0,0.0,0.0,0.0,0.0,0.0,0.0,0.0,0.0,0.0,0.0,0.0,0.0,0.0,0.0,0.0,0.0,0.0,0.0,0.0,0.0,0.0,0.0,0.0,0.0,0.0,0.0,0.0,0.0,0.0,0.0,0.0,0.0,0.0,0.0,0.0,0.0,0.0,0.0,0.0,0.0,0.0,0.0,0.0,0.0,0.0,0.0,0.0,0.0,0.0,0.0,0.0,0.0,0.0,0.0,0.0,0.0,0.0,0.0,0.0,0.0,0.0,0.0,0.0,0.0,0.0,0.0,0.0,0.0,0.0,0.0,0.0,0.0,0.0,0.0,0.0,0.0,0.0,0.0,0.0,0.0,0.0,0.0,2.4959,2.5442,2.5718,2.6169,2.4242,2.226,2.0362,1.9574,1.8852,1.8016,0.0,0.0,0.0,0.0,0.0,0.0,0.0,0.0,0.0,0.0,0.0,0.0,0.0,0.0,0.0,0.0,0.0,0.0,0.0,0.0,0.0,0.0,0.0,0.0,0.0,0.0,0.0,0.0,0.0,0.0,0.0,0.0,0.0,0.0,0.0,0.0,0.0,0.0,0.0,0.0,0.0,0.0,0.0,0.0,0.0,0.0,0.0,0.0,0.0,0.0,0.0,0.0,0.0,0.0,0.0,0.0,0.0,0.0,0.0,0.0,0.0,0.0,0.0,0.0,0.0,0.0,0.0,0.0,0.0,0.0,0.0,0.0,0.0,0.0,0.0,0.0,0.0,0.0,0.0,0.0,0.0,0.0,0.0,0.0,0.0,0.0,0.0,0.0,0.0,0.0,0.0,0.0,0.0,0.0,0.0,0.0,0.0,0.0,0.0,0.0,0.0,0.0,2.7667,2.8638,2.9252,2.9517,2.7429,2.5014,2.2511,2.1538,2.0581,1.9505,0.0,0.0,0.0,0.0,0.0,0.0,0.0,0.0,0.0,0.0,0.0,0.0,0.0,0.0,0.0,0.0,0.0,0.0,0.0,0.0,0.0,0.0,0.0,0.0,0.0,0.0,0.0,0.0,0.0,0.0,0.0,0.0,0.0,0.0,0.0,0.0,0.0,0.0,0.0,0.0,0.0,0.0,0.0,0.0,0.0,0.0,0.0,0.0,0.0,0.0,0.0,0.0,0.0,0.0,0.0,0.0,0.0,0.0,0.0,0.0,0.0,0.0,0.0,0.0,0.0,0.0,0.0,0.0,0.0,0.0,0.0,0.0,0.0,0.0,0.0,0.0,0.0,0.0,0.0,0.0,0.0,0.0,0.0,0.0,0.0,0.0,0.0,0.0,0.0,0.0,0.0,0.0,0.0,0.0,0.0,0.0,0.0,0.0,0.0,0.0,0.0,0.0,3.0241,3.1757,3.2373,3.2218,3.0961,2.8819,2.5273,2.4207,2.3149,2.1864,0.0,0.0,0.0,0.0,0.0,0.0,0.0,0.0,0.0,0.0,0.0,0.0,0.0,0.0,0.0,0.0,0.0,0.0,0.0,0.0,0.0,0.0,0.0,0.0,0.0,0.0,0.0,0.0,0.0,0.0,0.0,0.0,0.0,0.0,0.0,0.0,0.0,0.0,0.0,0.0,0.0,0.0,0.0,0.0,0.0,0.0,0.0,0.0,0.0,0.0,0.0,0.0,0.0,0.0,0.0,0.0,0.0,0.0,0.0,0.0,2.2173,0.0,0.0,0.0,0.0,0.0,0.0,0.0,0.0,0.0,0.0,0.0,0.0,0.0,0.0,0.0,0.0,0.0,0.0,0.0,0.0,0.0,0.0,0.0,0.0,0.0,0.0,0.0,0.0,0.0,0.0,0.0,0.0,0.0,0.0,0.0,0.0,0.0,0.0,0.0,0.0,0.0,3.317,3.509,3.5824,3.5244,3.3922,3.1229,2.6927,2.5929,2.4277,2.1453,2.1091,0.0,0.0,0.0,0.0,0.0,0.0,0.0,0.0,0.0,0.0,0.0,0.0,0.0,0.0,0.0,0.0,0.0,0.0,0.0,0.0,0.0,0.0,0.0,0.0,0.0,0.0,0.0,0.0,0.0,0.0,0.0,0.0,0.0,0.0,0.0,0.0,0.0,0.0,0.0,0.0,0.0,0.0,0.0,0.0,0.0,0.0,0.0,0.0,0.0,0.0,0.0,0.0,0.0,0.0,0.0,0.0,0.0,0.0,0.0,0.0,2.5247,0.0,0.0,0.0,0.0,0.0,0.0,0.0,0.0,0.0,0.0,0.0,0.0,0.0,0.0,0.0,0.0,0.0,0.0,0.0,0.0,0.0,0.0,0.0,0.0,0.0,0.0,0.0,0.0,0.0,0.0,0.0,0.0,0.0,0.0,0.0,0.0,0.0,0.0,0.0,0.0,3.5365,3.7405,3.8531,3.8681,3.6935,3.4478,3.1321,2.8686,2.624,2.4144,2.2441,0.0,0.0,0.0,0.0,0.0,0.0,0.0,0.0,0.0,0.0,0.0,0.0,0.0,0.0,0.0,0.0,0.0,0.0,0.0,0.0,0.0,0.0,0.0,0.0,0.0,0.0,0.0,0.0,0.0,0.0,0.0,0.0,0.0,0.0,0.0,0.0,0.0,0.0,0.0,0.0,0.0,0.0,0.0,0.0,0.0,0.0,0.0,0.0,0.0,0.0,0.0,0.0,0.0,1.933,2.1345,2.3423,2.5243,2.731,2.9398,2.9521,2.9528,2.9402,2.8885,0.0,0.0,0.0,0.0,0.0,0.0,0.0,0.0,0.0,0.0,0.0,0.0,0.0,0.0,0.0,0.0,0.0,0.0,0.0,0.0,0.0,0.0,0.0,0.0,3.5652,3.5247,3.1511,0.0,0.0,0.0,0.0,0.0,0.0,0.0,0.0,0.0,0.0,0.0,3.6519,3.8688,4.011,4.0928,3.927,3.735,3.5228,3.1244,2.8328,2.7112,2.4099,2.1894,0.0,0.0,0.0,0.0,0.0,0.0,0.0,0.0,0.0,0.0,0.0,0.0,0.0,0.0,0.0,0.0,0.0,0.0,0.0,0.0,0.0,0.0,0.0,0.0,0.0,0.0,0.0,0.0,0.0,0.0,0.0,0.0,1.2058,1.2291,0.0,0.0,0.0,0.0,0.0,0.0,0.0,0.0,0.0,0.0,0.0,0.0,0.0,1.3535,1.556,1.7444,1.9284,2.1156,2.4033,2.5496,2.5934,2.9607,3.1473,3.1937,3.425,0.0,3.165,3.0171,0.0,0.0,0.0,0.0,0.0,0.0,0.0,0.0,0.0,0.0,0.0,0.0,0.0,0.0,0.0,0.0,0.0,0.0,0.0,0.0,0.0,0.0,3.8322,3.7473,3.7379,3.7006,0.0,3.3966,3.2691,3.1943,3.1171,0.0,0.0,0.0,0.0,0.0,0.0,0.0,3.5953,3.8371,3.9513,3.868,3.9156,3.7874,3.3611,3.1616,2.9613,2.7052,2.5158,2.3535,2.2305,2.1377,0.0,0.0,0.0,0.0,0.0,0.0,0.0,0.0,0.0,0.0,0.0,0.0,0.0,0.0,0.0,0.0,0.0,0.0,0.0,0.0,0.0,0.0,0.0,0.0,0.0,0.0,0.0,0.0,0.0,1.2432,1.3609,1.3094,1.3635,1.3811,0.0,0.0,0.0,0.0,0.0,0.0,0.0,0.0,0.0,1.5796,1.7819,1.9499,2.0559,2.1688,2.2999,2.4727,2.6172,2.7308,2.8325,3.1593,3.316,3.3263,3.605,3.6596,3.529,3.3031,3.1726,3.1252,0.0,0.0,0.0,0.0,3.6146,3.6687,3.7453,3.7171,3.6325,3.5813,0.0,0.0,0.0,0.0,0.0,0.0,0.0,0.0,0.0,0.0,3.9459,3.9326,3.8513,3.7506,3.669,3.4954,3.3487,0.0,3.276,3.1835,2.8919,0.0,0.0,0.0,0.0,3.2444,3.6241,3.7934,3.8839,3.9047,3.9006,3.7931,3.5582,3.2712,3.0387,2.8822,2.6247,2.4424,2.3613,2.2529,2.1162,0.0,0.0,0.0,0.0,0.0,0.0,0.0,0.0,0.0,0.0,0.0,0.0,0.0,0.0,0.0,0.0,0.0,0.0,0.0,0.0,0.0,0.0,0.0,0.0,0.0,0.0,0.0,0.0,1.3841,1.5258,1.4349,1.5644,1.6216,0.0,0.0,0.0,0.0,0.0,0.0,1.64,1.9171,2.0423,1.996,2.257,2.4319,2.4846,2.5283,2.6311,2.7939,2.8113,2.8842,3.0015,3.2911,3.419,3.4297,3.7168,3.8354,3.804,3.5554,3.4035,3.3439,3.4604,3.5107,3.5363,3.7753,3.8856,3.929,3.9981,3.9697,3.8903,3.7577,3.536,3.3063,3.215,0.0,0.0,0.0,0.0,3.6307,3.9284,3.9477,3.903,3.9382,3.81,3.6687,3.5925,3.4557,3.3541,0.0,3.3574,3.2595,2.9744,0.0,0.0,0.0,0.0,3.1414,3.4808,3.6449,3.7477,3.7883,3.7638,3.6975,3.5761,3.2442,3.0101,2.9615,2.6886,2.499,2.4443,2.3506,2.2334,2.0928,0.0,0.0,0.0,0.0,0.0,0.0,0.0,0.0,0.0,0.0,0.0,0.0,0.0,0.0,0.0,0.0,0.0,0.0,0.0,0.0,0.0,0.0,0.0,0.0,0.0,0.0,0.0,0.0,0.0,1.71,1.8587,0.0,0.0,0.0,0.0,2.0138,2.1265,2.2113,2.2639,2.3285,2.3829,2.4315,2.4511,2.568,2.7714,2.7875,2.8811,3.0675,3.0694,3.0704,3.0937,3.3903,3.5221,3.544,3.8287,3.932,3.8693,3.696,3.6207,3.6261,3.6787,3.6932,3.7184,3.8781,4.0157,4.1083,3.9973,3.9914,4.0148,3.8662,3.6096,3.3541,3.3669,3.2413,0.0,0.0,3.4945,3.5597,3.8238,3.7984,3.6914,3.645,3.5252,3.4003,3.2753,3.2453,3.2889,0.0,3.3331,3.1757,3.1029,0.0,2.8535,2.7268,2.7883,2.8993,3.0247,3.33,3.4711,3.2841,3.4435,3.4391,3.1517,2.9622,2.8306,2.7747,2.6466,2.5322,2.4453,2.4355,2.3535,2.1855,2.0908,0.0,0.0,0.0,0.0,0.0,0.0,0.0,0.0,0.0,0.0,0.0,0.0,0.0,0.0,0.0,0.0,0.0,0.0,0.0,0.0,0.0,0.0,0.0,0.0,0.0,0.0,0.0,0.0,2.1609,2.3644,0.0,2.3734,2.4181,2.4249,2.3556,2.4351,2.4703,2.4199,2.5605,2.6654,2.6822,2.8984,2.9986,2.9918,3.0787,3.1106,3.0889,3.0889,3.0889,3.1005,3.2975,3.4403,3.5398,3.737,3.8693,3.9358,3.8755,3.8078,3.7543,3.8477,3.9386,4.0225,4.1461,4.2791,4.3722,4.2484,4.105,3.9106,3.462,3.2398,3.1295,2.997,2.9016,2.9059,3.2229,3.3112,3.3863,3.6904,3.6792,3.5929,3.567,3.4049,3.2372,3.1911,3.0958,3.058,3.2094,3.2007,3.1217,2.99,2.906,2.8396,2.8298,2.8256,2.8931,3.076,3.211,3.2707,3.2375,3.3024,3.2769,3.1038,2.9397,2.8041,2.718,2.5678,2.4629,2.4033,2.4014,2.3467,2.2314,2.1709,2.0352,0.0,0.0,0.0,0.0,0.0,0.0,0.0,0.0,0.0,0.0,0.0,0.0,0.0,0.0,0.0,0.0,0.0,0.0,0.0,0.0,0.0,0.0,0.0,0.0,0.0,0.0,2.5252,2.5886,2.861,3.0169,2.9513,2.9997,3.0035,2.9284,2.9611,2.9457,2.8694,2.9844,3.0417,3.0417,3.2653,3.3417,3.2436,3.3304,3.3088,3.1662,3.1662,3.1325,3.1005,3.2426,3.3845,3.5398,3.6811,3.836,3.9697,3.9697,3.9258,3.8655,3.968,4.0817,4.2062,4.3019,4.4337,4.5382,4.3403,4.0655,3.7179,3.1998,2.9501,2.8267,2.6042,2.5357,2.5925,2.8662,2.9839,3.0916,3.3617,3.3752,3.3271,3.3271,3.2116,3.072,3.0249,2.9628,2.9182,2.9421,2.9953,3.0203,2.9384,2.861,2.8084,2.8274,2.8136,2.8566,3.0056,3.0762,3.1081,3.0987,3.1186,3.0874,2.9698,2.83,2.7225,2.6525,2.5192,2.4287,2.4014,2.3867,2.3447,2.2744,2.2031,2.081,1.9062,0.0,0.0,0.0,0.0,0.0,0.0,0.0,0.0,0.0,0.0,0.0,0.0,0.0,0.0,0.0,0.0,0.0,0.0,0.0,0.0,0.0,0.0,0.0,1.8897,2.4043,2.8314,2.9915,3.3452,3.5865,3.6146,3.6972,3.7416,3.7365,3.696,3.6625,3.6625,3.5891,3.5387,3.5387,3.5508,3.5519,3.5398,3.5409,3.4637,3.318,3.318,3.2426,3.1112,3.254,3.3957,3.5398,3.6918,3.8348,3.9581,3.9581,3.9581,3.9725,4.0322,4.1325,4.2551,4.313,4.4588,4.5752,4.2467,3.8691,3.4737,3.1156,2.7748,2.4736,2.2639,2.1957,2.229,2.3565,2.5239,2.6933,2.8312,2.8853,2.909,2.9201,2.941,2.9141,2.7509,2.8427,2.8997,2.7,2.7506,2.8599,2.9455,2.8581,2.7539,2.7119,2.7412,0.0,2.7685,2.9143,2.9713,2.8388,2.9135,2.8992,2.7172,2.625,2.5742,2.5723,2.4883,2.4394,2.4394,2.4004,2.3594,2.3164,2.1914,2.084,1.9951,0.0,0.0,0.0,0.0,0.0,0.0,0.0,0.0,0.0,0.0,0.0,0.0,0.0,0.0,0.0,0.0,0.0,0.0,0.0,0.0,0.0,0.0,1.9415,2.194,2.7194,3.2227,3.5976,3.8831,4.1267,4.309,4.3314,4.3127,4.2637,4.1691,4.0641,3.9488,3.855,3.8063,3.8063,3.9544,3.9179,3.6743,3.8212,3.7512,3.4736,3.4736,3.4526,3.408,3.4526,3.5508,3.6918,3.7358,3.769,3.8125,3.8125,3.8125,3.823,3.9471,4.0698,4.1998,4.3062,4.3849,4.4003,4.1944,3.8691,3.456,3.0084,2.6483,2.3337,2.0368,1.9506,1.9863,2.141,2.3163,2.4803,2.6313,2.6814,2.7195,2.8291,2.867,2.8941,2.9678,2.9075,2.8468,2.9051,2.823,2.7715,2.8532,2.8423,2.8076,2.7959,2.8047,0.0,2.8125,2.8522,2.8698,2.8291,2.8493,2.8351,2.7519,2.6709,2.5937,2.5293,2.4443,2.3965,2.3965,2.3857,2.373,2.3613,2.2656,2.1738,0.0,0.0,0.0,0.0,0.0,0.0,0.0,0.0,0.0,0.0,0.0,0.0,0.0,0.0,0.0,0.0,0.0,0.0,0.0,0.0,0.0,0.0,2.0262,2.3602,2.7403,3.1205,3.5073,3.936,4.2727,4.547,4.7538,4.7949,4.8105,4.8025,4.6528,4.5375,4.4863,4.3036,4.2141,4.248,4.3229,4.2724,4.0722,4.135,4.022,3.7476,3.6886,3.615,3.5288,3.5288,3.6054,3.7465,3.7465,3.7465,3.7465,3.7465,3.7133,0.0,0.0,0.0,0.0,0.0,4.3122,4.2517,4.107,3.8209,3.446,2.9735,2.5512,2.1728,1.8448,1.7468,1.7591,1.8575,2.0637,2.2834,2.3668,2.5008,2.6219,2.7194,2.8426,2.9285,2.892,2.8373,2.7912,2.7264,2.7294,0.0,2.7807,2.8228,2.8496,2.832,2.8291,2.8291,2.8291,2.8291,2.8291,2.8291,2.8291,2.8125,2.7695,2.6885,0.0,0.0,0.0,2.4053,2.4053,2.4053,0.0,0.0,0.0,0.0,0.0,0.0,0.0,0.0,2.0458,1.9974,0.0,0.0,0.0,0.0,0.0,0.0,0.0,0.0,0.0,0.0,0.0,0.0,0.0,0.0,0.0,0.0,2.6051,3.0249,3.451,3.6031,3.7971,4.1183,4.5334,4.8577,5.0177,5.1148,5.2041,5.2772,5.1021,5.0133,5.0778,0.0,0.0,0.0,0.0,4.5958,4.5706,4.4569,4.294,4.095,3.9554,3.7951,3.6191,3.5995,3.6661,3.7976,3.7916,3.7667,3.7334,3.7275,3.6487,3.5398,3.6918,3.9225,4.169,4.2834,4.2544,4.1379,4.0146,0.0,0.0,2.9958,2.5101,2.044,1.7156,1.6172,1.6172,1.6172,1.8506,2.1109,2.1109,2.3427,2.5741,2.5976,2.8426,2.9903,2.7082,2.7563,2.7475,2.4385,2.5999,2.7777,2.7495,2.8248,2.8867,2.8496,2.8398,2.8359,2.8359,2.832,2.8291,2.8291,0.0,0.0,2.7773,2.7002,2.6514,2.6465,2.5312,2.4639,2.4639,2.4687,2.4687,2.4639,2.4639,2.4609,2.457,2.541,2.5004,2.3611,2.2399,2.1781,0.0,0.0,0.0,0.0,0.0,0.0,0.0,0.0,0.0,0.0,0.0,0.0,0.0,0.0,0.0,3.1474,3.4049,3.7144,4.0965,4.3317,4.471,4.505,4.7493,5.0025,5.2263,5.2892,5.3448,5.4138,5.2483,5.1392,5.1261,4.9874,4.8986,4.8864,4.9153,4.8594,4.7085,4.7284,4.6406,4.4484,0.0,0.0,4.1787,4.0714,4.0335,4.0537,4.0103,3.8563,3.6294,3.5886,3.5508,3.5398,3.6918,3.9225,4.1604,4.1887,4.1789,4.1591,4.1267,3.8644,3.4681,3.1177,2.6772,2.2245,1.8969,1.7988,0.0,1.7988,1.9546,2.1109,2.1109,2.2584,2.4417,2.5741,2.7443,2.9039,2.9776,2.9157,2.8646,2.9192,2.8801,2.8537,2.9441,2.9492,2.9414,2.9336,2.9023,2.8799,2.8799,2.8506,2.8291,2.8291,2.8291,2.8262,2.8174,2.7705,2.7266,2.6914,2.6338,2.6006,2.6006,2.6328,2.6348,2.6016,2.6006,2.583,2.5488,2.6006,2.6112,2.5826,2.4766,2.3618,0.0,0.0,0.0,0.0,0.0,0.0,0.0,0.0,0.0,0.0,0.0,3.473,0.0,0.0,3.6688,3.9234,4.107,4.3448,4.7029,4.9001,4.9443,4.7683,4.8903,5.0741,5.291,5.3196,5.3628,5.4337,5.3517,5.2815,5.2519,5.1426,5.0559,5.0032,4.9784,4.9245,4.8322,4.7913,4.7462,4.6854,4.5555,4.4699,4.4414,4.3717,4.3022,4.2291,4.1724,3.9848,3.7095,3.5832,3.5288,3.5508,3.7594,3.9315,4.0642,4.0642,4.0642,4.0528,3.9764,3.7736,3.4692,3.0623,2.6585,2.2762,1.9484,1.8506,1.8506,1.8506,1.9807,2.1229,2.2097,2.3559,2.5261,2.6832,2.8426,2.9648,2.9648,2.903,2.8417,2.8426,2.8426,2.8601,2.9231,2.9882,3.0078,2.9639,2.9199,2.8916,2.8916,2.8555,2.8291,2.8291,2.8291,2.8291,2.8291,2.791,2.748,2.7041,2.6816,2.6699,2.6699,2.6904,2.6914,2.6709,2.6699,2.6592,2.6377,2.6816,2.7031,2.7041,2.7008,2.6421,0.0,0.0,0.0,0.0,0.0,0.0,0.0,0.0,3.5969,3.6922,3.9093,4.0819,4.0857,4.2057,4.3838,4.6224,4.7815,4.9742,5.2743,5.3842,5.3372,5.0856,5.0648,5.1222,5.2466,5.2604,5.2826,5.3451,5.3466,5.339,5.3079,5.223,5.1435,5.0481,4.9674,4.9049,4.8752,4.7923,4.7871,4.8495,4.7391,4.6628,4.6252,4.5942,4.5157,4.401,4.2884,4.0844,3.8093,3.615,3.5595,3.6322,3.8558,3.9791,4.0364,4.0173,4.0083,3.9853,3.8453,3.6823,3.4582,3.0431,2.6747,2.3409,2.0371,1.9273,1.9024,1.9024,2.0316,2.1846,2.3201,2.5024,2.6832,2.8051,2.9658,3.0518,2.9157,2.8911,2.8545,2.7202,2.8051,2.8911,2.8911,3.002,3.0644,2.9932,2.9453,2.917,2.917,2.873,2.8418,2.8418,2.834,2.8291,2.8291,2.7988,2.7637,2.7285,2.7266,2.7266,2.7266,2.7266,2.7266,2.7266,2.7266,2.7305,2.7383,2.7744,2.7949,2.8047,2.873,2.8818,-0.2351,0.9369,2.0286,2.5729,2.957,3.3228,0.0,0.0,4.1272,4.2976,4.4688,4.611,4.6859,4.8681,5.0653,5.2518,5.4709,5.6611,5.7766,5.7939,5.7622,5.6891,5.398,5.1672,5.0758,5.0671,5.0731,5.0849,5.1375,5.155,5.11,5.1506,5.1031,4.9397,4.9245,4.8638,4.7299,4.8439,4.902,4.9061,4.8948,4.8807,4.8735,4.7511,4.6799,4.6524,4.2892,4.0182,3.8093,3.615,3.6729,3.8972,3.9268,4.0937,4.293,4.1789,4.1406,4.1219,3.9853,3.7595,3.4924,3.2959,2.9268,2.5351,2.3544,2.1957,2.0849,2.0849,2.1964,2.3325,2.3574,2.5879,2.817,2.8417,2.9658,3.0889,3.0645,3.0635,3.0528,3.0401,3.0518,3.0635,3.0635,3.0762,3.0859,3.0762,3.0351,3.0049,3.0049,2.9346,2.8848,2.8848,2.8516,2.8291,2.8291,2.8252,2.8203,2.8154,2.8144,2.8144,2.8144,2.8144,2.8144,2.8144,2.8144,2.833,2.8711,2.875,2.8975,2.9355,2.9453,2.9258,0.5783,1.603,2.4176,0.0,3.4091,3.7234,4.0626,4.1721,4.2543,4.449,4.6445,4.8229,4.9556,5.2096,5.4572,0.0,5.7994,5.9363,6.0312,6.0337,5.9441,5.7303,5.426,5.1566,4.9673,5.0045,4.9442,4.7228,4.9517,5.0729,4.9965,5.0909,5.0747,4.9245,4.8439,4.8125,4.8339,4.8125,4.8752,5.0383,5.1065,5.1314,5.1406,5.1455,5.046,4.8548,4.5107,4.2498,4.0565,4.0236,4.0271,4.0608,4.2258,4.3596,4.4442,4.3218,4.2266,4.1392,4.0033,3.7712,3.4924,3.2334,2.8982,2.5741,2.4054,2.2466,2.1109,2.1109,2.2341,2.3814,2.4778,2.6712,2.8664,2.9648,3.0392,3.0889,3.0889,3.0889,3.0889,3.0889,3.0889,3.0889,3.0889,3.0889,3.0889,3.0889,3.0498,3.0195,3.0195,2.9443,2.8828,2.8584,2.8398,2.8291,2.8291,2.8291,2.8291,2.8291,2.8291,2.795,2.706,2.7843,2.795,2.7051,2.8074,2.874,2.8916,3.0017,3.0666,3.086,3.1115,3.1125,1.0997,1.9629,0.0,3.3268,3.7265,4.0025,4.2208,4.2675,4.3161,4.4923,4.6948,4.8918,5.07,5.3476,5.6128,5.8026,5.9319,6.0447,6.1444,6.1159,5.9788,5.6992,5.4328,5.1374,4.7883,4.8097,4.7356,4.4586,4.7465,4.9164,4.8756,5.0001,5.0191,4.9259,4.8225,4.8024,4.8638,4.8024,4.8822,5.1109,5.2274,5.3077,5.3412,5.4253,5.3161,5.0502,4.794,4.5754,4.4001,4.3926,4.3499,4.3064,4.5049,4.6064,4.6256,4.5302,4.3732,4.1959,4.0462,3.798,3.4947,3.2612,2.9489,2.647,2.5269,2.3807,2.2452,2.2452,2.3683,2.5146,2.6349,2.7811,2.9403,3.0645,3.0889,3.0889,3.0889,3.0889,3.0889,3.0889,3.0889,3.0889,3.0889,3.0889,3.0889,3.0889,3.0605,3.0391,3.0391,2.9736,2.9111,2.8691,2.8535,2.8467,2.8467,2.8359,2.8291,2.8291,2.8291,2.7843,2.6717,2.7399,2.7455,2.6874,2.7852,2.891,2.9909,3.1298,3.2064,3.2201,3.2416,3.235,0.9697,0.0,2.6279,3.328,3.7698,4.0818,4.2587,4.3284,4.39,4.5059,4.666,4.8433,5.0447,5.2702,5.4957,5.7086,5.8769,6.0152,6.1167,6.0087,5.8623,5.7155,5.4997,5.1172,0.0,4.3906,4.3665,4.3571,4.4706,4.6083,4.7384,4.8567,4.9259,4.9161,4.9161,4.8539,4.7197,4.8439,4.9659,5.0855,5.2198,5.3498,5.4589,5.4589,5.384,5.2317,5.0986,4.9591,4.812,4.5837,4.5697,4.6733,4.6834,4.7607,4.8661,4.8646,4.6432,4.3218,4.1972,3.876,3.5288,3.5178,3.2074,2.8298,2.8298,2.7073,2.5855,2.5855,2.6953,2.8298,2.8298,2.953,3.0889,3.0889,3.0889,3.0889,3.0889,3.0889,3.0889,3.0889,3.0889,3.0889,3.0889,3.0889,3.0889,3.0889,3.0879,3.0869,3.0869,3.0449,3.0,2.957,2.915,2.8896,2.8896,2.8525,2.8291,2.8291,2.8291,2.8291,2.8291,2.7114,2.7318,2.8787,2.7715,2.887,3.2332,3.2343,3.2584,3.3035,3.3046,3.2291,0.7112,0.0,2.3141,3.0139,3.5742,4.0195,4.2712,4.2315,4.1742,4.2943,4.4064,4.5254,4.6742,5.0406,5.3622,5.4879,5.6546,5.8317,6.0114,5.7872,5.5486,5.3922,5.1149,0.0,0.0,0.0,0.0,4.0997,4.3557,4.5888,4.7275,4.8567,4.9567,5.0493,4.9664,4.9357,4.9776,5.0125,5.0915,5.2183,5.4174,5.5949,5.7521,5.688,5.6563,5.6436,5.3798,5.2407,5.1758,4.9546,4.8409,4.8156,4.8156,4.7981,4.7834,4.7834,4.5989,4.3409,4.3026,4.0095,3.6444,3.5583,3.2199,2.8417,2.8417,2.7323,2.5976,2.5976,2.7194,2.8417,2.8417,2.9648,3.0889,3.0889,3.0889,3.0889,3.0889,3.0889,3.0889,3.0889,3.0889,3.0889,3.0889,3.0889,3.0889,3.0889,3.0889,3.0781,3.0469,3.0293,3.0039,2.9619,2.9443,2.9346,2.9346,2.9219,2.9141,2.9141,2.9141,2.868,2.7651,2.72,2.716,2.7846,2.7664,2.9174,3.2374,3.3679,3.4901,3.6042,3.5057,3.4847,0.2891,0.9479,1.6845,2.5407,3.1924,3.7244,4.1241,4.1612,4.144,4.2375,4.2955,4.3703,4.5021,4.8035,5.0794,5.2241,5.3962,5.5748,5.7548,5.5343,5.2905,5.1158,4.8232,4.5206,0.0,0.0,0.0,3.9778,4.22,4.4515,4.5888,4.756,4.9049,5.0397,5.0514,5.0971,5.1804,5.2062,5.2931,5.4594,5.6398,5.8075,5.9556,5.8838,5.8819,5.9142,5.6747,5.5395,5.4686,5.2179,5.0525,4.9296,4.8419,4.7698,4.7073,4.6695,4.5454,4.3957,4.3665,4.0485,3.6348,3.5583,3.2571,2.9285,2.9285,2.8545,2.7692,2.7692,2.8545,2.9285,2.9285,3.0147,3.0889,3.0889,3.0889,3.0889,3.0889,3.0889,3.0889,3.0889,3.0889,3.0889,3.0889,3.0889,3.0889,3.0889,3.0889,3.0781,3.0488,3.0449,3.0342,3.0068,2.9893,2.9795,2.9795,2.9658,2.957,2.957,2.957,2.9103,2.8173,2.7619,2.7691,2.8273,2.8082,2.9536,3.2626,3.4472,3.5836,3.6703,3.6271,3.6271,-0.2524,0.1409,0.7841,1.8949,2.6049,3.189,3.7849,4.0716,4.2285,4.2912,4.3017,4.3434,0.0,0.0,4.6826,4.9277,5.1197,5.2735,5.3833,5.2614,5.096,0.0,0.0,0.0,0.0,0.0,0.0,3.9966,0.0,4.1945,4.3359,4.5758,4.7721,4.9161,5.1591,5.29,5.29,5.4068,5.5696,5.7582,5.8634,5.9574,6.0476,6.0476,6.0476,6.0484,5.9608,5.8387,5.6755,5.3861,5.1752,5.0055,4.7783,4.6834,4.6575,4.5341,4.4862,4.471,4.3704,3.9906,3.5387,3.5288,3.3314,3.0889,3.0889,3.0889,3.0889,3.0889,3.0889,3.0889,3.0889,3.0889,3.0889,3.0889,3.0889,3.0889,3.0889,3.0889,3.0889,3.0889,3.0889,3.0889,3.0889,3.1005,3.1005,3.1005,3.1112,3.1112,3.0889,3.0889,3.0889,3.0889,3.0498,3.0234,3.0234,2.9863,2.9639,2.9639,2.9639,2.9639,2.9639,2.8496,2.8575,3.0234,2.9071,3.0043,3.3191,3.4626,3.5409,3.5519,3.6918,3.6811,-0.5251,-0.2786,0.1149,0.776,1.5452,2.2899,2.8683,3.2053,3.4828,3.7792,3.8599,3.8972,0.0,0.0,0.0,4.669,4.9078,0.0,5.309,5.1173,0.0,4.8388,0.0,4.4852,4.3905,4.3779,0.0,0.0,4.1779,4.2111,4.394,4.5975,4.7721,4.9161,5.1591,5.29,5.29,5.4806,5.6737,5.872,5.8959,5.9861,6.1304,6.1304,6.1604,6.2075,5.9567,5.8231,5.7535,5.3683,5.0838,4.8885,4.7416,4.5903,4.4358,4.3985,4.3312,4.2477,4.2155,3.9715,3.654,3.5583,3.3314,3.0889,3.0889,3.0889,3.0889,3.0889,3.0889,3.0889,3.0889,3.0889,3.0889,3.0889,3.0889,3.0889,3.0889,3.0889,3.0889,3.0889,3.0889,3.0889,3.0889,3.1767,3.253,3.253,3.3417,3.3427,3.1228,3.0889,3.0889,3.0889,3.0781,3.0713,3.0713,3.0615,3.0557,3.0557,3.0557,3.0557,3.0557,2.9071,2.9,3.0713,2.922,3.049,3.4736,3.5079,3.6391,3.8582,3.7808,3.7914,-0.9124,-0.8547,-0.5954,0.0402,0.773,1.5403,2.2976,2.7736,3.1525,3.4905,3.6245,0.0,3.7461,4.041,0.0,0.0,0.0,0.0,4.985,4.8891,4.7714,0.0,4.6241,0.0,4.5256,4.5444,4.5579,0.0,4.3636,4.2844,4.3261,4.5142,4.6591,4.7299,5.0351,5.2776,5.4305,5.6047,5.7656,5.9111,5.9111,5.9988,6.1586,6.1586,6.1661,6.1707,0.0,5.8149,5.6241,5.2836,4.9992,4.7608,4.5399,4.377,4.2641,4.2084,4.1406,4.0743,4.0743,3.8864,3.6252,3.5485,3.3754,3.1767,3.1112,3.0889,3.0995,3.1652,3.1883,3.1988,3.2654,3.2882,3.2882,3.2882,3.2322,3.1883,3.1883,3.1334,3.0889,3.0889,3.0889,3.0889,3.0889,3.2092,3.3077,3.3077,3.4403,3.4748,3.2985,3.2322,3.1883,3.1883,3.1334,3.0889,3.0889,3.0889,3.0889,3.0889,3.1556,3.1883,3.1883,3.1014,3.0888,3.1883,3.0888,3.1772,3.4303,3.5606,3.7145,3.8687,3.857,3.8908,-1.2422,-1.3488,-1.1879,-0.4658,0.1838,0.8831,1.8124,2.4362,2.9033,3.2109,0.0,3.5278,3.5625,3.6891,3.8504,4.0467,0.0,4.3707,4.5815,4.6316,4.6399,4.5885,4.6264,4.6722,4.6961,4.7409,4.7896,4.8333,4.6183,4.419,4.2671,4.4167,4.5236,4.5713,4.9209,5.2653,5.5952,5.6963,5.7836,5.8634,5.8634,5.9581,6.1214,6.1106,6.0711,6.012,5.9793,5.7438,5.3629,5.128,4.8748,4.6094,4.2835,4.1505,4.1219,4.007,3.9697,3.9697,3.9697,3.8031,3.5836,3.5409,3.4191,3.253,3.1334,3.0995,3.1441,3.2747,3.3293,3.3744,3.4958,3.5288,3.5288,3.5288,3.4292,3.3406,3.3406,3.2207,3.1218,3.1218,3.0995,3.0889,3.0889,3.2322,3.3406,3.3406,3.4847,3.5847,3.5847,3.4292,3.3077,3.3077,3.1767,3.0889,3.0889,3.0889,3.0889,3.0889,3.2311,3.3077,3.3077,3.3293,3.3406,3.3406,3.3406,3.3519,3.3733,3.6259,3.7571,3.7796,3.9129,3.9697,-1.0164,-1.1458,-1.1623,-0.9194,-0.3688,0.2515,0.8102,1.4158,0.0,0.0,2.7393,2.9186,2.846,3.1276,3.4262,3.6206,0.0,0.0,0.0,0.0,4.5486,0.0,0.0,0.0,0.0,0.0,0.0,0.0,0.0,4.7249,4.4689,4.4781,4.6496,4.9677,5.1592,5.3278,5.4822,5.5084,5.56,5.6395,5.6395,5.7378,5.9155,5.8544,5.8241,5.8066,5.618,0.0,5.1205,4.8651,4.6065,4.364,4.2185,4.0932,3.9981,3.9788,3.9697,3.9697,3.9697,3.9362,3.8477,3.6065,3.3427,3.1218,3.1005,3.1767,3.2747,3.3077,3.3957,3.4958,3.5189,3.5288,3.5288,3.5288,3.5068,3.4958,3.4958,3.3744,3.2747,3.2747,3.1767,3.0889,3.0889,3.3088,3.4958,3.4958,3.7156,3.8921,3.8921,3.5497,3.3077,3.3077,3.1767,3.0889,3.0889,3.0889,3.0889,3.0889,3.2311,3.3077,3.3077,3.4292,3.4958,3.4958,3.4958,3.5497,3.6703,3.7252,3.8137,3.9362,3.9581,3.9697,-0.6412,-0.8297,-1.0431,-0.8368,-0.502,-0.0769,0.448,0.0,0.0,0.0,2.1289,2.3352,2.3418,2.4755,0.0,2.874,0.0,0.0,0.0,0.0,0.0,0.0,0.0,0.0,0.0,0.0,0.0,0.0,0.0,4.7923,4.5142,4.5048,4.6537,4.9904,5.1116,5.2421,5.3742,5.3616,5.354,5.3645,5.3613,5.4157,5.5214,5.5491,5.5431,5.5024,5.3219,5.1081,4.8569,4.5962,4.3882,4.2215,4.108,4.0275,3.9697,3.9697,3.9697,3.9697,3.9697,3.9245,3.8348,3.6918,3.4958,3.2871,3.1334,3.1872,3.3293,3.408,3.5288,3.6595,3.7382,3.7595,3.7595,3.7595,3.7037,3.6271,3.5508,3.4181,3.3077,3.3077,3.1872,3.0889,3.0889,3.2758,3.4403,3.5178,3.7156,3.8804,3.9581,3.6499,3.4292,3.4292,3.2217,3.0889,3.0889,3.0889,3.0889,3.0889,3.2975,3.4292,3.4292,3.5606,3.6487,3.6487,3.6487,3.6811,3.7465,3.8243,3.9025,3.9697,3.9697,3.9697,-0.4025,-0.5718,-0.8146,-0.608,-0.4379,-0.1959,0.2711,0.6099,0.0,0.0,1.5726,1.7987,1.8629,0.0,1.9193,0.0,2.2389,0.0,0.0,0.0,0.0,0.0,0.0,0.0,0.0,0.0,0.0,0.0,0.0,0.0,4.5542,4.5767,4.6888,4.9161,5.0555,5.1683,5.2575,5.2471,5.192,5.0958,5.0774,5.0669,5.0875,5.1709,5.1827,5.1218,5.0089,4.811,4.5592,4.3603,4.2105,4.1132,4.007,3.9697,3.9697,3.9697,3.9697,3.9697,3.9697,3.8908,3.7914,3.7571,3.6271,3.4414,3.2436,3.2654,3.3856,3.5398,3.6811,3.8243,3.9362,3.9697,3.9697,3.9697,3.8792,3.769,3.6499,3.5057,3.3957,3.362,3.2426,3.1218,3.1005,3.2092,3.3631,3.5068,3.6595,3.8019,3.9478,3.737,3.5727,3.5727,3.2871,3.0889,3.0889,3.0889,3.0995,3.1325,3.3866,3.5398,3.5727,3.7145,3.8019,3.8019,3.8019,3.8019,3.8019,3.9129,3.9697,3.9697,3.9697,3.9697,-0.5686,-0.5109,-0.451,-0.4212,-0.2302,-0.0297,0.019,0.0,0.0,0.7565,1.0803,1.3431,1.2853,1.3754,1.5425,0.0,0.0,1.8306,0.0,0.0,0.0,0.0,0.0,0.0,0.0,0.0,0.0,0.0,0.0,0.0,4.6936,4.8125,4.895,4.9161,5.1484,5.229,5.1386,5.1766,5.0818,4.8646,4.8065,4.7707,4.7478,4.6985,4.6678,4.6665,4.5916,4.4202,0.0,4.1847,4.1006,3.989,3.9788,3.9697,3.9697,3.9697,3.9697,3.9697,3.9697,3.9581,3.9245,3.7914,3.5595,3.3519,3.4515,3.4969,3.5398,3.6918,3.836,3.9581,3.9685,3.9697,3.9697,3.9697,3.9581,3.9465,3.9362,3.8137,3.6703,3.5398,3.3968,3.2416,3.1112,3.2092,3.3631,3.5068,3.6595,3.8019,3.9478,3.8243,3.7252,3.7252,3.3417,3.0889,3.0889,3.0889,3.1431,3.2861,3.4403,3.5945,3.7252,3.8687,3.9478,3.9478,3.9478,3.9478,3.9478,3.9581,3.9697,3.9697,3.9697,3.9697,0.1477,0.1096,0.0,0.1594,0.2189,0.2758,0.4082,0.0,0.5906,0.58,0.7116,0.815,0.7879,0.7792,0.8288,1.0177,1.1248,1.3335,1.7705,0.0,0.0,0.0,0.0,0.0,0.0,0.0,0.0,0.0,0.0,0.0,4.609,4.6865,4.7943,4.9147,4.9816,4.9814,4.9413,4.9178,4.8062,4.5997,4.5661,4.4912,4.378,4.4311,4.4467,4.4453,4.3448,0.0,0.0,4.0743,4.0173,3.9697,3.9697,3.9697,3.9697,3.9697,3.9697,3.9697,3.9697,3.9697,3.9581,3.9025,3.7477,3.5715,3.5398,3.5945,3.6703,3.7358,3.8582,3.9697,3.9697,3.9697,3.9697,3.9697,3.9697,3.9697,3.9697,3.857,3.7358,3.6703,3.4725,3.2861,3.2311,3.1988,3.254,3.4958,3.5836,3.7049,3.9362,3.8465,3.7465,3.7465,3.5178,3.354,3.354,3.354,3.3754,3.4403,3.5836,3.693,3.7465,3.8908,3.9697,3.9697,4.0453,4.0844,4.0844,4.0844,4.0844,4.0844,4.0083,3.9873,0.6128,0.5544,0.4276,0.6538,0.7202,0.7243,0.0,0.7312,0.6385,0.4032,0.3278,0.3073,0.2972,0.2686,0.3209,0.5313,0.766,1.0202,1.3038,1.9411,0.0,0.0,0.0,0.0,0.0,0.0,0.0,0.0,0.0,0.0,4.3854,4.3766,4.4888,4.7376,4.7289,4.7062,4.6743,4.6809,4.5917,4.3914,4.3639,4.2668,4.1032,4.1985,4.2363,4.2363,4.1406,4.1032,0.0,4.0083,3.9697,3.9697,3.9697,3.9697,3.9697,3.9697,3.9697,3.9697,3.9697,3.9697,3.9697,3.9697,3.9025,3.7914,3.693,3.7037,3.7571,3.8019,3.8908,3.9697,3.9697,3.9697,3.9697,3.9697,3.9697,3.9697,3.9697,3.8908,3.8019,3.7571,3.5813,3.417,3.3293,3.2207,3.2436,3.4969,3.5288,3.6391,3.9362,3.8804,3.8137,3.8137,3.7263,3.6283,3.5398,3.5288,3.5508,3.5945,3.693,3.769,3.8137,3.9141,3.9697,3.9697,4.0554,4.1219,4.1604,4.1604,4.1789,4.2168,4.1219,4.1042,0.5477,0.6705,0.8098,0.9405,1.2218,1.3528,0.8737,0.9308,0.8789,0.1339,-0.0917,-0.1649,-0.1856,-0.0777,0.1422,0.5376,0.7152,0.9151,1.2382,1.605,0.0,0.0,0.0,0.0,0.0,0.0,0.0,0.0,0.0,0.0,4.0105,3.8892,3.9717,4.322,4.4368,4.4453,4.3336,4.5222,4.4916,4.265,4.1981,4.0932,3.9697,3.9697,3.9685,3.9685,0.0,0.0,0.0,3.9697,3.9697,3.9697,3.9697,3.9697,3.9697,3.9697,3.9697,3.9697,3.9697,3.9697,3.9697,3.9697,3.9697,3.9697,3.9697,3.8687,3.7796,3.9245,3.9697,3.9697,3.9697,3.9697,3.9697,3.9697,3.9697,3.9697,3.9697,3.9697,3.9245,3.7796,3.7465,3.6476,3.3631,3.3077,3.3631,3.5068,3.5288,3.6391,3.9362,3.9697,3.9697,3.9697,3.9697,3.8477,3.5519,3.5288,3.5945,3.7358,3.7465,3.8125,3.9581,3.9697,3.9697,3.9697,3.9697,4.0364,4.1604,4.1604,4.2266,4.3504,4.3504,4.3375,1.2206,1.362,1.5426,1.6861,1.8995,1.9752,1.6032,1.3901,1.0936,0.4737,0.0683,-0.2057,-0.2887,-0.0705,0.2068,0.4628,0.8248,0.0,0.0,0.0,0.0,0.0,0.0,0.0,0.0,0.0,0.0,0.0,0.0,0.0,3.6762,3.54,3.639,4.0211,4.0202,4.0015,3.9705,4.0769,4.0524,3.8884,3.8711,3.7968,3.6715,3.7701,3.8243,0.0,0.0,0.0,3.9697,3.9697,3.9697,3.9697,3.9697,3.9697,3.9697,3.9697,3.9697,3.9697,3.9697,3.9697,3.9697,3.9697,3.9697,3.9697,3.9697,3.9362,3.9129,3.9581,3.9697,3.9697,3.9697,3.9697,3.9697,3.9697,3.9697,3.9697,3.9697,3.9697,3.9581,3.9129,3.8243,3.6918,3.4958,3.4626,3.4736,3.5189,3.6162,3.7477,3.9465,3.9697,3.9697,3.9697,3.9697,3.9362,3.8372,3.8267,3.8477,3.9025,3.9013,3.9245,3.9685,3.9697,3.9697,3.9697,4.1406,4.2461,4.293,4.3787,4.3711,4.2784,4.3072,4.2995,0.0,1.889,2.0659,2.232,2.4241,2.4813,2.1105,1.8096,1.4319,0.7833,0.1919,-0.2208,-0.2809,-0.1769,0.027,0.387,0.7429,0.0,0.0,0.0,0.0,0.0,0.0,0.0,0.0,0.0,0.0,0.0,0.0,0.0,3.2654,3.2385,3.3412,3.5904,3.607,3.6132,3.6132,3.7145,3.7309,3.6444,3.6444,3.6059,3.53,3.6271,3.6918,0.0,0.0,3.9141,0.0,3.9697,3.9697,3.9697,3.9697,3.9697,3.9697,3.9697,3.9697,3.9697,3.9697,3.9697,3.9697,3.9697,3.9697,3.9697,3.9697,3.9697,3.9697,3.9697,3.9697,3.9697,3.9697,3.9697,3.9697,3.9697,3.9697,3.9697,3.9697,3.9697,3.9697,3.9697,3.8921,3.7808,3.6379,3.6162,3.6162,3.6162,3.6918,3.8019,3.9478,3.9697,3.9697,3.9697,3.9697,3.9697,3.9697,3.9697,3.9697,3.9697,3.9697,3.9697,3.9697,3.9697,3.9697,3.9697,4.1219,4.2558,4.3504,4.4734,4.486,4.383,4.3451,4.314,0.0,2.2686,2.4171,2.5897,2.8209,2.8909,2.4318,2.1869,0.0,1.0636,0.3142,-0.1871,-0.1722,-0.3429,-0.278,0.326,0.5378,0.0,0.0,1.3076,0.0,0.0,0.0,0.0,0.0,0.0,0.0,0.0,0.0,0.0,2.817,2.9658,3.0518,3.0518,3.1832,3.2727,3.2964,3.4303,3.4969,3.4969,3.4969,3.4969,3.4969,3.5068,3.5945,0.0,3.7465,3.8243,3.9581,3.9697,3.9697,3.9697,3.9697,3.9697,3.9697,3.9697,3.9697,3.9697,3.9697,3.9697,3.9697,3.9697,3.9697,3.9697,3.9697,3.9697,3.9697,3.9697,3.9697,3.9697,3.9697,3.9697,3.9697,3.9697,3.9788,3.989,3.989,3.9878,3.9981,3.989,3.989,3.9337,3.7796,3.7571,3.7583,3.7465,3.7571,3.8137,3.9478,3.9581,3.9581,3.9581,3.9581,3.9581,3.9581,3.9685,3.9697,3.9697,3.9697,3.9697,3.9697,3.9697,3.9697,3.9697,3.9788,4.1045,4.3559,4.4698,4.553,4.6001,4.4111,4.3494,2.6462,0.0,2.853,2.9478,3.1256,3.1765,0.0,2.4664,2.0546,1.3656,0.7013,0.1822,-0.0434,-0.0179,0.12,0.4069,0.0,0.0,1.2631,0.0,0.0,1.7982,0.0,0.0,0.0,0.0,0.0,0.0,0.0,2.5269,2.647,2.6961,2.7202,2.7202,2.7528,2.8865,3.1441,3.1777,3.1883,3.1883,3.1883,3.1883,3.1998,3.3088,3.3845,3.4281,3.6476,3.769,3.8125,3.9245,3.9697,3.9697,3.9697,3.9697,3.9697,3.9697,3.9697,3.9697,3.9697,3.9697,3.9697,3.9697,3.9697,3.9697,3.9697,3.9697,3.9697,3.9697,3.9697,3.9697,3.9697,3.9697,3.9697,3.9697,4.0465,4.1119,4.1119,4.1887,4.2363,4.1319,4.1119,4.0389,3.7878,3.8465,3.8804,3.769,3.8465,3.9362,3.9697,3.8687,3.8019,3.8019,3.8019,3.8019,3.8019,3.9025,3.9697,3.9697,3.9697,3.9697,3.9697,3.9697,3.9697,3.9697,4.0642,4.21,4.4084,4.4373,4.4537,4.4582,4.4122,4.3685,2.6411,2.9212,3.156,3.2436,3.3186,3.3045,3.0268,2.6601,2.2318,0.0,0.0,0.0,0.0,0.0,0.0,0.0,0.7153,0.0,0.0,0.0,0.0,0.0,0.0,0.0,0.0,0.0,0.0,0.0,0.0,2.3931,2.4893,2.5619,2.5976,2.5976,2.5976,2.6832,2.8673,2.9403,2.9776,2.9776,3.0518,3.0889,3.0889,3.1767,3.2426,3.3191,3.4836,3.6259,3.7571,3.8348,3.9129,3.9697,3.9697,3.9697,3.9697,3.9697,3.9697,3.9697,3.9697,3.9697,3.9697,3.9697,3.9697,3.9697,3.9697,3.9697,3.9581,3.8908,3.9141,3.9581,3.8908,3.9141,3.9697,3.9697,4.0275,4.0743,4.0743,4.1319,4.1505,4.0844,4.0743,4.0007,3.789,3.8137,3.8465,3.7583,3.8137,3.8687,3.8687,3.8019,3.7252,3.6595,3.6487,3.6811,3.7465,3.8243,3.9025,3.9697,3.9697,3.9697,3.9697,3.9697,3.9697,3.9697,4.1191,4.2445,4.3436,4.3706,4.3908,4.4085,4.3475,4.2701,2.4272,2.859,3.2584,3.3671,3.3628,3.2807,3.0989,0.0,0.0,0.0,0.0,0.0,0.0,0.5433,0.0,0.0,0.0,0.0,0.0,0.0,0.0,0.0,0.0,0.0,0.0,0.0,0.0,0.0,0.0,2.3208,2.3208,2.4532,2.5253,2.5253,2.5253,2.5253,2.5253,2.7073,2.8051,2.8051,2.9776,3.0518,3.0518,3.0762,3.1546,3.2747,0.0,0.0,3.6811,3.7026,3.7914,3.9037,3.9245,3.9362,3.9362,3.9581,3.9697,3.9697,3.9697,3.9697,3.9697,3.9697,3.9697,3.9697,3.9697,3.9697,3.9362,3.7914,3.836,3.9025,3.7583,3.8137,3.9141,3.9362,3.9556,3.975,3.9968,4.0173,4.0275,4.0083,3.9981,3.9428,3.7796,3.7465,3.7465,3.7252,3.7133,3.7133,3.7133,3.6918,3.6368,3.5068,3.4958,3.5508,3.6692,3.7026,3.7796,3.9245,3.9581,3.9697,3.9697,3.9697,3.9735,3.9823,4.135,4.216,4.233,4.2827,4.335,4.3912,4.2549,4.147,2.3916,2.638,2.8714,3.0193,3.0704,3.0273,2.8194,0.0,0.0,0.0,0.0,0.0,0.0,0.7674,0.6769,0.0,0.0,0.0,0.0,0.0,0.0,0.0,0.0,0.0,0.0,0.0,0.0,0.0,0.0,2.1481,2.1481,2.172,2.1846,2.1846,2.1846,2.1846,2.1846,2.4885,2.634,2.634,2.8051,2.8783,2.8792,3.0265,3.0995,3.1334,0.0,3.3406,3.3845,3.5068,3.5727,3.6054,3.7358,3.7796,3.8019,3.9245,3.9697,3.9697,3.9697,3.9697,3.9697,3.9697,3.9697,3.9697,3.9697,3.9697,3.9362,3.7914,3.769,3.7465,3.6054,3.5847,3.6283,3.7583,3.8669,3.9753,4.1093,4.2168,4.2641,4.1505,4.1319,4.0477,3.7983,3.7465,3.7037,3.5836,3.5617,3.5617,3.5617,3.4515,3.3733,3.3406,3.3406,3.3519,3.3733,3.4947,3.6271,3.769,3.9025,3.9697,3.9697,3.9697,3.991,4.0388,4.0673,4.1271,4.2207,4.2296,4.2612,4.3156,4.1537,4.0751,1.9344,2.1168,2.2795,2.3536,2.6065,2.7958,2.6583,2.3385,0.0,0.0,0.0,0.0,0.0,0.0,0.0,0.0,0.0,0.0,0.0,0.0,0.0,0.0,0.0,0.0,0.0,0.0,0.0,0.0,0.0,0.0,2.1109,2.1109,2.1109,2.1109,2.1109,2.1109,2.1109,2.2577,2.3799,2.4778,2.6349,2.7073,2.7073,2.7931,2.8307,2.8298,0.0,3.0219,3.1846,3.2509,3.377,3.5398,3.6054,3.6271,3.6379,3.7049,3.7275,3.7489,3.8243,3.8465,3.8687,3.9465,3.9697,3.9697,3.9697,3.9697,3.9362,3.7914,3.7465,3.7145,3.5727,3.5288,3.5508,3.6162,3.6752,3.757,3.9096,3.9803,4.0324,4.0528,4.0554,3.9699,3.6799,3.6271,3.5836,3.4292,3.4069,3.4069,3.4069,3.3519,3.2747,3.1988,3.1872,3.2197,3.3077,3.3744,3.5057,3.7358,3.8908,3.9697,3.9697,3.9986,4.0262,4.0513,4.1103,4.1643,4.2158,4.2446,4.2735,4.2974,4.1305,4.0117,1.3219,1.5113,1.6823,1.7081,0.0,2.4357,2.3871,2.0605,0.0,0.0,0.0,0.0,0.0,0.0,0.0,0.0,0.0,0.0,0.0,0.0,0.0,0.0,0.0,0.0,0.0,0.0,0.0,0.0,0.0,0.0,2.1109,2.1109,2.1109,2.1109,2.1109,2.1109,2.1109,2.1109,2.1727,2.3084,2.4655,2.5497,2.5497,2.5863,2.5976,2.5976,2.5976,2.7382,2.9479,2.9479,3.0981,3.3187,3.3514,3.3849,3.4183,3.4183,3.4183,3.4405,3.5854,3.6406,3.6752,3.857,3.9141,3.9245,3.9581,3.9697,3.9465,3.8348,3.7796,3.7145,3.5727,3.5068,3.4847,3.5189,3.5068,3.5277,3.7133,3.7465,3.7914,3.9362,3.9697,3.8921,3.6271,3.5508,3.4847,3.3293,3.2861,3.253,3.253,3.253,3.2207,3.0995,3.0889,3.1334,3.253,3.2851,3.4058,3.6368,3.7808,3.8699,3.8699,3.9092,3.9541,4.0133,4.1059,4.1741,4.2346,4.2773,4.2974,4.2974,4.1305,3.9768,0.638,0.9146,1.1952,1.2726,1.5344,0.0,1.8211,1.5555,0.0,1.6075,0.0,0.0,0.0,0.0,0.0,0.0,0.0,0.0,0.0,0.0,0.0,0.0,0.0,0.0,0.0,0.0,0.0,0.0,0.0,0.0,2.1109,2.1109,2.1109,2.1109,2.1109,2.1109,2.1109,2.1109,2.1109,2.1355,2.2959,2.3814,2.3814,2.5383,2.5976,2.5976,2.5976,2.6098,2.6332,2.6332,2.6444,2.679,2.8128,2.9571,3.0774,3.0774,3.0774,3.1023,3.2559,3.3152,3.3619,3.6633,3.769,3.7914,3.9245,3.9697,3.9697,3.9581,3.8582,3.7145,3.5727,3.4292,3.3631,3.4958,3.4292,3.4069,3.6918,3.7465,3.7914,3.9362,3.9697,3.9245,3.7583,3.6162,3.4847,3.3293,3.1872,3.1112,3.1112,3.1112,3.0995,3.0889,3.0889,3.0889,3.0995,3.2311,3.3191,3.3406,3.4847,3.5629,3.5629,3.5651,3.6778,3.9172,3.9268,4.0488,4.2924,4.2961,4.2974,4.2974,4.1305,3.9768,0.2884,0.4575,0.6521,0.852,0.936,0.0,0.0,1.3453,1.2449,1.3642,1.284,0.0,0.0,0.0,0.0,0.0,0.0,0.0,0.0,0.0,0.0,0.0,0.0,0.0,0.0,0.0,0.0,0.0,0.0,0.0,2.1109,2.1109,2.1109,2.1109,2.1109,2.1109,2.1109,2.1109,2.1109,2.1109,2.1727,2.2097,2.2097,2.2702,2.2937,2.2937,2.2937,2.3551,2.454,2.454,2.5138,2.6098,2.6652,2.721,2.7525,2.6474,2.6739,2.7745,2.8174,2.9012,3.0392,3.3619,3.4549,3.4901,3.6453,3.6942,3.6942,3.6942,3.6607,3.6162,3.6595,3.4836,3.3293,3.3856,3.2758,3.2322,3.4281,3.5497,3.6607,3.8031,3.9025,3.9245,3.7796,3.6271,3.4847,3.3293,3.1872,3.0889,3.0889,3.0889,3.0889,3.0889,3.0889,3.0889,3.0889,3.1441,3.1767,3.1767,3.3979,3.5288,3.5288,3.5591,3.6398,3.753,3.9007,4.023,4.1545,4.25,4.2974,4.2974,4.1305,4.0233,-0.0217,0.128,0.3005,0.5276,0.0,0.0,1.0543,1.1077,1.0927,1.2024,1.1986,0.0,0.0,0.0,0.0,0.0,0.0,0.0,0.0,0.0,0.0,0.0,0.0,0.0,0.0,0.0,0.0,0.0,0.0,0.0,0.0,2.1109,2.1109,2.1109,2.1109,2.1109,2.1109,2.1109,2.0849,2.0329,2.0329,2.0589,2.1109,2.0583,2.0589,2.1109,2.1109,2.1727,2.2834,2.2834,2.3435,2.4401,2.4401,2.4132,2.3484,2.231,2.231,2.293,2.3787,2.4883,2.6508,3.0142,3.1311,3.1673,3.3226,3.4061,3.4538,3.4538,3.4538,3.4759,3.5722,3.4194,3.2344,3.2344,3.0762,2.9738,3.1271,3.2746,3.4216,3.5734,3.7216,3.8031,3.693,3.5617,3.4292,3.3304,3.1872,3.0889,3.0889,3.0889,3.0889,3.0889,3.0889,3.0947,3.1074,3.0967,3.1006,3.1279,3.3059,3.4081,3.4081,3.4507,3.519,3.6158,3.8252,3.9738,4.0592,4.2263,4.2974,4.2974,4.1899,4.1076,-0.3291,-0.0764,0.1902,0.0,0.0,0.0,0.739,0.7933,0.8774,1.163,0.0,0.9819,0.8661,0.0,0.0,0.0,0.0,0.0,0.0,0.0,0.0,0.0,0.0,0.0,0.0,0.0,0.0,0.0,0.0,0.0,0.0,2.1109,2.1109,2.1109,2.1109,2.1109,2.1109,2.1109,2.0195,1.8506,1.8506,1.9413,2.0982,1.9285,1.9413,2.1109,2.1109,2.1109,2.1109,2.1109,2.1109,2.1109,2.1109,2.0068,1.8506,1.8506,1.7339,1.6421,1.9707,2.0969,2.1693,2.6525,2.8092,2.8428,2.9862,3.1489,3.2692,3.2692,3.2692,3.2692,3.2692,3.161,3.0529,3.0529,2.8199,2.6428,2.7881,2.9423,3.0962,3.2477,3.405,3.5288,3.5288,3.4069,3.3077,3.3077,3.1872,3.0889,3.0889,3.0889,3.0889,3.0889,3.0898,3.1064,3.1484,3.1143,3.126,3.2119,3.1758,3.1523,3.1523,3.1523,3.2605,3.5113,3.6791,3.856,4.0592,4.2263,4.2974,4.2974,4.2974,4.2137,-0.2126,-0.023,0.0,0.3411,0.0,0.0,0.0,0.8092,0.0,0.0,0.0,0.8683,0.7333,0.0,0.0,0.0,0.0,0.0,0.0,0.0,0.0,0.0,0.0,0.0,0.0,0.0,0.0,0.0,0.0,0.0,0.0,2.1109,2.1109,2.1109,2.1109,2.1109,2.1109,2.1109,2.0849,2.0329,1.7859,1.7602,1.9285,1.8768,1.9413,2.1109,2.1109,2.1109,2.1109,2.1109,2.1109,2.0976,1.9801,1.8896,1.8244,1.5784,1.5265,1.5913,1.5634,1.64,1.8058,2.1915,2.3148,2.3641,2.6464,2.7679,2.8036,2.8036,2.8036,2.8036,2.8036,2.6876,2.6161,2.8364,2.7467,2.6089,2.654,2.7798,2.9043,2.9483,3.0843,3.187,3.187,3.1516,3.1367,3.1367,3.1033,3.0889,3.0889,3.0889,3.0889,3.0889,3.1152,3.1377,3.1504,3.1689,3.1894,3.2148,3.2041,3.1973,3.1973,3.1973,3.246,3.3484,3.621,3.7977,3.8935,4.1659,4.2974,4.2974,4.2974,4.2737,0.023,0.153,0.0,0.4335,0.5298,0.6236,0.7766,0.0,0.0,0.0,0.0,0.0,0.0,0.0,0.0,0.0,0.0,0.0,0.0,0.0,0.0,0.0,0.0,0.0,0.0,0.0,0.0,0.0,0.0,0.0,0.0,2.1109,2.1109,2.1109,2.1109,2.1109,2.1109,2.1109,2.0716,2.0062,1.7988,1.7468,1.8506,1.7731,1.8378,2.0068,2.0849,2.1109,2.1109,2.1109,2.1109,2.0976,1.9158,1.8116,1.7082,1.4358,1.3582,1.384,1.3451,1.397,1.526,1.8058,1.8951,1.9327,2.1325,2.2959,2.397,2.397,2.4493,2.5016,2.5016,2.3799,2.3179,2.5781,2.4684,2.3244,2.39,2.4676,2.5577,2.6231,2.7626,2.8654,2.8654,2.8728,2.8783,2.8783,2.9465,2.9903,2.9903,3.0518,3.0957,3.1123,3.1367,3.166,3.1992,3.2109,3.2314,3.2646,3.251,3.249,3.2656,3.25,3.2617,3.3037,3.6252,3.7932,3.8223,4.1431,4.2974,4.2974,4.2974,4.2974,0.3041,0.0,0.0,0.5661,0.608,0.0,0.7971,0.8489,0.8733,0.8886,0.0,0.0,0.0,0.0,0.0,0.0,0.0,0.0,0.0,0.0,0.0,0.0,0.0,0.0,0.0,0.0,0.0,0.0,0.0,0.0,0.0,2.1069,2.1082,2.1109,2.1109,2.1109,2.1109,2.1109,2.0322,1.8768,1.8634,1.8506,1.8506,1.6824,1.7082,1.8768,2.0456,2.1109,2.1109,2.1109,2.1109,2.0849,1.9024,1.7339,1.5654,1.3709,1.2022,1.0982,1.2672,1.3325,1.3582,1.5265,1.5913,1.5913,1.5913,1.8064,2.0591,2.0724,2.1888,2.3193,2.3325,2.2223,2.1481,2.2959,2.1049,1.9158,2.0716,2.1042,2.1498,2.3062,2.4532,2.5489,2.5489,2.5733,2.5855,2.5976,2.7194,2.8307,2.8471,2.9832,3.0986,3.1533,3.1611,3.1943,3.2734,3.248,3.273,3.3611,3.3181,3.3142,3.365,3.3172,3.3152,3.365,3.666,3.8223,3.8461,4.1545,4.2974,4.2974,4.2974,4.2974,0.0,0.4183,0.0,0.0,0.6896,0.7844,0.8248,0.0,0.0,0.0,0.0,0.0,0.0,0.0,0.0,0.0,0.0,0.0,0.0,0.0,0.0,0.0,0.0,0.0,0.0,0.0,0.0,0.0,0.0,0.0,2.0755,2.0768,2.0875,2.1102,2.1109,2.1109,2.1109,2.1109,2.0849,2.0456,1.9158,1.8506,1.8506,1.8116,1.8896,2.0583,2.0976,2.1109,2.1109,2.1109,2.1109,2.0843,1.7725,1.6172,1.5524,1.2413,1.0979,1.0982,1.2672,1.3325,1.3582,1.5265,1.5913,1.5913,1.5913,1.6421,1.7317,1.8611,1.9261,1.9909,2.1335,2.1355,2.1235,2.1601,2.1096,2.0589,2.0982,2.1089,2.1209,2.1601,2.1964,2.2208,2.2208,2.3193,2.454,2.5863,2.634,2.7064,2.872,2.9258,3.0167,3.1861,3.2324,3.2598,3.2773,3.3018,3.3704,3.5191,3.4053,3.3928,3.5201,3.4053,3.3928,3.5201,3.7254,3.8817,4.0117,4.2024,4.2974,4.2974,4.2974,4.2974,0.0,0.0,0.0,0.0,0.0,0.0,0.0,0.0,0.0,0.0,0.0,0.0,0.0,0.0,0.0,0.0,0.0,0.0,0.0,0.0,0.0,0.0,0.0,0.0,0.0,0.0,0.0,0.0,0.0,2.0154,2.0448,2.0468,2.0535,2.0681,2.0828,2.0902,2.0902,2.1042,2.1109,2.1109,2.0195,1.9801,1.9674,1.8896,1.9413,2.1109,2.1109,2.1109,2.1109,2.1109,2.0589,1.9546,1.6953,1.5399,1.4358,1.1633,1.0721,1.0982,1.2672,1.3325,1.3451,1.4358,1.4619,1.4488,1.3713,1.397,1.5009,1.6824,1.7859,1.8896,2.0589,2.1109,2.1109,2.1109,2.0456,2.0068,2.0976,2.0456,2.0068,2.0976,2.1109,2.1109,2.1109,2.1846,2.2702,2.3551,2.4425,2.5458,2.6513,2.8184,2.9824,3.1133,3.2142,3.2871,3.3076,3.3301,3.4143,3.5683,3.4964,3.4974,3.5806,3.4964,3.4974,3.5806,3.7374,3.8935,4.0592,4.2263,4.2974,4.2974,4.2974,4.2974,0.0,0.0,0.0,0.0,0.0,0.0,0.0,0.0,0.0,0.0,0.0,0.0,0.0,0.0,0.0,0.0,0.0,0.0,0.0,0.0,0.0,0.0,0.0,0.0,0.0,0.0,0.0,0.0,0.0,1.9853,2.014,2.0154,2.018,2.0234,2.0474,2.0601,2.0601,2.0889,2.1036,2.1036,2.1082,2.1109,2.1109,1.9546,1.968,2.1109,2.1109,2.1109,2.1109,2.0722,1.9807,1.825,1.6307,1.4619,1.3062,1.1372,1.0721,1.0979,1.3062,1.3713,1.3844,1.4101,1.397,1.3451,1.1633,1.189,1.3325,1.5265,1.6953,1.8506,2.0589,2.1109,2.1109,2.1109,1.9941,1.9285,2.0843,1.9941,1.9413,2.0849,2.1109,2.1109,2.1109,2.1109,2.1109,2.1109,2.2434,2.3635,2.4,2.6758,2.9136,3.0248,3.1593,3.2652,3.3389,3.3418,3.4258,3.6051,3.5918,3.604,3.6649,3.6406,3.6284,3.6639,3.7615,3.917,4.1064,4.2375,4.2974,4.2974,4.2974,4.2974,0.0,0.0,0.0,0.0,0.0,0.0,0.0,0.0,0.0,0.0,0.0,0.0,0.0,0.0,0.0,0.0,0.0,0.0,0.0,0.0,0.0,0.0,0.0,0.0,0.0,0.0,0.0,0.0,1.7626,1.9553,1.9846,1.986,1.9973,2.0227,2.0267,2.0294,2.0294,2.0588,2.0735,2.0735,2.0989,2.1109,2.1109,2.0849,2.0849,2.1109,2.1109,2.1109,2.0976,1.9419,1.8762,1.8122,1.4879,1.3451,1.3062,1.1372,1.0721,1.1111,1.4362,1.5524,1.5789,1.7339,1.6818,1.5269,1.3451,1.2022,1.1762,1.5009,1.6043,1.6953,2.0202,2.1109,2.1109,2.1109,2.0976,2.0849,2.1109,2.0976,2.0849,2.1109,2.1109,2.1109,2.1109,2.1109,2.1109,2.1109,2.1262,2.2222,2.4267,2.4887,2.6689,3.0352,3.0956,3.1642,3.3282,3.3418,3.4622,3.7735,3.6528,3.7002,3.9873,3.8569,3.8569,3.9873,3.8817,3.9639,4.2737,4.2862,4.2974,4.2974,4.2974,4.2974,0.0,0.0,0.0,0.0,0.0,0.0,0.0,0.0,0.0,0.0,0.0,0.0,0.0,0.0,0.0,0.0,0.0,0.0,0.0,0.0,0.0,0.0,0.0,0.0,0.0,0.0,0.0,0.0,1.7578,1.9419,1.9553,1.9559,1.9619,1.974,1.9907,1.9993,1.9993,2.0281,2.0428,2.0428,2.0561,2.0191,1.9449,1.9449,2.0048,2.1109,2.1109,2.1109,2.0976,1.9158,1.7859,1.6824,1.4232,1.2672,1.1762,1.0979,1.0721,1.1111,1.3582,1.5139,1.5913,1.5659,1.5789,1.5399,1.2672,1.1372,1.1369,1.4879,1.5913,1.6689,2.0195,2.1109,2.1109,2.1109,2.1109,2.1109,2.1109,2.1109,2.1109,2.1109,2.1109,2.1109,2.1109,2.1109,2.1109,2.1109,2.139,2.1943,2.2972,2.4342,2.6238,2.904,3.0254,3.1561,3.3292,3.3418,3.4746,3.7985,3.7495,3.8201,4.0476,3.9884,3.9884,4.0592,3.9884,4.0707,4.2974,4.2974,4.2974,4.2974,4.2974,4.2974,0.0,0.0,0.0,0.0,0.0,0.0,0.0,0.0,0.0,0.0,0.0,0.0,0.0,0.0,0.0,0.0,0.0,0.0,0.0,0.0,0.0,0.0,0.0,0.0,0.0,0.0,0.0,0.0,1.7578,1.9366,1.9366,1.9366,1.9366,1.9366,1.9579,1.9693,1.9693,1.9973,2.016,2.0234,2.0234,1.9595,1.8659,1.828,1.893,2.0352,1.9909,1.9807,1.9674,1.7859,1.6431,1.5009,1.332,1.1894,1.0721,1.0721,1.0721,1.0982,1.2672,1.4101,1.5139,1.4232,1.4488,1.4749,1.2153,1.1111,1.1369,1.4879,1.5913,1.6689,2.0195,2.1109,2.1109,2.1109,2.1109,2.1109,2.1109,2.1109,2.1109,2.1109,2.1109,2.1109,2.1109,2.1109,2.1109,2.1109,2.155,2.1904,2.1977,2.3602,2.542,2.7362,2.9074,3.0909,3.2619,3.3155,3.4622,3.7374,3.7974,3.8935,4.0476,4.0949,4.1191,4.1191,4.1191,4.1785,4.2974,4.2974,4.2974,4.2974,4.2974,4.2737,0.0,0.0,0.0,0.0,0.0,0.0,0.0,0.0,0.0,0.0,0.0,0.0,0.0,0.0,0.0,0.0,0.0,0.0,0.0,0.0,0.0,0.0,0.0,0.0,0.0,0.0,0.0,0.0,1.7578,1.9366,1.9366,1.9366,1.9366,1.9366,1.9379,1.9392,1.9392,1.9679,1.996,2.0234,2.0234,2.0119,2.0004,1.8625,1.8025,1.816,1.6728,1.6172,1.6043,1.4227,1.3582,1.3325,1.1501,1.0721,1.0721,1.0721,1.0721,1.0982,1.2672,1.332,1.3709,1.5265,1.4749,1.3451,1.3193,1.2025,1.1369,1.4879,1.5913,1.6689,2.0195,2.1109,2.1109,2.1109,2.1109,2.1109,2.1109,2.1109,2.1109,2.1109,2.1109,2.1109,2.1109,2.1109,2.1109,2.1109,2.1376,2.1677,2.1951,2.2385,2.3333,2.548,2.7238,2.9083,3.0771,3.2492,3.4133,3.5806,3.7374,3.8935,4.0476,4.2024,4.2862,4.2862,4.2862,4.2974,4.2974,4.2974,4.2974,4.2974,4.2974,4.2137,0.0,0.0,0.0,0.0,0.0,0.0,0.0,0.0,0.0,0.0,0.0,0.0,0.0,0.0,0.0,0.0,0.0,0.0,0.0,0.0,0.0,0.0,0.0,0.0,0.0,0.0,0.0,0.0,0.0,1.9165,1.9359,1.9366,1.9366,1.9366,1.9366,1.9366,1.9366,1.9472,1.9573,1.9679,1.9679,1.8671,1.6751,1.6138,1.4913,1.3003,1.2566,1.3616,1.5784,1.397,1.3325,1.3193,1.1372,1.0721,1.0721,1.0721,1.0721,1.0853,1.1372,1.2413,1.3193,1.2672,1.2935,1.3062,1.2025,1.1244,1.1369,1.4879,1.5913,1.6689,2.0195,2.1109,2.1109,2.1109,2.1109,2.1109,2.1109,2.1109,2.1109,2.1109,2.1109,2.1109,2.1109,2.1109,2.1176,2.1363,2.1643,2.1937,2.2225,2.2519,2.3405,2.5233,2.7105,2.8952,3.0642,3.2365,3.4143,3.5683,3.7254,3.8935,4.0476,4.215,4.2974,4.2974,4.2974,4.2974,4.2974,4.2974,4.2974,4.2974,4.2974,4.2137,0.0,0.0,0.0,0.0,0.0,0.0,0.0,0.0,0.0,0.0,0.0,0.0,0.0,0.0,0.0,0.0,0.0,0.0,0.0,0.0,0.0,0.0,0.0,0.0,0.0,0.0,0.0,0.0,0.0,0.0,1.9199,1.9219,1.9265,1.9366,1.9366,1.9366,1.9366,1.9366,1.9366,1.9366,1.9366,1.8022,1.5528,1.4932,1.3355,1.0951,1.0451,1.1629,1.4003,1.2841,1.2358,1.2285,1.1111,1.0721,1.0721,1.0721,1.0721,1.0721,1.0721,1.1505,1.2285,1.1111,1.1501,1.2153,1.1111,1.0721,1.1369,1.4879,1.5913,1.6689,2.0195,2.1109,2.1109,2.1109,2.1109,2.1109,2.1109,2.1109,2.1109,2.1109,2.1109,2.1109,2.1109,2.1189,2.1323,2.1523,2.1884,2.2205,2.2392,2.3208,2.4188,2.5383,2.7627,2.9605,3.0642,3.2365,3.3902,3.4974,3.6528,3.8093,3.9768,4.1305,4.25,4.2974,4.2974,4.2974,4.2974,4.2974,4.2974,4.2974,4.2974,4.2388,0.0,0.0,0.0,0.0,0.0,0.0,0.0,0.0,0.0,0.0,0.0,0.0,0.0,0.0,0.0,0.0,0.0,0.0,0.0,0.0,0.0,0.0,0.0,0.0,0.0,0.0,0.0,0.0,1.6764,1.8604,1.8891,1.8918,1.9058,1.9345,1.9366,1.9366,1.9366,1.9366,1.9366,1.9366,1.9366,1.8525,1.685,1.5311,1.3759,1.2246,1.0656,1.0209,1.048,1.0487,1.0578,1.0714,1.0717,1.0721,1.0721,1.0721,1.0721,1.0721,1.0721,1.0721,1.0721,1.0721,1.0721,1.0721,1.0721,1.0721,1.1372,1.4879,1.5784,1.6689,2.0068,2.1109,2.1109,2.1109,2.1109,2.1109,2.1109,2.1109,2.1109,2.1109,2.1109,2.1109,2.1109,2.1349,2.1543,2.1563,2.2044,2.2412,2.2432,2.4259,2.551,2.551,2.8673,3.0771,3.0771,3.2365,3.3418,3.3418,3.485,3.6528,3.8093,3.9756,4.1305,4.2862,4.2974,4.2974,4.2974,4.2974,4.2974,4.2974,4.2974,4.2974,0.1182,0.0,0.0,0.0,0.0,0.0,0.0,0.0,0.0,0.0,0.0,0.0,0.0,0.0,0.0,0.0,0.0,0.0,0.0,0.0,0.0,0.0,0.0,0.0,0.0,0.0,0.0,0.0,1.6484,1.8297,1.8597,1.8804,1.8958,1.9045,1.9259,1.9366,1.9366,1.9366,1.9366,1.9366,1.8163,1.685,1.5192,1.3646,1.2005,1.0487,1.0005,0.9995,1.0188,1.0402,1.0517,1.0565,1.0677,1.0721,1.0721,1.0721,1.0721,1.0721,1.0721,1.0721,1.0721,1.0721,1.0721,1.0721,1.0721,1.0721,1.1111,1.3451,1.397,1.4879,1.825,2.0195,2.1109,2.1109,2.1109,2.1109,2.1109,2.1109,2.1109,2.1109,2.1109,2.1109,2.1109,2.1176,2.1376,2.1804,2.2004,2.2258,2.2686,2.4402,2.551,2.551,2.8673,3.0771,3.0771,3.2365,3.3418,3.3418,3.485,3.6051,3.6406,3.9159,4.0834,4.1305,4.2388,4.2974,4.2974,4.2974,4.2974,4.2974,4.1785,4.1899,0.0,0.0,0.0,0.0,0.0,0.0,0.0,0.2492,0.0,0.0,0.0,0.0,0.0,0.0,0.0,0.0,0.0,0.0,0.0,0.0,0.0,0.0,0.0,0.0,0.0,1.1538,1.3315,1.3556,1.6199,1.7983,1.829,1.8584,1.8744,1.8744,1.9032,1.9185,1.9185,1.9305,1.9004,1.8402,1.7443,1.5779,1.3531,1.2573,1.1378,0.9822,0.9822,0.9873,0.9971,1.0209,1.0382,1.0507,1.066,1.0721,1.0721,1.0721,1.0721,1.0721,1.0721,1.0721,1.0721,1.0721,1.0721,1.0721,1.0721,1.0721,1.1111,1.2804,1.384,1.5009,1.7731,1.9285,2.0195,2.0976,2.1109,2.1109,2.1109,2.1109,2.1109,2.1109,2.1109,2.1109,2.1109,2.1216,2.145,2.1917,2.2091,2.2592,2.3861,2.5517,2.6972,2.7619,3.0245,3.1835,3.1835,3.2765,3.3418,3.3418,3.4258,3.5088,3.5806,3.8201,3.9884,4.0592,4.2137,4.2974,4.2974,4.2974,4.2974,4.2974,4.2024,4.2137,0.0,0.0,0.0,0.0,0.0,0.0,0.1332,0.1655,0.0,0.0,0.0,0.0,0.0,0.0,0.0,0.0,0.0,0.0,0.0,0.0,0.0,0.0,0.0,0.0,0.913,1.1633,1.3372,1.348,1.6068,1.7702,1.7976,1.8283,1.8444,1.8444,1.8724,1.8878,1.8878,1.9165,1.8597,1.6926,1.6833,1.5187,1.2213,1.1976,1.1137,0.9822,0.9822,0.9822,0.9832,0.9985,1.0215,1.0483,1.0636,1.0704,1.0721,1.0721,1.0721,1.0721,1.0721,1.0721,1.0721,1.0721,1.0721,1.0721,1.0721,1.0721,1.0979,1.2545,1.4232,1.6043,1.7731,1.8378,1.8896,2.0716,2.1109,2.1109,2.1109,2.1109,2.1109,2.1109,2.1109,2.1109,2.1109,2.1329,2.1617,2.1937,2.2205,2.3144,2.5204,2.7105,2.8821,3.0642,3.2365,3.3418,3.3418,3.3418,3.3418,3.3418,3.3418,3.4017,3.5448,3.7133,3.8698,4.0349,4.2137,4.2974,4.2974,4.3184,4.3184,4.2974,4.3184,4.3184,0.2717,0.0,0.0,0.0,0.0,0.0,0.0299,0.0371,0.0,0.0,0.0,0.0,0.0,0.0,0.0,0.0,0.0,0.0,0.0,0.0,0.0,0.0,0.0,0.0,1.0349,1.2196,1.3804,1.4877,1.6605,1.7609,1.7669,1.7963,1.813,1.813,1.8417,1.8577,1.8577,1.8865,1.8186,1.6541,1.5574,1.4004,1.2217,1.0899,1.0061,0.9822,0.9822,0.9822,0.9832,0.9985,1.0158,1.0337,1.048,1.0612,1.0721,1.0721,1.0721,1.0721,1.0721,1.0721,1.0721,1.0721,1.0721,1.0721,1.0721,1.0721,1.0717,1.1111,1.2413,1.4232,1.5918,1.7468,1.8896,2.0716,2.1109,2.1109,2.1109,2.1109,2.1109,2.1109,2.1109,2.1109,2.1109,2.1156,2.1376,2.1904,2.2031,2.291,2.5174,2.7105,2.8829,3.0669,3.2374,3.3418,3.3418,3.3418,3.3418,3.3418,3.3418,3.3544,3.3902,3.5458,3.7013,3.8698,4.1545,4.2974,4.2974,4.4113,4.4016,4.2974,4.4113,4.4016,0.299,0.0,0.0,0.2511,0.0,0.0,0.0,0.0,0.0,0.0,0.0,0.0,0.0,0.0,0.0,0.0,0.0,0.0,0.0,0.0,0.0,0.0,0.0,0.0,0.964,1.1801,1.4098,1.638,1.7765,1.8297,1.7687,1.8351,1.854,1.7816,1.811,1.827,1.827,1.7862,1.6851,1.5243,1.3854,1.2429,1.0905,1.0148,0.9822,0.9822,0.9822,0.9822,0.9825,0.9903,1.0025,1.0185,1.0405,1.0538,1.0616,1.0694,1.0721,1.0721,1.0721,1.0721,1.0721,1.0721,1.0721,1.0721,1.0721,1.0721,1.0721,1.0721,1.1372,1.2545,1.5265,1.6565,1.7859,2.0462,2.1109,2.1109,2.1109,2.1109,2.1109,2.1109,2.1109,2.1109,2.1109,2.1109,2.1263,2.1704,2.1891,2.3175,2.6254,2.753,2.9222,3.1854,3.2902,3.3418,3.3418,3.3418,3.3418,3.3418,3.3418,3.3418,3.3418,3.5694,3.8082,4.0592,4.2137,4.2974,4.2974,4.4318,4.4318,4.2974,4.37,4.3602,0.0,0.0,0.0,0.0,0.0,0.0321,0.0,0.0,0.0,0.0,0.0,0.0,0.0,0.0,0.0,0.0,0.0,0.0,0.0,0.0,0.0,0.0,0.0,0.0,0.8806,1.153,1.4458,1.718,1.8633,1.8861,1.76,1.888,1.902,1.7687,1.7822,1.7956,1.7956,1.6771,1.544,1.3758,1.2632,1.1122,0.9615,0.9754,0.9822,0.9822,0.9822,0.9822,0.9822,0.9822,0.9893,1.0032,1.03,1.0443,1.0507,1.0629,1.0697,1.0721,1.0721,1.0721,1.0721,1.0721,1.0721,1.0721,1.0721,1.0721,1.0721,1.0721,1.0721,1.1501,1.5009,1.5913,1.6818,2.0322,2.1109,2.1109,2.1109,2.1109,2.1109,2.1109,2.1109,2.1109,2.1109,2.1109,2.1209,2.151,2.1797,2.325,2.6801,2.7818,2.9352,3.2492,3.3155,3.3418,3.3418,3.3418,3.3418,3.3418,3.3418,3.3418,3.3418,3.6549,3.9522,4.25,4.2849,4.2974,4.2974,4.4113,4.4016,4.2974,4.3295,4.306,0.0,0.0,0.0,0.0,0.2662,0.0,0.0,0.0,0.0,0.0,0.0,0.0,0.0,0.0,0.0,0.0,0.0,0.0,0.0,0.0,0.0,0.0,0.0,0.0,0.0,1.2506,1.4859,1.668,1.8074,1.8303,1.7284,1.8765,1.902,1.7687,1.7615,1.7635,1.7635,1.6488,1.5187,1.3537,1.2454,1.1122,0.9615,0.9754,0.9822,0.9822,0.9822,0.9822,0.9822,0.9822,0.9832,0.9863,1.0032,1.0259,1.0493,1.051,1.0605,1.0721,1.0721,1.0721,1.0721,1.0721,1.0721,1.0721,1.0721,1.0721,1.0721,1.0721,1.0721,1.1501,1.5009,1.5913,1.6818,2.0322,2.1109,2.1109,2.1109,2.1109,2.1109,2.1109,2.1109,2.1109,2.1109,2.1109,2.1209,2.151,2.1797,2.2863,2.5118,2.7022,2.8952,3.0909,3.2492,3.3418,3.3418,3.3418,3.3418,3.3418,3.3418,3.3418,3.3418,3.6549,3.9053,4.0834,4.2263,4.2974,4.2974,4.3184,4.3184,4.2974,4.4222,4.3403,0.0,0.0,0.0,0.0,0.0,0.0,0.1204,0.0,0.0783,0.0,0.0,0.0,0.0,0.0,0.0,0.0,0.0,0.0,0.0,0.0,0.0,0.0,0.0,0.0,0.0,0.0,0.0,0.0,1.7442,1.816,1.7224,1.9261,1.952,1.7681,1.7582,1.7582,1.7582,1.5421,1.406,1.3411,1.1373,1.0077,0.9483,0.9632,0.9744,0.9822,0.9822,0.9822,0.9822,0.9822,0.9822,0.9829,0.989,1.0046,1.0256,1.0429,1.0531,1.0602,1.0687,1.0721,1.0721,1.0721,1.0721,1.0721,1.0721,1.0721,1.0721,1.0721,1.0721,1.1501,1.5009,1.5913,1.6818,2.0322,2.1109,2.0849,1.9807,2.0329,2.0849,1.9807,2.0456,2.1109,2.1109,2.1109,2.1149,2.1276,2.169,2.2669,2.4595,2.6764,2.8821,3.0642,3.2365,3.3418,3.3418,3.3418,3.3418,3.3418,3.3418,3.4268,3.6061,3.7495,3.9405,4.1899,4.2625,4.2974,4.2974,4.2974,4.2974,4.2974,4.3602,4.2662,0.5623,0.0,0.0,0.0,0.0,0.0,0.0,0.0,0.0,0.0,0.0,0.0,0.0,0.0,0.0,0.0,0.0,0.0,0.0,0.0,0.0,0.0,0.0,0.0,0.0,0.0,0.0,0.0,0.0,1.7244,1.6443,1.9022,1.9535,1.756,1.7542,1.7582,1.7582,1.4776,1.3264,1.327,1.052,0.9235,0.9388,0.954,0.9686,0.9822,0.9822,0.9822,0.9822,0.9822,0.9822,0.9822,0.9822,0.989,1.0019,1.0276,1.0422,1.0507,1.0619,1.0683,1.0721,1.0721,1.0721,1.0721,1.0721,1.0979,1.1372,1.1372,1.1372,1.2153,1.5139,1.5913,1.6695,1.9674,2.0716,2.0716,1.9546,2.0195,2.0716,1.9419,2.0195,2.1109,2.1109,2.1109,2.1109,2.1109,2.1543,2.2408,2.376,2.6336,2.858,2.9977,3.21,3.3418,3.3418,3.3418,3.3418,3.3418,3.3418,3.486,3.8104,3.8223,3.9768,4.2974,4.2974,4.2974,4.2974,4.2974,4.2974,4.2974,4.2974,4.2137,0.0,0.0,0.0,0.5477,0.0,0.0,0.0,0.0,0.316,0.0,0.0,0.0,0.0,0.0,0.0,0.0,0.0,0.0,0.0,0.0,0.0,0.0,0.0,0.0,0.0,0.0,0.0,0.0,1.3544,0.0,1.4433,1.7482,1.8651,1.7264,1.7435,1.7582,1.7582,1.4776,1.3264,1.327,1.052,0.9235,0.9388,0.954,0.9686,0.9822,0.9822,0.9822,0.9822,0.9822,0.9822,0.9822,0.9822,0.9825,0.9846,1.0005,1.0246,1.049,1.0497,1.0595,1.0721,1.0721,1.0721,1.0721,1.0721,1.1894,1.3193,1.3193,1.3193,1.3582,1.5399,1.5913,1.6302,1.8116,1.9807,2.1109,2.0982,2.1109,2.1109,2.0982,2.1109,2.1109,2.1109,2.1109,2.1109,2.1109,2.137,2.167,2.2075,2.5344,2.7905,2.8262,3.1313,3.3418,3.3418,3.3418,3.3418,3.3418,3.3418,3.486,3.8104,3.8223,3.9768,4.2974,4.2974,4.2974,4.2974,4.2974,4.2974,4.2974,4.2974,4.2137,0.0,0.0,0.7547,0.6786,0.0,0.0,0.0,0.0,0.0,0.0,0.0,0.0,0.0,0.0,0.0,0.0,0.0,0.0,0.0,0.0,0.0,0.0,0.0,0.0,0.0,0.0,0.0,0.0,0.9989,0.0,0.0,1.5652,1.7186,1.7237,1.7241,1.6958,1.6168,1.4234,1.2832,1.1864,0.9861,0.914,0.9384,0.9435,0.9591,0.9822,0.9822,0.9822,0.9822,0.9822,0.9822,0.9822,0.9822,0.9822,0.9839,0.9992,1.0178,1.0378,1.0575,1.0677,1.0721,1.0721,1.0721,1.0721,1.0721,1.1894,1.3325,1.3325,1.4101,1.5399,1.7211,1.7602,1.8116,1.9807,2.0716,2.0722,1.9674,2.0329,2.0716,1.9546,2.0329,2.1109,2.1109,2.1109,2.1109,2.1109,2.1363,2.1657,2.1951,2.5344,2.7897,2.813,3.1322,3.3418,3.3418,3.3418,3.3418,3.3418,3.3418,3.4383,3.6528,3.7615,3.917,4.1419,4.25,4.2974,4.2974,4.3907,4.3907,4.2974,4.3907,4.2972,0.7689,0.7743,0.0,0.7444,0.7295,0.0,0.5987,0.0,0.0,0.0,0.0,0.0,0.0,0.0,0.0,0.0,0.0,0.0,0.0,0.0,0.0,0.0,0.0,0.0,0.0,0.0,0.2594,0.4473,0.7269,0.0,0.0,0.0,1.5684,1.6195,1.6823,1.66,1.5276,1.3981,1.2512,1.1105,0.9588,0.9066,0.9303,0.9357,0.9513,0.9747,0.9798,0.9822,0.9822,0.9822,0.9822,0.9822,0.9822,0.9822,0.9832,0.993,1.01,1.0317,1.0555,1.0673,1.0721,1.0721,1.0721,1.085,1.1505,1.2804,1.4362,1.5009,1.5913,1.7082,1.825,1.8506,1.8768,1.9935,2.0589,2.0843,1.968,2.0329,2.0722,1.9674,2.0329,2.1109,2.1109,2.0589,2.0329,2.0982,2.1363,2.1657,2.1951,2.5344,2.7897,2.813,3.1322,3.3418,3.3418,3.3418,3.3418,3.3418,3.3418,3.4133,3.5683,3.7374,3.8935,4.0592,4.2137,4.3184,4.37,4.4522,4.4833,4.4535,4.5356,4.4457]}]]